<?xml version="1.0" encoding="UTF-8" standalone="no" ?>
<gpx xmlns="http://www.topografix.com/GPX/1/1" xmlns:xsi="http://www.w3.org/2001/XMLSchema-instance" xsi:schemaLocation="http://www.topografix.com/GPX/1/1 http://www.topografix.com/GPX/1/1/gpx.xsd" version="1.1" creator="VisuGPX - https://www.visugpx.com">
  <metadata>
    <name>CAMINO FRANCES &quot;ARZUA -  O- PEDROUZO&quot;</name>
    <desc><![CDATA[Etape très facile, l'approche de SANTIAGO est très sensible car plus nous progressons et plus les pélerins sont nombreux. Le fléchage est toujours aussi parfait]]></desc>
  </metadata>
  <trk>
    <name><![CDATA[2016-07-19-01]]></name>
    <trkseg>
      <trkpt lat="42.92755" lon="-8.16025">
        <ele>388.6</ele>
        <time>2016-07-19T04:21:55Z</time>
      </trkpt>
      <trkpt lat="42.92724" lon="-8.16049">
        <ele>388</ele>
        <time>2016-07-19T04:22:01Z</time>
      </trkpt>
      <trkpt lat="42.92714" lon="-8.16057">
        <ele>388</ele>
        <time>2016-07-19T04:22:08Z</time>
      </trkpt>
      <trkpt lat="42.92708" lon="-8.16067">
        <ele>388</ele>
        <time>2016-07-19T04:22:16Z</time>
      </trkpt>
      <trkpt lat="42.92702" lon="-8.16077">
        <ele>387</ele>
        <time>2016-07-19T04:22:24Z</time>
      </trkpt>
      <trkpt lat="42.92693" lon="-8.16081">
        <ele>387</ele>
        <time>2016-07-19T04:22:32Z</time>
      </trkpt>
      <trkpt lat="42.92684" lon="-8.16094">
        <ele>391</ele>
        <time>2016-07-19T04:22:44Z</time>
      </trkpt>
      <trkpt lat="42.92679" lon="-8.16104">
        <ele>392</ele>
        <time>2016-07-19T04:22:52Z</time>
      </trkpt>
      <trkpt lat="42.92674" lon="-8.16117">
        <ele>393</ele>
        <time>2016-07-19T04:23:04Z</time>
      </trkpt>
      <trkpt lat="42.92671" lon="-8.16132">
        <ele>394</ele>
        <time>2016-07-19T04:23:16Z</time>
      </trkpt>
      <trkpt lat="42.92669" lon="-8.16147">
        <ele>394</ele>
        <time>2016-07-19T04:23:28Z</time>
      </trkpt>
      <trkpt lat="42.92664" lon="-8.16161">
        <ele>393</ele>
        <time>2016-07-19T04:23:40Z</time>
      </trkpt>
      <trkpt lat="42.92663" lon="-8.16177">
        <ele>394</ele>
        <time>2016-07-19T04:23:52Z</time>
      </trkpt>
      <trkpt lat="42.9266" lon="-8.16189">
        <ele>393</ele>
        <time>2016-07-19T04:24:00Z</time>
      </trkpt>
      <trkpt lat="42.92653" lon="-8.16202">
        <ele>393</ele>
        <time>2016-07-19T04:24:12Z</time>
      </trkpt>
      <trkpt lat="42.92646" lon="-8.16216">
        <ele>393</ele>
        <time>2016-07-19T04:24:24Z</time>
      </trkpt>
      <trkpt lat="42.92641" lon="-8.16227">
        <ele>394</ele>
        <time>2016-07-19T04:24:32Z</time>
      </trkpt>
      <trkpt lat="42.92637" lon="-8.1624">
        <ele>394</ele>
        <time>2016-07-19T04:24:40Z</time>
      </trkpt>
      <trkpt lat="42.92633" lon="-8.16253">
        <ele>394</ele>
        <time>2016-07-19T04:24:48Z</time>
      </trkpt>
      <trkpt lat="42.92632" lon="-8.1627">
        <ele>394</ele>
        <time>2016-07-19T04:25:00Z</time>
      </trkpt>
      <trkpt lat="42.92632" lon="-8.16285">
        <ele>394</ele>
        <time>2016-07-19T04:25:12Z</time>
      </trkpt>
      <trkpt lat="42.92627" lon="-8.16301">
        <ele>394</ele>
        <time>2016-07-19T04:25:24Z</time>
      </trkpt>
      <trkpt lat="42.92623" lon="-8.16312">
        <ele>394</ele>
        <time>2016-07-19T04:25:32Z</time>
      </trkpt>
      <trkpt lat="42.92623" lon="-8.16327">
        <ele>394</ele>
        <time>2016-07-19T04:25:44Z</time>
      </trkpt>
      <trkpt lat="42.92623" lon="-8.16341">
        <ele>393</ele>
        <time>2016-07-19T04:25:56Z</time>
      </trkpt>
      <trkpt lat="42.92624" lon="-8.16358">
        <ele>393</ele>
        <time>2016-07-19T04:26:12Z</time>
      </trkpt>
      <trkpt lat="42.92622" lon="-8.16373">
        <ele>393</ele>
        <time>2016-07-19T04:26:24Z</time>
      </trkpt>
      <trkpt lat="42.92624" lon="-8.16385">
        <ele>392</ele>
        <time>2016-07-19T04:26:32Z</time>
      </trkpt>
      <trkpt lat="42.92626" lon="-8.164">
        <ele>392</ele>
        <time>2016-07-19T04:26:44Z</time>
      </trkpt>
      <trkpt lat="42.92628" lon="-8.16417">
        <ele>391</ele>
        <time>2016-07-19T04:26:56Z</time>
      </trkpt>
      <trkpt lat="42.92629" lon="-8.16432">
        <ele>390</ele>
        <time>2016-07-19T04:27:08Z</time>
      </trkpt>
      <trkpt lat="42.92626" lon="-8.1645">
        <ele>389</ele>
        <time>2016-07-19T04:27:20Z</time>
      </trkpt>
      <trkpt lat="42.92625" lon="-8.16464">
        <ele>388</ele>
        <time>2016-07-19T04:27:28Z</time>
      </trkpt>
      <trkpt lat="42.92626" lon="-8.16476">
        <ele>388</ele>
        <time>2016-07-19T04:27:40Z</time>
      </trkpt>
      <trkpt lat="42.92631" lon="-8.16491">
        <ele>388</ele>
        <time>2016-07-19T04:27:52Z</time>
      </trkpt>
      <trkpt lat="42.92628" lon="-8.1651">
        <ele>387</ele>
        <time>2016-07-19T04:28:04Z</time>
      </trkpt>
      <trkpt lat="42.92627" lon="-8.16525">
        <ele>386</ele>
        <time>2016-07-19T04:28:12Z</time>
      </trkpt>
      <trkpt lat="42.92626" lon="-8.16538">
        <ele>386</ele>
        <time>2016-07-19T04:28:20Z</time>
      </trkpt>
      <trkpt lat="42.92628" lon="-8.16553">
        <ele>384</ele>
        <time>2016-07-19T04:28:32Z</time>
      </trkpt>
      <trkpt lat="42.92631" lon="-8.1657">
        <ele>383</ele>
        <time>2016-07-19T04:28:44Z</time>
      </trkpt>
      <trkpt lat="42.92637" lon="-8.16584">
        <ele>382</ele>
        <time>2016-07-19T04:28:56Z</time>
      </trkpt>
      <trkpt lat="42.92645" lon="-8.16592">
        <ele>381</ele>
        <time>2016-07-19T04:29:04Z</time>
      </trkpt>
      <trkpt lat="42.92655" lon="-8.16602">
        <ele>379</ele>
        <time>2016-07-19T04:29:16Z</time>
      </trkpt>
      <trkpt lat="42.92662" lon="-8.16617">
        <ele>378</ele>
        <time>2016-07-19T04:29:28Z</time>
      </trkpt>
      <trkpt lat="42.92668" lon="-8.16632">
        <ele>377</ele>
        <time>2016-07-19T04:29:40Z</time>
      </trkpt>
      <trkpt lat="42.92669" lon="-8.16649">
        <ele>376</ele>
        <time>2016-07-19T04:29:52Z</time>
      </trkpt>
      <trkpt lat="42.9267" lon="-8.16662">
        <ele>375</ele>
        <time>2016-07-19T04:30:00Z</time>
      </trkpt>
      <trkpt lat="42.92674" lon="-8.16674">
        <ele>374.7</ele>
        <time>2016-07-19T04:30:08Z</time>
      </trkpt>
      <trkpt lat="42.92676" lon="-8.16688">
        <ele>374.2</ele>
        <time>2016-07-19T04:30:16Z</time>
      </trkpt>
      <trkpt lat="42.92676" lon="-8.16701">
        <ele>373.7</ele>
        <time>2016-07-19T04:30:25Z</time>
      </trkpt>
      <trkpt lat="42.92677" lon="-8.16715">
        <ele>373</ele>
        <time>2016-07-19T04:30:35Z</time>
      </trkpt>
      <trkpt lat="42.92678" lon="-8.16729">
        <ele>372</ele>
        <time>2016-07-19T04:30:45Z</time>
      </trkpt>
      <trkpt lat="42.92677" lon="-8.16742">
        <ele>371.5</ele>
        <time>2016-07-19T04:30:53Z</time>
      </trkpt>
      <trkpt lat="42.92675" lon="-8.16755">
        <ele>370.3</ele>
        <time>2016-07-19T04:31:01Z</time>
      </trkpt>
      <trkpt lat="42.92674" lon="-8.16768">
        <ele>369.1</ele>
        <time>2016-07-19T04:31:11Z</time>
      </trkpt>
      <trkpt lat="42.92675" lon="-8.16782">
        <ele>368.2</ele>
        <time>2016-07-19T04:31:20Z</time>
      </trkpt>
      <trkpt lat="42.92675" lon="-8.16795">
        <ele>367.2</ele>
        <time>2016-07-19T04:31:30Z</time>
      </trkpt>
      <trkpt lat="42.92675" lon="-8.16809">
        <ele>366.2</ele>
        <time>2016-07-19T04:31:38Z</time>
      </trkpt>
      <trkpt lat="42.92677" lon="-8.16821">
        <ele>365.3</ele>
        <time>2016-07-19T04:31:46Z</time>
      </trkpt>
      <trkpt lat="42.92679" lon="-8.16835">
        <ele>364</ele>
        <time>2016-07-19T04:31:55Z</time>
      </trkpt>
      <trkpt lat="42.9268" lon="-8.16849">
        <ele>362.7</ele>
        <time>2016-07-19T04:32:03Z</time>
      </trkpt>
      <trkpt lat="42.92684" lon="-8.16861">
        <ele>361.3</ele>
        <time>2016-07-19T04:32:12Z</time>
      </trkpt>
      <trkpt lat="42.92687" lon="-8.16874">
        <ele>360</ele>
        <time>2016-07-19T04:32:21Z</time>
      </trkpt>
      <trkpt lat="42.9269" lon="-8.16887">
        <ele>358.4</ele>
        <time>2016-07-19T04:32:31Z</time>
      </trkpt>
      <trkpt lat="42.92692" lon="-8.169">
        <ele>357.1</ele>
        <time>2016-07-19T04:32:40Z</time>
      </trkpt>
      <trkpt lat="42.92695" lon="-8.16913">
        <ele>356</ele>
        <time>2016-07-19T04:32:49Z</time>
      </trkpt>
      <trkpt lat="42.92698" lon="-8.16926">
        <ele>354.7</ele>
        <time>2016-07-19T04:32:59Z</time>
      </trkpt>
      <trkpt lat="42.92701" lon="-8.16939">
        <ele>353.7</ele>
        <time>2016-07-19T04:33:08Z</time>
      </trkpt>
      <trkpt lat="42.92702" lon="-8.16952">
        <ele>352.3</ele>
        <time>2016-07-19T04:33:19Z</time>
      </trkpt>
      <trkpt lat="42.92706" lon="-8.16964">
        <ele>351.2</ele>
        <time>2016-07-19T04:33:29Z</time>
      </trkpt>
      <trkpt lat="42.92709" lon="-8.16976">
        <ele>350.2</ele>
        <time>2016-07-19T04:33:36Z</time>
      </trkpt>
      <trkpt lat="42.92711" lon="-8.16988">
        <ele>349.2</ele>
        <time>2016-07-19T04:33:45Z</time>
      </trkpt>
      <trkpt lat="42.9271" lon="-8.17001">
        <ele>348.3</ele>
        <time>2016-07-19T04:33:55Z</time>
      </trkpt>
      <trkpt lat="42.9271" lon="-8.17014">
        <ele>347.6</ele>
        <time>2016-07-19T04:34:04Z</time>
      </trkpt>
      <trkpt lat="42.92708" lon="-8.17026">
        <ele>346.4</ele>
        <time>2016-07-19T04:34:14Z</time>
      </trkpt>
      <trkpt lat="42.92707" lon="-8.17039">
        <ele>345.4</ele>
        <time>2016-07-19T04:34:23Z</time>
      </trkpt>
      <trkpt lat="42.92706" lon="-8.17053">
        <ele>345.1</ele>
        <time>2016-07-19T04:34:31Z</time>
      </trkpt>
      <trkpt lat="42.92705" lon="-8.17067">
        <ele>345</ele>
        <time>2016-07-19T04:34:40Z</time>
      </trkpt>
      <trkpt lat="42.92705" lon="-8.1708">
        <ele>344.8</ele>
        <time>2016-07-19T04:34:48Z</time>
      </trkpt>
      <trkpt lat="42.92704" lon="-8.17093">
        <ele>344.7</ele>
        <time>2016-07-19T04:34:56Z</time>
      </trkpt>
      <trkpt lat="42.92701" lon="-8.17106">
        <ele>344.8</ele>
        <time>2016-07-19T04:35:03Z</time>
      </trkpt>
      <trkpt lat="42.92698" lon="-8.17118">
        <ele>345</ele>
        <time>2016-07-19T04:35:11Z</time>
      </trkpt>
      <trkpt lat="42.927" lon="-8.1713">
        <ele>345.5</ele>
        <time>2016-07-19T04:35:22Z</time>
      </trkpt>
      <trkpt lat="42.92701" lon="-8.17144">
        <ele>346</ele>
        <time>2016-07-19T04:35:32Z</time>
      </trkpt>
      <trkpt lat="42.92703" lon="-8.17157">
        <ele>346.8</ele>
        <time>2016-07-19T04:35:43Z</time>
      </trkpt>
      <trkpt lat="42.92709" lon="-8.17166">
        <ele>347.7</ele>
        <time>2016-07-19T04:35:56Z</time>
      </trkpt>
      <trkpt lat="42.92718" lon="-8.17161">
        <ele>348.2</ele>
        <time>2016-07-19T04:36:13Z</time>
      </trkpt>
      <trkpt lat="42.92716" lon="-8.17174">
        <ele>348.2</ele>
        <time>2016-07-19T04:36:51Z</time>
      </trkpt>
      <trkpt lat="42.92714" lon="-8.17186">
        <ele>348.5</ele>
        <time>2016-07-19T04:36:59Z</time>
      </trkpt>
      <trkpt lat="42.92713" lon="-8.17199">
        <ele>349.2</ele>
        <time>2016-07-19T04:37:09Z</time>
      </trkpt>
      <trkpt lat="42.92712" lon="-8.17212">
        <ele>350.5</ele>
        <time>2016-07-19T04:37:21Z</time>
      </trkpt>
      <trkpt lat="42.92717" lon="-8.17223">
        <ele>352.1</ele>
        <time>2016-07-19T04:37:32Z</time>
      </trkpt>
      <trkpt lat="42.92721" lon="-8.17235">
        <ele>353.8</ele>
        <time>2016-07-19T04:37:44Z</time>
      </trkpt>
      <trkpt lat="42.92724" lon="-8.17247">
        <ele>354.5</ele>
        <time>2016-07-19T04:37:53Z</time>
      </trkpt>
      <trkpt lat="42.92728" lon="-8.17259">
        <ele>355</ele>
        <time>2016-07-19T04:38:01Z</time>
      </trkpt>
      <trkpt lat="42.92733" lon="-8.1727">
        <ele>355.7</ele>
        <time>2016-07-19T04:38:12Z</time>
      </trkpt>
      <trkpt lat="42.92735" lon="-8.17283">
        <ele>356.4</ele>
        <time>2016-07-19T04:38:23Z</time>
      </trkpt>
      <trkpt lat="42.92738" lon="-8.17296">
        <ele>357.1</ele>
        <time>2016-07-19T04:38:32Z</time>
      </trkpt>
      <trkpt lat="42.9274" lon="-8.17308">
        <ele>358.2</ele>
        <time>2016-07-19T04:38:40Z</time>
      </trkpt>
      <trkpt lat="42.92745" lon="-8.17318">
        <ele>359</ele>
        <time>2016-07-19T04:38:48Z</time>
      </trkpt>
      <trkpt lat="42.92749" lon="-8.17331">
        <ele>359.9</ele>
        <time>2016-07-19T04:38:58Z</time>
      </trkpt>
      <trkpt lat="42.92747" lon="-8.17344">
        <ele>360.8</ele>
        <time>2016-07-19T04:39:10Z</time>
      </trkpt>
      <trkpt lat="42.92742" lon="-8.17355">
        <ele>361</ele>
        <time>2016-07-19T04:39:19Z</time>
      </trkpt>
      <trkpt lat="42.92737" lon="-8.17367">
        <ele>361</ele>
        <time>2016-07-19T04:39:26Z</time>
      </trkpt>
      <trkpt lat="42.92733" lon="-8.17377">
        <ele>360.6</ele>
        <time>2016-07-19T04:39:32Z</time>
      </trkpt>
      <trkpt lat="42.92727" lon="-8.17389">
        <ele>360.3</ele>
        <time>2016-07-19T04:39:41Z</time>
      </trkpt>
      <trkpt lat="42.9272" lon="-8.17397">
        <ele>359.8</ele>
        <time>2016-07-19T04:39:51Z</time>
      </trkpt>
      <trkpt lat="42.92712" lon="-8.17405">
        <ele>359.6</ele>
        <time>2016-07-19T04:39:59Z</time>
      </trkpt>
      <trkpt lat="42.92703" lon="-8.17409">
        <ele>359.4</ele>
        <time>2016-07-19T04:40:08Z</time>
      </trkpt>
      <trkpt lat="42.92693" lon="-8.17413">
        <ele>359.3</ele>
        <time>2016-07-19T04:40:15Z</time>
      </trkpt>
      <trkpt lat="42.92684" lon="-8.17415">
        <ele>359.2</ele>
        <time>2016-07-19T04:40:22Z</time>
      </trkpt>
      <trkpt lat="42.92674" lon="-8.17415">
        <ele>359</ele>
        <time>2016-07-19T04:40:30Z</time>
      </trkpt>
      <trkpt lat="42.92664" lon="-8.17417">
        <ele>358.9</ele>
        <time>2016-07-19T04:40:39Z</time>
      </trkpt>
      <trkpt lat="42.92655" lon="-8.17421">
        <ele>358.4</ele>
        <time>2016-07-19T04:40:47Z</time>
      </trkpt>
      <trkpt lat="42.92646" lon="-8.17427">
        <ele>358.4</ele>
        <time>2016-07-19T04:40:55Z</time>
      </trkpt>
      <trkpt lat="42.9264" lon="-8.17437">
        <ele>358.3</ele>
        <time>2016-07-19T04:41:02Z</time>
      </trkpt>
      <trkpt lat="42.92635" lon="-8.17449">
        <ele>358.1</ele>
        <time>2016-07-19T04:41:11Z</time>
      </trkpt>
      <trkpt lat="42.9263" lon="-8.17461">
        <ele>357.8</ele>
        <time>2016-07-19T04:41:19Z</time>
      </trkpt>
      <trkpt lat="42.92624" lon="-8.17471">
        <ele>357.8</ele>
        <time>2016-07-19T04:41:28Z</time>
      </trkpt>
      <trkpt lat="42.92619" lon="-8.17483">
        <ele>357.5</ele>
        <time>2016-07-19T04:41:36Z</time>
      </trkpt>
      <trkpt lat="42.92614" lon="-8.17494">
        <ele>357.1</ele>
        <time>2016-07-19T04:41:45Z</time>
      </trkpt>
      <trkpt lat="42.92609" lon="-8.17505">
        <ele>357.2</ele>
        <time>2016-07-19T04:41:54Z</time>
      </trkpt>
      <trkpt lat="42.92604" lon="-8.17516">
        <ele>356.5</ele>
        <time>2016-07-19T04:42:04Z</time>
      </trkpt>
      <trkpt lat="42.92601" lon="-8.17529">
        <ele>356.2</ele>
        <time>2016-07-19T04:42:12Z</time>
      </trkpt>
      <trkpt lat="42.92596" lon="-8.17541">
        <ele>356.1</ele>
        <time>2016-07-19T04:42:20Z</time>
      </trkpt>
      <trkpt lat="42.92592" lon="-8.17553">
        <ele>356.1</ele>
        <time>2016-07-19T04:42:28Z</time>
      </trkpt>
      <trkpt lat="42.92588" lon="-8.17565">
        <ele>355.8</ele>
        <time>2016-07-19T04:42:36Z</time>
      </trkpt>
      <trkpt lat="42.92582" lon="-8.17577">
        <ele>355.6</ele>
        <time>2016-07-19T04:42:43Z</time>
      </trkpt>
      <trkpt lat="42.92578" lon="-8.17588">
        <ele>355.1</ele>
        <time>2016-07-19T04:42:51Z</time>
      </trkpt>
      <trkpt lat="42.92575" lon="-8.176">
        <ele>354.4</ele>
        <time>2016-07-19T04:42:59Z</time>
      </trkpt>
      <trkpt lat="42.9257" lon="-8.17611">
        <ele>353.9</ele>
        <time>2016-07-19T04:43:05Z</time>
      </trkpt>
      <trkpt lat="42.92566" lon="-8.17623">
        <ele>353.2</ele>
        <time>2016-07-19T04:43:12Z</time>
      </trkpt>
      <trkpt lat="42.92564" lon="-8.17635">
        <ele>352.5</ele>
        <time>2016-07-19T04:43:26Z</time>
      </trkpt>
      <trkpt lat="42.92572" lon="-8.17642">
        <ele>349.9</ele>
        <time>2016-07-19T04:45:05Z</time>
      </trkpt>
      <trkpt lat="42.92567" lon="-8.17653">
        <ele>349.2</ele>
        <time>2016-07-19T04:45:22Z</time>
      </trkpt>
      <trkpt lat="42.92561" lon="-8.17664">
        <ele>349</ele>
        <time>2016-07-19T04:45:31Z</time>
      </trkpt>
      <trkpt lat="42.92557" lon="-8.17675">
        <ele>348.8</ele>
        <time>2016-07-19T04:45:39Z</time>
      </trkpt>
      <trkpt lat="42.92553" lon="-8.17687">
        <ele>348.6</ele>
        <time>2016-07-19T04:45:47Z</time>
      </trkpt>
      <trkpt lat="42.92549" lon="-8.17698">
        <ele>348.2</ele>
        <time>2016-07-19T04:45:55Z</time>
      </trkpt>
      <trkpt lat="42.92544" lon="-8.1771">
        <ele>347.6</ele>
        <time>2016-07-19T04:46:03Z</time>
      </trkpt>
      <trkpt lat="42.9254" lon="-8.17721">
        <ele>347.2</ele>
        <time>2016-07-19T04:46:10Z</time>
      </trkpt>
      <trkpt lat="42.92536" lon="-8.17733">
        <ele>346.4</ele>
        <time>2016-07-19T04:46:19Z</time>
      </trkpt>
      <trkpt lat="42.92534" lon="-8.17746">
        <ele>345.7</ele>
        <time>2016-07-19T04:46:27Z</time>
      </trkpt>
      <trkpt lat="42.92532" lon="-8.17758">
        <ele>344.6</ele>
        <time>2016-07-19T04:46:35Z</time>
      </trkpt>
      <trkpt lat="42.92531" lon="-8.17771">
        <ele>343.6</ele>
        <time>2016-07-19T04:46:43Z</time>
      </trkpt>
      <trkpt lat="42.92529" lon="-8.17784">
        <ele>342.9</ele>
        <time>2016-07-19T04:46:52Z</time>
      </trkpt>
      <trkpt lat="42.92527" lon="-8.17796">
        <ele>342.3</ele>
        <time>2016-07-19T04:47:00Z</time>
      </trkpt>
      <trkpt lat="42.92528" lon="-8.17809">
        <ele>341.2</ele>
        <time>2016-07-19T04:47:10Z</time>
      </trkpt>
      <trkpt lat="42.92528" lon="-8.17822">
        <ele>339.9</ele>
        <time>2016-07-19T04:47:18Z</time>
      </trkpt>
      <trkpt lat="42.92528" lon="-8.17834">
        <ele>339</ele>
        <time>2016-07-19T04:47:26Z</time>
      </trkpt>
      <trkpt lat="42.92529" lon="-8.17846">
        <ele>337.8</ele>
        <time>2016-07-19T04:47:34Z</time>
      </trkpt>
      <trkpt lat="42.92528" lon="-8.17859">
        <ele>337</ele>
        <time>2016-07-19T04:47:42Z</time>
      </trkpt>
      <trkpt lat="42.92529" lon="-8.17872">
        <ele>335.8</ele>
        <time>2016-07-19T04:47:50Z</time>
      </trkpt>
      <trkpt lat="42.92529" lon="-8.17886">
        <ele>334.2</ele>
        <time>2016-07-19T04:47:58Z</time>
      </trkpt>
      <trkpt lat="42.92532" lon="-8.17898">
        <ele>332.9</ele>
        <time>2016-07-19T04:48:07Z</time>
      </trkpt>
      <trkpt lat="42.92534" lon="-8.17911">
        <ele>331.9</ele>
        <time>2016-07-19T04:48:16Z</time>
      </trkpt>
      <trkpt lat="42.92537" lon="-8.17924">
        <ele>330.7</ele>
        <time>2016-07-19T04:48:25Z</time>
      </trkpt>
      <trkpt lat="42.9254" lon="-8.17937">
        <ele>329.7</ele>
        <time>2016-07-19T04:48:35Z</time>
      </trkpt>
      <trkpt lat="42.92543" lon="-8.17949">
        <ele>328.9</ele>
        <time>2016-07-19T04:48:43Z</time>
      </trkpt>
      <trkpt lat="42.92546" lon="-8.17962">
        <ele>327.9</ele>
        <time>2016-07-19T04:48:51Z</time>
      </trkpt>
      <trkpt lat="42.92552" lon="-8.17973">
        <ele>326.9</ele>
        <time>2016-07-19T04:49:00Z</time>
      </trkpt>
      <trkpt lat="42.92556" lon="-8.17985">
        <ele>325.8</ele>
        <time>2016-07-19T04:49:09Z</time>
      </trkpt>
      <trkpt lat="42.92558" lon="-8.17997">
        <ele>325.1</ele>
        <time>2016-07-19T04:49:18Z</time>
      </trkpt>
      <trkpt lat="42.92559" lon="-8.18011">
        <ele>324.5</ele>
        <time>2016-07-19T04:49:27Z</time>
      </trkpt>
      <trkpt lat="42.92556" lon="-8.18023">
        <ele>323.4</ele>
        <time>2016-07-19T04:49:37Z</time>
      </trkpt>
      <trkpt lat="42.92549" lon="-8.18032">
        <ele>322.3</ele>
        <time>2016-07-19T04:49:45Z</time>
      </trkpt>
      <trkpt lat="42.92541" lon="-8.1804">
        <ele>321.6</ele>
        <time>2016-07-19T04:49:53Z</time>
      </trkpt>
      <trkpt lat="42.92532" lon="-8.18043">
        <ele>321</ele>
        <time>2016-07-19T04:50:02Z</time>
      </trkpt>
      <trkpt lat="42.92523" lon="-8.18047">
        <ele>320.3</ele>
        <time>2016-07-19T04:50:11Z</time>
      </trkpt>
      <trkpt lat="42.92515" lon="-8.1805">
        <ele>319.5</ele>
        <time>2016-07-19T04:50:20Z</time>
      </trkpt>
      <trkpt lat="42.92505" lon="-8.18051">
        <ele>319.3</ele>
        <time>2016-07-19T04:50:29Z</time>
      </trkpt>
      <trkpt lat="42.92496" lon="-8.18055">
        <ele>319</ele>
        <time>2016-07-19T04:50:38Z</time>
      </trkpt>
      <trkpt lat="42.92488" lon="-8.18064">
        <ele>318.5</ele>
        <time>2016-07-19T04:50:46Z</time>
      </trkpt>
      <trkpt lat="42.92481" lon="-8.18074">
        <ele>318.1</ele>
        <time>2016-07-19T04:50:56Z</time>
      </trkpt>
      <trkpt lat="42.92479" lon="-8.18087">
        <ele>317.6</ele>
        <time>2016-07-19T04:51:05Z</time>
      </trkpt>
      <trkpt lat="42.92477" lon="-8.181">
        <ele>317.2</ele>
        <time>2016-07-19T04:51:14Z</time>
      </trkpt>
      <trkpt lat="42.92476" lon="-8.18114">
        <ele>317.1</ele>
        <time>2016-07-19T04:51:22Z</time>
      </trkpt>
      <trkpt lat="42.92475" lon="-8.18127">
        <ele>317</ele>
        <time>2016-07-19T04:51:29Z</time>
      </trkpt>
      <trkpt lat="42.92473" lon="-8.18141">
        <ele>316.9</ele>
        <time>2016-07-19T04:51:39Z</time>
      </trkpt>
      <trkpt lat="42.92471" lon="-8.18153">
        <ele>316.9</ele>
        <time>2016-07-19T04:51:48Z</time>
      </trkpt>
      <trkpt lat="42.92469" lon="-8.18166">
        <ele>317</ele>
        <time>2016-07-19T04:51:56Z</time>
      </trkpt>
      <trkpt lat="42.92466" lon="-8.18178">
        <ele>317</ele>
        <time>2016-07-19T04:52:03Z</time>
      </trkpt>
      <trkpt lat="42.92463" lon="-8.1819">
        <ele>317.2</ele>
        <time>2016-07-19T04:52:10Z</time>
      </trkpt>
      <trkpt lat="42.92459" lon="-8.18201">
        <ele>317.5</ele>
        <time>2016-07-19T04:52:17Z</time>
      </trkpt>
      <trkpt lat="42.92455" lon="-8.18213">
        <ele>317.7</ele>
        <time>2016-07-19T04:52:27Z</time>
      </trkpt>
      <trkpt lat="42.92452" lon="-8.18225">
        <ele>317.9</ele>
        <time>2016-07-19T04:52:37Z</time>
      </trkpt>
      <trkpt lat="42.92454" lon="-8.18237">
        <ele>318.5</ele>
        <time>2016-07-19T04:52:46Z</time>
      </trkpt>
      <trkpt lat="42.92458" lon="-8.18249">
        <ele>319.8</ele>
        <time>2016-07-19T04:52:59Z</time>
      </trkpt>
      <trkpt lat="42.92457" lon="-8.18262">
        <ele>321.4</ele>
        <time>2016-07-19T04:53:11Z</time>
      </trkpt>
      <trkpt lat="42.92452" lon="-8.18274">
        <ele>322.2</ele>
        <time>2016-07-19T04:53:19Z</time>
      </trkpt>
      <trkpt lat="42.92448" lon="-8.18285">
        <ele>323.1</ele>
        <time>2016-07-19T04:53:26Z</time>
      </trkpt>
      <trkpt lat="42.92445" lon="-8.18298">
        <ele>324.2</ele>
        <time>2016-07-19T04:53:35Z</time>
      </trkpt>
      <trkpt lat="42.92439" lon="-8.18309">
        <ele>325.7</ele>
        <time>2016-07-19T04:53:46Z</time>
      </trkpt>
      <trkpt lat="42.92435" lon="-8.18319">
        <ele>326.8</ele>
        <time>2016-07-19T04:53:56Z</time>
      </trkpt>
      <trkpt lat="42.92428" lon="-8.1833">
        <ele>327.5</ele>
        <time>2016-07-19T04:54:05Z</time>
      </trkpt>
      <trkpt lat="42.92423" lon="-8.1834">
        <ele>328.6</ele>
        <time>2016-07-19T04:54:15Z</time>
      </trkpt>
      <trkpt lat="42.9242" lon="-8.18352">
        <ele>330</ele>
        <time>2016-07-19T04:54:25Z</time>
      </trkpt>
      <trkpt lat="42.92419" lon="-8.18365">
        <ele>331.6</ele>
        <time>2016-07-19T04:54:38Z</time>
      </trkpt>
      <trkpt lat="42.92421" lon="-8.18377">
        <ele>332.5</ele>
        <time>2016-07-19T04:54:47Z</time>
      </trkpt>
      <trkpt lat="42.92426" lon="-8.18388">
        <ele>333.7</ele>
        <time>2016-07-19T04:54:57Z</time>
      </trkpt>
      <trkpt lat="42.92426" lon="-8.18401">
        <ele>335.2</ele>
        <time>2016-07-19T04:55:12Z</time>
      </trkpt>
      <trkpt lat="42.92424" lon="-8.18413">
        <ele>336.7</ele>
        <time>2016-07-19T04:55:23Z</time>
      </trkpt>
      <trkpt lat="42.9242" lon="-8.18425">
        <ele>338.5</ele>
        <time>2016-07-19T04:55:36Z</time>
      </trkpt>
      <trkpt lat="42.92415" lon="-8.18436">
        <ele>339.2</ele>
        <time>2016-07-19T04:55:45Z</time>
      </trkpt>
      <trkpt lat="42.92408" lon="-8.18444">
        <ele>339.8</ele>
        <time>2016-07-19T04:55:54Z</time>
      </trkpt>
      <trkpt lat="42.92403" lon="-8.18455">
        <ele>341.3</ele>
        <time>2016-07-19T04:56:37Z</time>
      </trkpt>
      <trkpt lat="42.92394" lon="-8.1846">
        <ele>341</ele>
        <time>2016-07-19T04:56:51Z</time>
      </trkpt>
      <trkpt lat="42.92385" lon="-8.18466">
        <ele>341.2</ele>
        <time>2016-07-19T04:57:00Z</time>
      </trkpt>
      <trkpt lat="42.92376" lon="-8.18472">
        <ele>341.1</ele>
        <time>2016-07-19T04:57:08Z</time>
      </trkpt>
      <trkpt lat="42.92367" lon="-8.18476">
        <ele>341.5</ele>
        <time>2016-07-19T04:57:18Z</time>
      </trkpt>
      <trkpt lat="42.92358" lon="-8.18479">
        <ele>341.7</ele>
        <time>2016-07-19T04:57:24Z</time>
      </trkpt>
      <trkpt lat="42.9235" lon="-8.18485">
        <ele>341.8</ele>
        <time>2016-07-19T04:57:30Z</time>
      </trkpt>
      <trkpt lat="42.9234" lon="-8.18488">
        <ele>341.8</ele>
        <time>2016-07-19T04:57:36Z</time>
      </trkpt>
      <trkpt lat="42.92332" lon="-8.18492">
        <ele>341.9</ele>
        <time>2016-07-19T04:57:43Z</time>
      </trkpt>
      <trkpt lat="42.92322" lon="-8.18495">
        <ele>341.6</ele>
        <time>2016-07-19T04:57:50Z</time>
      </trkpt>
      <trkpt lat="42.92313" lon="-8.185">
        <ele>341.4</ele>
        <time>2016-07-19T04:57:58Z</time>
      </trkpt>
      <trkpt lat="42.92304" lon="-8.18506">
        <ele>341.2</ele>
        <time>2016-07-19T04:58:06Z</time>
      </trkpt>
      <trkpt lat="42.92295" lon="-8.1851">
        <ele>341.2</ele>
        <time>2016-07-19T04:58:13Z</time>
      </trkpt>
      <trkpt lat="42.92287" lon="-8.18517">
        <ele>341.1</ele>
        <time>2016-07-19T04:58:22Z</time>
      </trkpt>
      <trkpt lat="42.92279" lon="-8.18526">
        <ele>340.7</ele>
        <time>2016-07-19T04:58:30Z</time>
      </trkpt>
      <trkpt lat="42.92272" lon="-8.18536">
        <ele>340.5</ele>
        <time>2016-07-19T04:58:38Z</time>
      </trkpt>
      <trkpt lat="42.92267" lon="-8.18547">
        <ele>340.6</ele>
        <time>2016-07-19T04:58:48Z</time>
      </trkpt>
      <trkpt lat="42.92264" lon="-8.18559">
        <ele>340.8</ele>
        <time>2016-07-19T04:58:57Z</time>
      </trkpt>
      <trkpt lat="42.92264" lon="-8.18572">
        <ele>340.9</ele>
        <time>2016-07-19T04:59:07Z</time>
      </trkpt>
      <trkpt lat="42.92266" lon="-8.18584">
        <ele>341.2</ele>
        <time>2016-07-19T04:59:14Z</time>
      </trkpt>
      <trkpt lat="42.92267" lon="-8.18597">
        <ele>341.7</ele>
        <time>2016-07-19T04:59:22Z</time>
      </trkpt>
      <trkpt lat="42.92268" lon="-8.18609">
        <ele>342.1</ele>
        <time>2016-07-19T04:59:30Z</time>
      </trkpt>
      <trkpt lat="42.92267" lon="-8.18623">
        <ele>342.6</ele>
        <time>2016-07-19T04:59:40Z</time>
      </trkpt>
      <trkpt lat="42.92265" lon="-8.18636">
        <ele>343.7</ele>
        <time>2016-07-19T04:59:49Z</time>
      </trkpt>
      <trkpt lat="42.92266" lon="-8.18648">
        <ele>344.3</ele>
        <time>2016-07-19T04:59:59Z</time>
      </trkpt>
      <trkpt lat="42.92264" lon="-8.18661">
        <ele>344.8</ele>
        <time>2016-07-19T05:00:09Z</time>
      </trkpt>
      <trkpt lat="42.92261" lon="-8.18673">
        <ele>345.3</ele>
        <time>2016-07-19T05:00:17Z</time>
      </trkpt>
      <trkpt lat="42.9226" lon="-8.18687">
        <ele>346.1</ele>
        <time>2016-07-19T05:00:27Z</time>
      </trkpt>
      <trkpt lat="42.92264" lon="-8.18698">
        <ele>347.2</ele>
        <time>2016-07-19T05:00:37Z</time>
      </trkpt>
      <trkpt lat="42.92268" lon="-8.1871">
        <ele>348</ele>
        <time>2016-07-19T05:00:48Z</time>
      </trkpt>
      <trkpt lat="42.92272" lon="-8.18722">
        <ele>349</ele>
        <time>2016-07-19T05:00:58Z</time>
      </trkpt>
      <trkpt lat="42.92275" lon="-8.18735">
        <ele>349.2</ele>
        <time>2016-07-19T05:01:07Z</time>
      </trkpt>
      <trkpt lat="42.92275" lon="-8.18747">
        <ele>349.6</ele>
        <time>2016-07-19T05:01:15Z</time>
      </trkpt>
      <trkpt lat="42.92275" lon="-8.18759">
        <ele>350.3</ele>
        <time>2016-07-19T05:01:23Z</time>
      </trkpt>
      <trkpt lat="42.92277" lon="-8.18772">
        <ele>351.9</ele>
        <time>2016-07-19T05:01:36Z</time>
      </trkpt>
      <trkpt lat="42.92284" lon="-8.18782">
        <ele>352.8</ele>
        <time>2016-07-19T05:01:47Z</time>
      </trkpt>
      <trkpt lat="42.9229" lon="-8.18791">
        <ele>353.9</ele>
        <time>2016-07-19T05:01:57Z</time>
      </trkpt>
      <trkpt lat="42.92297" lon="-8.188">
        <ele>355.3</ele>
        <time>2016-07-19T05:02:08Z</time>
      </trkpt>
      <trkpt lat="42.92313" lon="-8.18818">
        <ele>356</ele>
        <time>2016-07-19T05:02:21Z</time>
      </trkpt>
      <trkpt lat="42.9231" lon="-8.18844">
        <ele>357.2</ele>
        <time>2016-07-19T05:02:30Z</time>
      </trkpt>
      <trkpt lat="42.92303" lon="-8.18837">
        <ele>359</ele>
        <time>2016-07-19T05:03:08Z</time>
      </trkpt>
      <trkpt lat="42.92303" lon="-8.1885">
        <ele>362</ele>
        <time>2016-07-19T05:03:53Z</time>
      </trkpt>
      <trkpt lat="42.92311" lon="-8.18857">
        <ele>363.7</ele>
        <time>2016-07-19T05:04:07Z</time>
      </trkpt>
      <trkpt lat="42.9232" lon="-8.18863">
        <ele>365.1</ele>
        <time>2016-07-19T05:04:18Z</time>
      </trkpt>
      <trkpt lat="42.92328" lon="-8.18867">
        <ele>366</ele>
        <time>2016-07-19T05:04:27Z</time>
      </trkpt>
      <trkpt lat="42.92338" lon="-8.18873">
        <ele>367.3</ele>
        <time>2016-07-19T05:04:36Z</time>
      </trkpt>
      <trkpt lat="42.92347" lon="-8.18877">
        <ele>368.4</ele>
        <time>2016-07-19T05:04:45Z</time>
      </trkpt>
      <trkpt lat="42.92355" lon="-8.18881">
        <ele>369.5</ele>
        <time>2016-07-19T05:04:53Z</time>
      </trkpt>
      <trkpt lat="42.92365" lon="-8.18886">
        <ele>369.9</ele>
        <time>2016-07-19T05:05:01Z</time>
      </trkpt>
      <trkpt lat="42.92374" lon="-8.1889">
        <ele>370.2</ele>
        <time>2016-07-19T05:05:10Z</time>
      </trkpt>
      <trkpt lat="42.92383" lon="-8.18893">
        <ele>370.3</ele>
        <time>2016-07-19T05:05:19Z</time>
      </trkpt>
      <trkpt lat="42.92392" lon="-8.18898">
        <ele>370.4</ele>
        <time>2016-07-19T05:05:26Z</time>
      </trkpt>
      <trkpt lat="42.92402" lon="-8.18903">
        <ele>370.7</ele>
        <time>2016-07-19T05:05:34Z</time>
      </trkpt>
      <trkpt lat="42.92411" lon="-8.18906">
        <ele>371.1</ele>
        <time>2016-07-19T05:05:41Z</time>
      </trkpt>
      <trkpt lat="42.9242" lon="-8.1891">
        <ele>371.2</ele>
        <time>2016-07-19T05:05:49Z</time>
      </trkpt>
      <trkpt lat="42.92429" lon="-8.18914">
        <ele>371.3</ele>
        <time>2016-07-19T05:05:56Z</time>
      </trkpt>
      <trkpt lat="42.92438" lon="-8.18919">
        <ele>371.6</ele>
        <time>2016-07-19T05:06:04Z</time>
      </trkpt>
      <trkpt lat="42.92446" lon="-8.18925">
        <ele>371.7</ele>
        <time>2016-07-19T05:06:14Z</time>
      </trkpt>
      <trkpt lat="42.92455" lon="-8.18928">
        <ele>371.7</ele>
        <time>2016-07-19T05:06:22Z</time>
      </trkpt>
      <trkpt lat="42.92464" lon="-8.18931">
        <ele>371.9</ele>
        <time>2016-07-19T05:06:30Z</time>
      </trkpt>
      <trkpt lat="42.92472" lon="-8.18936">
        <ele>372.2</ele>
        <time>2016-07-19T05:06:38Z</time>
      </trkpt>
      <trkpt lat="42.92481" lon="-8.18939">
        <ele>372.8</ele>
        <time>2016-07-19T05:06:46Z</time>
      </trkpt>
      <trkpt lat="42.92491" lon="-8.18942">
        <ele>373.2</ele>
        <time>2016-07-19T05:06:54Z</time>
      </trkpt>
      <trkpt lat="42.925" lon="-8.18946">
        <ele>373.8</ele>
        <time>2016-07-19T05:07:03Z</time>
      </trkpt>
      <trkpt lat="42.92509" lon="-8.1895">
        <ele>373.9</ele>
        <time>2016-07-19T05:07:11Z</time>
      </trkpt>
      <trkpt lat="42.92519" lon="-8.18953">
        <ele>373.9</ele>
        <time>2016-07-19T05:07:20Z</time>
      </trkpt>
      <trkpt lat="42.92528" lon="-8.18958">
        <ele>374.1</ele>
        <time>2016-07-19T05:07:28Z</time>
      </trkpt>
      <trkpt lat="42.92537" lon="-8.18963">
        <ele>374.3</ele>
        <time>2016-07-19T05:07:36Z</time>
      </trkpt>
      <trkpt lat="42.92547" lon="-8.18966">
        <ele>374.4</ele>
        <time>2016-07-19T05:07:44Z</time>
      </trkpt>
      <trkpt lat="42.92556" lon="-8.18971">
        <ele>374.6</ele>
        <time>2016-07-19T05:07:51Z</time>
      </trkpt>
      <trkpt lat="42.92564" lon="-8.18975">
        <ele>375</ele>
        <time>2016-07-19T05:07:59Z</time>
      </trkpt>
      <trkpt lat="42.92573" lon="-8.18978">
        <ele>375</ele>
        <time>2016-07-19T05:08:08Z</time>
      </trkpt>
      <trkpt lat="42.92582" lon="-8.18984">
        <ele>375.2</ele>
        <time>2016-07-19T05:09:22Z</time>
      </trkpt>
      <trkpt lat="42.92591" lon="-8.18992">
        <ele>375.3</ele>
        <time>2016-07-19T05:09:32Z</time>
      </trkpt>
      <trkpt lat="42.92599" lon="-8.18998">
        <ele>375.8</ele>
        <time>2016-07-19T05:09:39Z</time>
      </trkpt>
      <trkpt lat="42.92607" lon="-8.19006">
        <ele>376.3</ele>
        <time>2016-07-19T05:09:47Z</time>
      </trkpt>
      <trkpt lat="42.92611" lon="-8.19018">
        <ele>376.5</ele>
        <time>2016-07-19T05:09:55Z</time>
      </trkpt>
      <trkpt lat="42.92612" lon="-8.19031">
        <ele>376.6</ele>
        <time>2016-07-19T05:10:04Z</time>
      </trkpt>
      <trkpt lat="42.92613" lon="-8.19045">
        <ele>376.6</ele>
        <time>2016-07-19T05:10:13Z</time>
      </trkpt>
      <trkpt lat="42.92613" lon="-8.19058">
        <ele>377.2</ele>
        <time>2016-07-19T05:10:21Z</time>
      </trkpt>
      <trkpt lat="42.92613" lon="-8.19071">
        <ele>377.7</ele>
        <time>2016-07-19T05:10:29Z</time>
      </trkpt>
      <trkpt lat="42.92612" lon="-8.19084">
        <ele>378</ele>
        <time>2016-07-19T05:10:36Z</time>
      </trkpt>
      <trkpt lat="42.92612" lon="-8.19097">
        <ele>378.4</ele>
        <time>2016-07-19T05:10:43Z</time>
      </trkpt>
      <trkpt lat="42.92612" lon="-8.1911">
        <ele>378.7</ele>
        <time>2016-07-19T05:10:50Z</time>
      </trkpt>
      <trkpt lat="42.92613" lon="-8.19123">
        <ele>379.5</ele>
        <time>2016-07-19T05:10:57Z</time>
      </trkpt>
      <trkpt lat="42.92612" lon="-8.19135">
        <ele>380.2</ele>
        <time>2016-07-19T05:11:04Z</time>
      </trkpt>
      <trkpt lat="42.92611" lon="-8.19149">
        <ele>380.8</ele>
        <time>2016-07-19T05:11:11Z</time>
      </trkpt>
      <trkpt lat="42.9261" lon="-8.19162">
        <ele>381</ele>
        <time>2016-07-19T05:11:18Z</time>
      </trkpt>
      <trkpt lat="42.92609" lon="-8.19175">
        <ele>381.3</ele>
        <time>2016-07-19T05:11:25Z</time>
      </trkpt>
      <trkpt lat="42.92609" lon="-8.19188">
        <ele>381.8</ele>
        <time>2016-07-19T05:11:33Z</time>
      </trkpt>
      <trkpt lat="42.92609" lon="-8.19201">
        <ele>382.1</ele>
        <time>2016-07-19T05:11:40Z</time>
      </trkpt>
      <trkpt lat="42.92608" lon="-8.19215">
        <ele>382.6</ele>
        <time>2016-07-19T05:11:48Z</time>
      </trkpt>
      <trkpt lat="42.92608" lon="-8.19228">
        <ele>383.4</ele>
        <time>2016-07-19T05:11:56Z</time>
      </trkpt>
      <trkpt lat="42.92608" lon="-8.19242">
        <ele>383.4</ele>
        <time>2016-07-19T05:12:04Z</time>
      </trkpt>
      <trkpt lat="42.92609" lon="-8.19256">
        <ele>383.7</ele>
        <time>2016-07-19T05:12:12Z</time>
      </trkpt>
      <trkpt lat="42.92611" lon="-8.19269">
        <ele>383.9</ele>
        <time>2016-07-19T05:12:20Z</time>
      </trkpt>
      <trkpt lat="42.92613" lon="-8.19282">
        <ele>384.1</ele>
        <time>2016-07-19T05:12:27Z</time>
      </trkpt>
      <trkpt lat="42.92615" lon="-8.19295">
        <ele>384.3</ele>
        <time>2016-07-19T05:12:34Z</time>
      </trkpt>
      <trkpt lat="42.92619" lon="-8.19308">
        <ele>384.7</ele>
        <time>2016-07-19T05:12:42Z</time>
      </trkpt>
      <trkpt lat="42.92622" lon="-8.19319">
        <ele>385.1</ele>
        <time>2016-07-19T05:12:50Z</time>
      </trkpt>
      <trkpt lat="42.92626" lon="-8.19331">
        <ele>385.6</ele>
        <time>2016-07-19T05:12:58Z</time>
      </trkpt>
      <trkpt lat="42.92629" lon="-8.19343">
        <ele>385.8</ele>
        <time>2016-07-19T05:13:05Z</time>
      </trkpt>
      <trkpt lat="42.92632" lon="-8.19356">
        <ele>386.1</ele>
        <time>2016-07-19T05:13:13Z</time>
      </trkpt>
      <trkpt lat="42.92635" lon="-8.19368">
        <ele>386.3</ele>
        <time>2016-07-19T05:13:20Z</time>
      </trkpt>
      <trkpt lat="42.92638" lon="-8.19381">
        <ele>386.9</ele>
        <time>2016-07-19T05:13:28Z</time>
      </trkpt>
      <trkpt lat="42.92641" lon="-8.19393">
        <ele>387.1</ele>
        <time>2016-07-19T05:13:34Z</time>
      </trkpt>
      <trkpt lat="42.92643" lon="-8.19405">
        <ele>387.2</ele>
        <time>2016-07-19T05:13:41Z</time>
      </trkpt>
      <trkpt lat="42.92646" lon="-8.19418">
        <ele>387.6</ele>
        <time>2016-07-19T05:13:49Z</time>
      </trkpt>
      <trkpt lat="42.92648" lon="-8.19432">
        <ele>388.2</ele>
        <time>2016-07-19T05:13:57Z</time>
      </trkpt>
      <trkpt lat="42.92649" lon="-8.19445">
        <ele>388.5</ele>
        <time>2016-07-19T05:14:04Z</time>
      </trkpt>
      <trkpt lat="42.92651" lon="-8.19457">
        <ele>388.6</ele>
        <time>2016-07-19T05:14:11Z</time>
      </trkpt>
      <trkpt lat="42.92654" lon="-8.1947">
        <ele>388.7</ele>
        <time>2016-07-19T05:14:18Z</time>
      </trkpt>
      <trkpt lat="42.92659" lon="-8.19481">
        <ele>389.1</ele>
        <time>2016-07-19T05:14:25Z</time>
      </trkpt>
      <trkpt lat="42.92664" lon="-8.19492">
        <ele>389.7</ele>
        <time>2016-07-19T05:14:32Z</time>
      </trkpt>
      <trkpt lat="42.92666" lon="-8.19505">
        <ele>390.1</ele>
        <time>2016-07-19T05:14:39Z</time>
      </trkpt>
      <trkpt lat="42.92664" lon="-8.19518">
        <ele>389.7</ele>
        <time>2016-07-19T05:14:46Z</time>
      </trkpt>
      <trkpt lat="42.92663" lon="-8.19531">
        <ele>389.6</ele>
        <time>2016-07-19T05:14:55Z</time>
      </trkpt>
      <trkpt lat="42.92662" lon="-8.19544">
        <ele>389.8</ele>
        <time>2016-07-19T05:15:03Z</time>
      </trkpt>
      <trkpt lat="42.92662" lon="-8.19557">
        <ele>390.2</ele>
        <time>2016-07-19T05:15:11Z</time>
      </trkpt>
      <trkpt lat="42.92662" lon="-8.1957">
        <ele>390.4</ele>
        <time>2016-07-19T05:15:19Z</time>
      </trkpt>
      <trkpt lat="42.92662" lon="-8.19583">
        <ele>390.7</ele>
        <time>2016-07-19T05:15:28Z</time>
      </trkpt>
      <trkpt lat="42.92658" lon="-8.19596">
        <ele>390.9</ele>
        <time>2016-07-19T05:15:37Z</time>
      </trkpt>
      <trkpt lat="42.92653" lon="-8.19607">
        <ele>390.4</ele>
        <time>2016-07-19T05:15:45Z</time>
      </trkpt>
      <trkpt lat="42.92649" lon="-8.19619">
        <ele>390.1</ele>
        <time>2016-07-19T05:15:54Z</time>
      </trkpt>
      <trkpt lat="42.92644" lon="-8.1963">
        <ele>389.7</ele>
        <time>2016-07-19T05:16:02Z</time>
      </trkpt>
      <trkpt lat="42.92638" lon="-8.1964">
        <ele>389.4</ele>
        <time>2016-07-19T05:16:10Z</time>
      </trkpt>
      <trkpt lat="42.92631" lon="-8.1965">
        <ele>389</ele>
        <time>2016-07-19T05:16:23Z</time>
      </trkpt>
      <trkpt lat="42.92628" lon="-8.19662">
        <ele>388.5</ele>
        <time>2016-07-19T05:16:33Z</time>
      </trkpt>
      <trkpt lat="42.92624" lon="-8.19674">
        <ele>387.9</ele>
        <time>2016-07-19T05:16:43Z</time>
      </trkpt>
      <trkpt lat="42.92619" lon="-8.19686">
        <ele>387.1</ele>
        <time>2016-07-19T05:16:53Z</time>
      </trkpt>
      <trkpt lat="42.92614" lon="-8.19697">
        <ele>386.6</ele>
        <time>2016-07-19T05:17:02Z</time>
      </trkpt>
      <trkpt lat="42.9261" lon="-8.19709">
        <ele>386</ele>
        <time>2016-07-19T05:17:09Z</time>
      </trkpt>
      <trkpt lat="42.92608" lon="-8.19721">
        <ele>385.2</ele>
        <time>2016-07-19T05:17:20Z</time>
      </trkpt>
      <trkpt lat="42.92603" lon="-8.19733">
        <ele>384.2</ele>
        <time>2016-07-19T05:17:30Z</time>
      </trkpt>
      <trkpt lat="42.926" lon="-8.19745">
        <ele>383.4</ele>
        <time>2016-07-19T05:17:39Z</time>
      </trkpt>
      <trkpt lat="42.92597" lon="-8.19757">
        <ele>383</ele>
        <time>2016-07-19T05:17:47Z</time>
      </trkpt>
      <trkpt lat="42.92592" lon="-8.19769">
        <ele>382.3</ele>
        <time>2016-07-19T05:17:55Z</time>
      </trkpt>
      <trkpt lat="42.92593" lon="-8.19781">
        <ele>381.6</ele>
        <time>2016-07-19T05:18:05Z</time>
      </trkpt>
      <trkpt lat="42.92597" lon="-8.19793">
        <ele>379.2</ele>
        <time>2016-07-19T05:18:22Z</time>
      </trkpt>
      <trkpt lat="42.92603" lon="-8.19802">
        <ele>377.8</ele>
        <time>2016-07-19T05:18:32Z</time>
      </trkpt>
      <trkpt lat="42.92609" lon="-8.19813">
        <ele>376.7</ele>
        <time>2016-07-19T05:18:43Z</time>
      </trkpt>
      <trkpt lat="42.92615" lon="-8.19824">
        <ele>375.9</ele>
        <time>2016-07-19T05:18:51Z</time>
      </trkpt>
      <trkpt lat="42.92621" lon="-8.19833">
        <ele>374.8</ele>
        <time>2016-07-19T05:18:59Z</time>
      </trkpt>
      <trkpt lat="42.92628" lon="-8.19842">
        <ele>373.9</ele>
        <time>2016-07-19T05:19:07Z</time>
      </trkpt>
      <trkpt lat="42.92634" lon="-8.19852">
        <ele>372.3</ele>
        <time>2016-07-19T05:19:16Z</time>
      </trkpt>
      <trkpt lat="42.9264" lon="-8.19863">
        <ele>371.4</ele>
        <time>2016-07-19T05:19:25Z</time>
      </trkpt>
      <trkpt lat="42.92647" lon="-8.19872">
        <ele>370.1</ele>
        <time>2016-07-19T05:19:34Z</time>
      </trkpt>
      <trkpt lat="42.92654" lon="-8.1988">
        <ele>368.3</ele>
        <time>2016-07-19T05:19:44Z</time>
      </trkpt>
      <trkpt lat="42.92663" lon="-8.19886">
        <ele>367</ele>
        <time>2016-07-19T05:19:53Z</time>
      </trkpt>
      <trkpt lat="42.92672" lon="-8.19893">
        <ele>366.3</ele>
        <time>2016-07-19T05:20:02Z</time>
      </trkpt>
      <trkpt lat="42.92679" lon="-8.19901">
        <ele>365.2</ele>
        <time>2016-07-19T05:20:10Z</time>
      </trkpt>
      <trkpt lat="42.92686" lon="-8.19909">
        <ele>364.3</ele>
        <time>2016-07-19T05:20:19Z</time>
      </trkpt>
      <trkpt lat="42.92693" lon="-8.19918">
        <ele>363.4</ele>
        <time>2016-07-19T05:20:28Z</time>
      </trkpt>
      <trkpt lat="42.92698" lon="-8.19928">
        <ele>362.2</ele>
        <time>2016-07-19T05:20:37Z</time>
      </trkpt>
      <trkpt lat="42.92705" lon="-8.19938">
        <ele>361.6</ele>
        <time>2016-07-19T05:20:45Z</time>
      </trkpt>
      <trkpt lat="42.92711" lon="-8.19947">
        <ele>360.7</ele>
        <time>2016-07-19T05:20:55Z</time>
      </trkpt>
      <trkpt lat="42.92718" lon="-8.19956">
        <ele>359.7</ele>
        <time>2016-07-19T05:21:05Z</time>
      </trkpt>
      <trkpt lat="42.92723" lon="-8.19967">
        <ele>359</ele>
        <time>2016-07-19T05:21:13Z</time>
      </trkpt>
      <trkpt lat="42.92728" lon="-8.19978">
        <ele>358.7</ele>
        <time>2016-07-19T05:21:22Z</time>
      </trkpt>
      <trkpt lat="42.92733" lon="-8.19989">
        <ele>358</ele>
        <time>2016-07-19T05:21:30Z</time>
      </trkpt>
      <trkpt lat="42.92736" lon="-8.20002">
        <ele>357.6</ele>
        <time>2016-07-19T05:21:39Z</time>
      </trkpt>
      <trkpt lat="42.92741" lon="-8.20014">
        <ele>357.2</ele>
        <time>2016-07-19T05:21:47Z</time>
      </trkpt>
      <trkpt lat="42.92745" lon="-8.20026">
        <ele>357</ele>
        <time>2016-07-19T05:21:56Z</time>
      </trkpt>
      <trkpt lat="42.92752" lon="-8.20036">
        <ele>357.1</ele>
        <time>2016-07-19T05:22:02Z</time>
      </trkpt>
      <trkpt lat="42.92755" lon="-8.20047">
        <ele>356.9</ele>
        <time>2016-07-19T05:22:09Z</time>
      </trkpt>
      <trkpt lat="42.92759" lon="-8.20059">
        <ele>356.7</ele>
        <time>2016-07-19T05:22:18Z</time>
      </trkpt>
      <trkpt lat="42.92763" lon="-8.20072">
        <ele>356.5</ele>
        <time>2016-07-19T05:22:27Z</time>
      </trkpt>
      <trkpt lat="42.92764" lon="-8.20085">
        <ele>356.4</ele>
        <time>2016-07-19T05:22:35Z</time>
      </trkpt>
      <trkpt lat="42.92762" lon="-8.20097">
        <ele>356.4</ele>
        <time>2016-07-19T05:22:44Z</time>
      </trkpt>
      <trkpt lat="42.92759" lon="-8.20109">
        <ele>357.1</ele>
        <time>2016-07-19T05:22:54Z</time>
      </trkpt>
      <trkpt lat="42.9276" lon="-8.20123">
        <ele>358</ele>
        <time>2016-07-19T05:23:05Z</time>
      </trkpt>
      <trkpt lat="42.92764" lon="-8.20135">
        <ele>358.6</ele>
        <time>2016-07-19T05:23:14Z</time>
      </trkpt>
      <trkpt lat="42.92766" lon="-8.20148">
        <ele>359.4</ele>
        <time>2016-07-19T05:23:23Z</time>
      </trkpt>
      <trkpt lat="42.92769" lon="-8.2016">
        <ele>360</ele>
        <time>2016-07-19T05:23:31Z</time>
      </trkpt>
      <trkpt lat="42.92772" lon="-8.20172">
        <ele>360.7</ele>
        <time>2016-07-19T05:23:40Z</time>
      </trkpt>
      <trkpt lat="42.92776" lon="-8.20185">
        <ele>361.5</ele>
        <time>2016-07-19T05:23:49Z</time>
      </trkpt>
      <trkpt lat="42.92778" lon="-8.20197">
        <ele>363</ele>
        <time>2016-07-19T05:23:59Z</time>
      </trkpt>
      <trkpt lat="42.92777" lon="-8.20211">
        <ele>364.5</ele>
        <time>2016-07-19T05:24:09Z</time>
      </trkpt>
      <trkpt lat="42.92775" lon="-8.20223">
        <ele>365.5</ele>
        <time>2016-07-19T05:24:20Z</time>
      </trkpt>
      <trkpt lat="42.92776" lon="-8.20236">
        <ele>366.8</ele>
        <time>2016-07-19T05:24:32Z</time>
      </trkpt>
      <trkpt lat="42.92774" lon="-8.20249">
        <ele>367.8</ele>
        <time>2016-07-19T05:24:41Z</time>
      </trkpt>
      <trkpt lat="42.92771" lon="-8.20262">
        <ele>368.9</ele>
        <time>2016-07-19T05:24:50Z</time>
      </trkpt>
      <trkpt lat="42.92768" lon="-8.20274">
        <ele>370</ele>
        <time>2016-07-19T05:24:58Z</time>
      </trkpt>
      <trkpt lat="42.92766" lon="-8.20286">
        <ele>371.4</ele>
        <time>2016-07-19T05:25:08Z</time>
      </trkpt>
      <trkpt lat="42.92766" lon="-8.20299">
        <ele>372.7</ele>
        <time>2016-07-19T05:25:18Z</time>
      </trkpt>
      <trkpt lat="42.92764" lon="-8.20312">
        <ele>373.3</ele>
        <time>2016-07-19T05:25:29Z</time>
      </trkpt>
      <trkpt lat="42.92762" lon="-8.20325">
        <ele>375</ele>
        <time>2016-07-19T05:25:41Z</time>
      </trkpt>
      <trkpt lat="42.92759" lon="-8.20338">
        <ele>375.6</ele>
        <time>2016-07-19T05:25:50Z</time>
      </trkpt>
      <trkpt lat="42.92758" lon="-8.2035">
        <ele>376.2</ele>
        <time>2016-07-19T05:25:58Z</time>
      </trkpt>
      <trkpt lat="42.92755" lon="-8.20363">
        <ele>377.2</ele>
        <time>2016-07-19T05:26:08Z</time>
      </trkpt>
      <trkpt lat="42.92752" lon="-8.20375">
        <ele>377.7</ele>
        <time>2016-07-19T05:26:16Z</time>
      </trkpt>
      <trkpt lat="42.92748" lon="-8.20387">
        <ele>378.5</ele>
        <time>2016-07-19T05:26:25Z</time>
      </trkpt>
      <trkpt lat="42.92746" lon="-8.204">
        <ele>379.1</ele>
        <time>2016-07-19T05:26:34Z</time>
      </trkpt>
      <trkpt lat="42.92745" lon="-8.20412">
        <ele>379.6</ele>
        <time>2016-07-19T05:26:43Z</time>
      </trkpt>
      <trkpt lat="42.92745" lon="-8.20425">
        <ele>380.1</ele>
        <time>2016-07-19T05:26:52Z</time>
      </trkpt>
      <trkpt lat="42.92745" lon="-8.20438">
        <ele>381</ele>
        <time>2016-07-19T05:27:02Z</time>
      </trkpt>
      <trkpt lat="42.92743" lon="-8.2045">
        <ele>382</ele>
        <time>2016-07-19T05:27:12Z</time>
      </trkpt>
      <trkpt lat="42.92744" lon="-8.20462">
        <ele>383.4</ele>
        <time>2016-07-19T05:27:23Z</time>
      </trkpt>
      <trkpt lat="42.92745" lon="-8.20476">
        <ele>384.4</ele>
        <time>2016-07-19T05:27:35Z</time>
      </trkpt>
      <trkpt lat="42.92744" lon="-8.20489">
        <ele>384.8</ele>
        <time>2016-07-19T05:27:44Z</time>
      </trkpt>
      <trkpt lat="42.92744" lon="-8.20503">
        <ele>385.1</ele>
        <time>2016-07-19T05:27:52Z</time>
      </trkpt>
      <trkpt lat="42.92742" lon="-8.20516">
        <ele>385.9</ele>
        <time>2016-07-19T05:28:00Z</time>
      </trkpt>
      <trkpt lat="42.92741" lon="-8.20529">
        <ele>387</ele>
        <time>2016-07-19T05:28:08Z</time>
      </trkpt>
      <trkpt lat="42.92741" lon="-8.20542">
        <ele>387.8</ele>
        <time>2016-07-19T05:28:18Z</time>
      </trkpt>
      <trkpt lat="42.92742" lon="-8.20556">
        <ele>388.7</ele>
        <time>2016-07-19T05:28:27Z</time>
      </trkpt>
      <trkpt lat="42.92742" lon="-8.20569">
        <ele>389.3</ele>
        <time>2016-07-19T05:28:36Z</time>
      </trkpt>
      <trkpt lat="42.92742" lon="-8.20582">
        <ele>389.6</ele>
        <time>2016-07-19T05:28:44Z</time>
      </trkpt>
      <trkpt lat="42.92743" lon="-8.20594">
        <ele>389.8</ele>
        <time>2016-07-19T05:28:53Z</time>
      </trkpt>
      <trkpt lat="42.92746" lon="-8.20607">
        <ele>390</ele>
        <time>2016-07-19T05:29:02Z</time>
      </trkpt>
      <trkpt lat="42.92746" lon="-8.20619">
        <ele>390.2</ele>
        <time>2016-07-19T05:29:11Z</time>
      </trkpt>
      <trkpt lat="42.92747" lon="-8.20632">
        <ele>391</ele>
        <time>2016-07-19T05:29:20Z</time>
      </trkpt>
      <trkpt lat="42.92749" lon="-8.20646">
        <ele>391.4</ele>
        <time>2016-07-19T05:29:28Z</time>
      </trkpt>
      <trkpt lat="42.92751" lon="-8.20658">
        <ele>392.1</ele>
        <time>2016-07-19T05:29:35Z</time>
      </trkpt>
      <trkpt lat="42.9275" lon="-8.2067">
        <ele>392.8</ele>
        <time>2016-07-19T05:29:54Z</time>
      </trkpt>
      <trkpt lat="42.92745" lon="-8.2068">
        <ele>390.4</ele>
        <time>2016-07-19T05:30:33Z</time>
      </trkpt>
      <trkpt lat="42.92755" lon="-8.20683">
        <ele>393</ele>
        <time>2016-07-19T05:30:49Z</time>
      </trkpt>
      <trkpt lat="42.92753" lon="-8.20671">
        <ele>393.5</ele>
        <time>2016-07-19T05:31:04Z</time>
      </trkpt>
      <trkpt lat="42.92746" lon="-8.20661">
        <ele>392.3</ele>
        <time>2016-07-19T05:31:15Z</time>
      </trkpt>
      <trkpt lat="42.92748" lon="-8.20674">
        <ele>392.7</ele>
        <time>2016-07-19T05:32:28Z</time>
      </trkpt>
      <trkpt lat="42.9275" lon="-8.20686">
        <ele>392.5</ele>
        <time>2016-07-19T05:32:40Z</time>
      </trkpt>
      <trkpt lat="42.92753" lon="-8.20698">
        <ele>392.7</ele>
        <time>2016-07-19T05:32:52Z</time>
      </trkpt>
      <trkpt lat="42.92756" lon="-8.2071">
        <ele>392.6</ele>
        <time>2016-07-19T05:33:02Z</time>
      </trkpt>
      <trkpt lat="42.92758" lon="-8.20724">
        <ele>392.7</ele>
        <time>2016-07-19T05:33:11Z</time>
      </trkpt>
      <trkpt lat="42.92758" lon="-8.20736">
        <ele>393.2</ele>
        <time>2016-07-19T05:33:20Z</time>
      </trkpt>
      <trkpt lat="42.92759" lon="-8.20749">
        <ele>394.2</ele>
        <time>2016-07-19T05:33:30Z</time>
      </trkpt>
      <trkpt lat="42.92758" lon="-8.20762">
        <ele>395.3</ele>
        <time>2016-07-19T05:33:43Z</time>
      </trkpt>
      <trkpt lat="42.92756" lon="-8.20775">
        <ele>396.3</ele>
        <time>2016-07-19T05:33:53Z</time>
      </trkpt>
      <trkpt lat="42.92757" lon="-8.20788">
        <ele>397</ele>
        <time>2016-07-19T05:34:03Z</time>
      </trkpt>
      <trkpt lat="42.9276" lon="-8.208">
        <ele>396.9</ele>
        <time>2016-07-19T05:34:11Z</time>
      </trkpt>
      <trkpt lat="42.92766" lon="-8.2081">
        <ele>396.8</ele>
        <time>2016-07-19T05:34:20Z</time>
      </trkpt>
      <trkpt lat="42.9277" lon="-8.20822">
        <ele>396.8</ele>
        <time>2016-07-19T05:34:28Z</time>
      </trkpt>
      <trkpt lat="42.92775" lon="-8.20833">
        <ele>397.3</ele>
        <time>2016-07-19T05:34:37Z</time>
      </trkpt>
      <trkpt lat="42.9278" lon="-8.20844">
        <ele>397.9</ele>
        <time>2016-07-19T05:34:45Z</time>
      </trkpt>
      <trkpt lat="42.92786" lon="-8.20854">
        <ele>398.3</ele>
        <time>2016-07-19T05:34:54Z</time>
      </trkpt>
      <trkpt lat="42.9279" lon="-8.20866">
        <ele>398.9</ele>
        <time>2016-07-19T05:35:04Z</time>
      </trkpt>
      <trkpt lat="42.92795" lon="-8.20878">
        <ele>399.5</ele>
        <time>2016-07-19T05:35:14Z</time>
      </trkpt>
      <trkpt lat="42.92799" lon="-8.20889">
        <ele>400.1</ele>
        <time>2016-07-19T05:35:23Z</time>
      </trkpt>
      <trkpt lat="42.92803" lon="-8.209">
        <ele>400.6</ele>
        <time>2016-07-19T05:35:32Z</time>
      </trkpt>
      <trkpt lat="42.92809" lon="-8.2091">
        <ele>401.1</ele>
        <time>2016-07-19T05:35:40Z</time>
      </trkpt>
      <trkpt lat="42.92816" lon="-8.20921">
        <ele>401.5</ele>
        <time>2016-07-19T05:35:49Z</time>
      </trkpt>
      <trkpt lat="42.9282" lon="-8.20932">
        <ele>401.6</ele>
        <time>2016-07-19T05:35:57Z</time>
      </trkpt>
      <trkpt lat="42.92823" lon="-8.20944">
        <ele>402.3</ele>
        <time>2016-07-19T05:36:06Z</time>
      </trkpt>
      <trkpt lat="42.92828" lon="-8.20956">
        <ele>403.1</ele>
        <time>2016-07-19T05:36:14Z</time>
      </trkpt>
      <trkpt lat="42.92832" lon="-8.20968">
        <ele>403.6</ele>
        <time>2016-07-19T05:36:24Z</time>
      </trkpt>
      <trkpt lat="42.92838" lon="-8.20978">
        <ele>403.9</ele>
        <time>2016-07-19T05:36:33Z</time>
      </trkpt>
      <trkpt lat="42.92841" lon="-8.2099">
        <ele>404.4</ele>
        <time>2016-07-19T05:36:42Z</time>
      </trkpt>
      <trkpt lat="42.92845" lon="-8.21002">
        <ele>404.4</ele>
        <time>2016-07-19T05:36:50Z</time>
      </trkpt>
      <trkpt lat="42.92847" lon="-8.21015">
        <ele>404.5</ele>
        <time>2016-07-19T05:36:59Z</time>
      </trkpt>
      <trkpt lat="42.92851" lon="-8.21028">
        <ele>404.7</ele>
        <time>2016-07-19T05:37:08Z</time>
      </trkpt>
      <trkpt lat="42.92855" lon="-8.21041">
        <ele>404.8</ele>
        <time>2016-07-19T05:37:16Z</time>
      </trkpt>
      <trkpt lat="42.92858" lon="-8.21053">
        <ele>404.7</ele>
        <time>2016-07-19T05:37:25Z</time>
      </trkpt>
      <trkpt lat="42.92861" lon="-8.21066">
        <ele>404.6</ele>
        <time>2016-07-19T05:37:33Z</time>
      </trkpt>
      <trkpt lat="42.92862" lon="-8.21079">
        <ele>404.4</ele>
        <time>2016-07-19T05:37:41Z</time>
      </trkpt>
      <trkpt lat="42.92864" lon="-8.21093">
        <ele>404.2</ele>
        <time>2016-07-19T05:37:51Z</time>
      </trkpt>
      <trkpt lat="42.92865" lon="-8.21106">
        <ele>403.6</ele>
        <time>2016-07-19T05:38:00Z</time>
      </trkpt>
      <trkpt lat="42.92865" lon="-8.21119">
        <ele>403.2</ele>
        <time>2016-07-19T05:38:08Z</time>
      </trkpt>
      <trkpt lat="42.92866" lon="-8.21132">
        <ele>402.6</ele>
        <time>2016-07-19T05:38:16Z</time>
      </trkpt>
      <trkpt lat="42.92866" lon="-8.21145">
        <ele>402.5</ele>
        <time>2016-07-19T05:38:24Z</time>
      </trkpt>
      <trkpt lat="42.92868" lon="-8.21158">
        <ele>402.4</ele>
        <time>2016-07-19T05:38:32Z</time>
      </trkpt>
      <trkpt lat="42.92869" lon="-8.21172">
        <ele>402.1</ele>
        <time>2016-07-19T05:38:40Z</time>
      </trkpt>
      <trkpt lat="42.92871" lon="-8.21184">
        <ele>401.6</ele>
        <time>2016-07-19T05:38:48Z</time>
      </trkpt>
      <trkpt lat="42.92872" lon="-8.21197">
        <ele>401.2</ele>
        <time>2016-07-19T05:38:56Z</time>
      </trkpt>
      <trkpt lat="42.92874" lon="-8.21209">
        <ele>401</ele>
        <time>2016-07-19T05:39:04Z</time>
      </trkpt>
      <trkpt lat="42.92875" lon="-8.21222">
        <ele>400.8</ele>
        <time>2016-07-19T05:39:12Z</time>
      </trkpt>
      <trkpt lat="42.92875" lon="-8.21235">
        <ele>400.6</ele>
        <time>2016-07-19T05:39:20Z</time>
      </trkpt>
      <trkpt lat="42.92875" lon="-8.21249">
        <ele>400.4</ele>
        <time>2016-07-19T05:39:28Z</time>
      </trkpt>
      <trkpt lat="42.92876" lon="-8.21261">
        <ele>400.1</ele>
        <time>2016-07-19T05:39:36Z</time>
      </trkpt>
      <trkpt lat="42.92877" lon="-8.21275">
        <ele>400.4</ele>
        <time>2016-07-19T05:39:45Z</time>
      </trkpt>
      <trkpt lat="42.92877" lon="-8.21287">
        <ele>400.3</ele>
        <time>2016-07-19T05:39:53Z</time>
      </trkpt>
      <trkpt lat="42.92877" lon="-8.213">
        <ele>400.3</ele>
        <time>2016-07-19T05:40:01Z</time>
      </trkpt>
      <trkpt lat="42.92877" lon="-8.21314">
        <ele>400.6</ele>
        <time>2016-07-19T05:40:11Z</time>
      </trkpt>
      <trkpt lat="42.92877" lon="-8.21327">
        <ele>400.7</ele>
        <time>2016-07-19T05:40:18Z</time>
      </trkpt>
      <trkpt lat="42.92878" lon="-8.2134">
        <ele>400.6</ele>
        <time>2016-07-19T05:40:26Z</time>
      </trkpt>
      <trkpt lat="42.9288" lon="-8.21353">
        <ele>400.8</ele>
        <time>2016-07-19T05:40:34Z</time>
      </trkpt>
      <trkpt lat="42.92879" lon="-8.21367">
        <ele>401.1</ele>
        <time>2016-07-19T05:40:43Z</time>
      </trkpt>
      <trkpt lat="42.92878" lon="-8.2138">
        <ele>401.2</ele>
        <time>2016-07-19T05:40:51Z</time>
      </trkpt>
      <trkpt lat="42.92875" lon="-8.21393">
        <ele>401.3</ele>
        <time>2016-07-19T05:40:59Z</time>
      </trkpt>
      <trkpt lat="42.92873" lon="-8.21405">
        <ele>401.6</ele>
        <time>2016-07-19T05:41:07Z</time>
      </trkpt>
      <trkpt lat="42.92868" lon="-8.21417">
        <ele>401.6</ele>
        <time>2016-07-19T05:41:16Z</time>
      </trkpt>
      <trkpt lat="42.92864" lon="-8.2143">
        <ele>401.7</ele>
        <time>2016-07-19T05:41:26Z</time>
      </trkpt>
      <trkpt lat="42.9286" lon="-8.21441">
        <ele>401.9</ele>
        <time>2016-07-19T05:41:35Z</time>
      </trkpt>
      <trkpt lat="42.92856" lon="-8.21453">
        <ele>401.7</ele>
        <time>2016-07-19T05:41:50Z</time>
      </trkpt>
      <trkpt lat="42.92851" lon="-8.21463">
        <ele>401.5</ele>
        <time>2016-07-19T05:42:05Z</time>
      </trkpt>
      <trkpt lat="42.92845" lon="-8.21473">
        <ele>401.2</ele>
        <time>2016-07-19T05:42:23Z</time>
      </trkpt>
      <trkpt lat="42.9284" lon="-8.21483">
        <ele>401</ele>
        <time>2016-07-19T05:42:32Z</time>
      </trkpt>
      <trkpt lat="42.92836" lon="-8.21495">
        <ele>401.4</ele>
        <time>2016-07-19T05:42:41Z</time>
      </trkpt>
      <trkpt lat="42.92831" lon="-8.21506">
        <ele>401.8</ele>
        <time>2016-07-19T05:42:50Z</time>
      </trkpt>
      <trkpt lat="42.92826" lon="-8.21516">
        <ele>402</ele>
        <time>2016-07-19T05:42:57Z</time>
      </trkpt>
      <trkpt lat="42.9282" lon="-8.21528">
        <ele>402</ele>
        <time>2016-07-19T05:43:05Z</time>
      </trkpt>
      <trkpt lat="42.92816" lon="-8.21539">
        <ele>402.1</ele>
        <time>2016-07-19T05:43:12Z</time>
      </trkpt>
      <trkpt lat="42.92811" lon="-8.2155">
        <ele>402.2</ele>
        <time>2016-07-19T05:43:19Z</time>
      </trkpt>
      <trkpt lat="42.92805" lon="-8.21562">
        <ele>402.3</ele>
        <time>2016-07-19T05:43:27Z</time>
      </trkpt>
      <trkpt lat="42.92801" lon="-8.21573">
        <ele>402.3</ele>
        <time>2016-07-19T05:43:34Z</time>
      </trkpt>
      <trkpt lat="42.92796" lon="-8.21586">
        <ele>402.3</ele>
        <time>2016-07-19T05:43:41Z</time>
      </trkpt>
      <trkpt lat="42.92792" lon="-8.21598">
        <ele>402.3</ele>
        <time>2016-07-19T05:43:48Z</time>
      </trkpt>
      <trkpt lat="42.92787" lon="-8.2161">
        <ele>402.3</ele>
        <time>2016-07-19T05:43:56Z</time>
      </trkpt>
      <trkpt lat="42.92783" lon="-8.21623">
        <ele>402.2</ele>
        <time>2016-07-19T05:44:04Z</time>
      </trkpt>
      <trkpt lat="42.9278" lon="-8.21636">
        <ele>401.8</ele>
        <time>2016-07-19T05:44:13Z</time>
      </trkpt>
      <trkpt lat="42.92776" lon="-8.21649">
        <ele>401.1</ele>
        <time>2016-07-19T05:44:22Z</time>
      </trkpt>
      <trkpt lat="42.92771" lon="-8.21659">
        <ele>400.6</ele>
        <time>2016-07-19T05:44:30Z</time>
      </trkpt>
      <trkpt lat="42.92767" lon="-8.21671">
        <ele>400.1</ele>
        <time>2016-07-19T05:44:39Z</time>
      </trkpt>
      <trkpt lat="42.92762" lon="-8.21682">
        <ele>399.9</ele>
        <time>2016-07-19T05:44:48Z</time>
      </trkpt>
      <trkpt lat="42.92758" lon="-8.21694">
        <ele>399.2</ele>
        <time>2016-07-19T05:44:58Z</time>
      </trkpt>
      <trkpt lat="42.92754" lon="-8.21705">
        <ele>398.7</ele>
        <time>2016-07-19T05:45:06Z</time>
      </trkpt>
      <trkpt lat="42.9275" lon="-8.21717">
        <ele>398.4</ele>
        <time>2016-07-19T05:45:13Z</time>
      </trkpt>
      <trkpt lat="42.92746" lon="-8.21728">
        <ele>398.1</ele>
        <time>2016-07-19T05:45:20Z</time>
      </trkpt>
      <trkpt lat="42.92741" lon="-8.21739">
        <ele>397.6</ele>
        <time>2016-07-19T05:45:27Z</time>
      </trkpt>
      <trkpt lat="42.92737" lon="-8.21751">
        <ele>396.9</ele>
        <time>2016-07-19T05:45:35Z</time>
      </trkpt>
      <trkpt lat="42.92732" lon="-8.21763">
        <ele>395.9</ele>
        <time>2016-07-19T05:45:44Z</time>
      </trkpt>
      <trkpt lat="42.92728" lon="-8.21774">
        <ele>395.4</ele>
        <time>2016-07-19T05:45:52Z</time>
      </trkpt>
      <trkpt lat="42.92722" lon="-8.21786">
        <ele>394.7</ele>
        <time>2016-07-19T05:46:01Z</time>
      </trkpt>
      <trkpt lat="42.92716" lon="-8.21795">
        <ele>394</ele>
        <time>2016-07-19T05:46:10Z</time>
      </trkpt>
      <trkpt lat="42.92709" lon="-8.21804">
        <ele>393.4</ele>
        <time>2016-07-19T05:46:19Z</time>
      </trkpt>
      <trkpt lat="42.92704" lon="-8.21815">
        <ele>392.6</ele>
        <time>2016-07-19T05:46:27Z</time>
      </trkpt>
      <trkpt lat="42.92699" lon="-8.21826">
        <ele>391.7</ele>
        <time>2016-07-19T05:46:35Z</time>
      </trkpt>
      <trkpt lat="42.92695" lon="-8.21838">
        <ele>390.8</ele>
        <time>2016-07-19T05:46:44Z</time>
      </trkpt>
      <trkpt lat="42.92691" lon="-8.2185">
        <ele>390</ele>
        <time>2016-07-19T05:46:52Z</time>
      </trkpt>
      <trkpt lat="42.92688" lon="-8.21862">
        <ele>389.3</ele>
        <time>2016-07-19T05:47:02Z</time>
      </trkpt>
      <trkpt lat="42.92686" lon="-8.21875">
        <ele>388</ele>
        <time>2016-07-19T05:47:11Z</time>
      </trkpt>
      <trkpt lat="42.92682" lon="-8.21887">
        <ele>387.2</ele>
        <time>2016-07-19T05:47:20Z</time>
      </trkpt>
      <trkpt lat="42.92679" lon="-8.21899">
        <ele>386.8</ele>
        <time>2016-07-19T05:47:27Z</time>
      </trkpt>
      <trkpt lat="42.92675" lon="-8.21912">
        <ele>386.4</ele>
        <time>2016-07-19T05:47:35Z</time>
      </trkpt>
      <trkpt lat="42.92671" lon="-8.21924">
        <ele>385.8</ele>
        <time>2016-07-19T05:47:42Z</time>
      </trkpt>
      <trkpt lat="42.92668" lon="-8.21937">
        <ele>385.4</ele>
        <time>2016-07-19T05:47:51Z</time>
      </trkpt>
      <trkpt lat="42.92664" lon="-8.21949">
        <ele>385</ele>
        <time>2016-07-19T05:47:59Z</time>
      </trkpt>
      <trkpt lat="42.92659" lon="-8.2196">
        <ele>384.8</ele>
        <time>2016-07-19T05:48:07Z</time>
      </trkpt>
      <trkpt lat="42.92656" lon="-8.21973">
        <ele>384.8</ele>
        <time>2016-07-19T05:48:16Z</time>
      </trkpt>
      <trkpt lat="42.92653" lon="-8.21986">
        <ele>385</ele>
        <time>2016-07-19T05:48:25Z</time>
      </trkpt>
      <trkpt lat="42.92649" lon="-8.21998">
        <ele>385</ele>
        <time>2016-07-19T05:48:33Z</time>
      </trkpt>
      <trkpt lat="42.92645" lon="-8.2201">
        <ele>385.1</ele>
        <time>2016-07-19T05:48:42Z</time>
      </trkpt>
      <trkpt lat="42.92641" lon="-8.22023">
        <ele>385.2</ele>
        <time>2016-07-19T05:48:50Z</time>
      </trkpt>
      <trkpt lat="42.92638" lon="-8.22036">
        <ele>385.3</ele>
        <time>2016-07-19T05:48:57Z</time>
      </trkpt>
      <trkpt lat="42.92634" lon="-8.22049">
        <ele>385.3</ele>
        <time>2016-07-19T05:49:04Z</time>
      </trkpt>
      <trkpt lat="42.92631" lon="-8.22061">
        <ele>385.4</ele>
        <time>2016-07-19T05:49:12Z</time>
      </trkpt>
      <trkpt lat="42.92627" lon="-8.22074">
        <ele>385.4</ele>
        <time>2016-07-19T05:49:19Z</time>
      </trkpt>
      <trkpt lat="42.92624" lon="-8.22087">
        <ele>385.3</ele>
        <time>2016-07-19T05:49:27Z</time>
      </trkpt>
      <trkpt lat="42.92622" lon="-8.22099">
        <ele>385.2</ele>
        <time>2016-07-19T05:49:35Z</time>
      </trkpt>
      <trkpt lat="42.92617" lon="-8.2211">
        <ele>385.6</ele>
        <time>2016-07-19T05:49:45Z</time>
      </trkpt>
      <trkpt lat="42.92614" lon="-8.22122">
        <ele>385.6</ele>
        <time>2016-07-19T05:49:55Z</time>
      </trkpt>
      <trkpt lat="42.92608" lon="-8.22134">
        <ele>385.6</ele>
        <time>2016-07-19T05:50:04Z</time>
      </trkpt>
      <trkpt lat="42.92605" lon="-8.22146">
        <ele>385.7</ele>
        <time>2016-07-19T05:50:12Z</time>
      </trkpt>
      <trkpt lat="42.926" lon="-8.22157">
        <ele>386.3</ele>
        <time>2016-07-19T05:50:20Z</time>
      </trkpt>
      <trkpt lat="42.92596" lon="-8.22169">
        <ele>386.6</ele>
        <time>2016-07-19T05:50:27Z</time>
      </trkpt>
      <trkpt lat="42.92593" lon="-8.22181">
        <ele>386.8</ele>
        <time>2016-07-19T05:50:34Z</time>
      </trkpt>
      <trkpt lat="42.92591" lon="-8.22194">
        <ele>387.3</ele>
        <time>2016-07-19T05:50:42Z</time>
      </trkpt>
      <trkpt lat="42.92589" lon="-8.22207">
        <ele>387.6</ele>
        <time>2016-07-19T05:50:51Z</time>
      </trkpt>
      <trkpt lat="42.92588" lon="-8.2222">
        <ele>388.1</ele>
        <time>2016-07-19T05:51:00Z</time>
      </trkpt>
      <trkpt lat="42.92588" lon="-8.22233">
        <ele>388.5</ele>
        <time>2016-07-19T05:51:08Z</time>
      </trkpt>
      <trkpt lat="42.92589" lon="-8.22247">
        <ele>388.5</ele>
        <time>2016-07-19T05:51:17Z</time>
      </trkpt>
      <trkpt lat="42.9259" lon="-8.2226">
        <ele>389.1</ele>
        <time>2016-07-19T05:51:26Z</time>
      </trkpt>
      <trkpt lat="42.92591" lon="-8.22273">
        <ele>389.7</ele>
        <time>2016-07-19T05:51:35Z</time>
      </trkpt>
      <trkpt lat="42.92589" lon="-8.22286">
        <ele>390.1</ele>
        <time>2016-07-19T05:51:43Z</time>
      </trkpt>
      <trkpt lat="42.92586" lon="-8.22297">
        <ele>390.4</ele>
        <time>2016-07-19T05:51:51Z</time>
      </trkpt>
      <trkpt lat="42.92582" lon="-8.22309">
        <ele>390.8</ele>
        <time>2016-07-19T05:52:00Z</time>
      </trkpt>
      <trkpt lat="42.92578" lon="-8.22322">
        <ele>391</ele>
        <time>2016-07-19T05:52:09Z</time>
      </trkpt>
      <trkpt lat="42.92575" lon="-8.22334">
        <ele>391</ele>
        <time>2016-07-19T05:52:18Z</time>
      </trkpt>
      <trkpt lat="42.92571" lon="-8.22346">
        <ele>391</ele>
        <time>2016-07-19T05:52:27Z</time>
      </trkpt>
      <trkpt lat="42.92569" lon="-8.22358">
        <ele>391.4</ele>
        <time>2016-07-19T05:52:37Z</time>
      </trkpt>
      <trkpt lat="42.92565" lon="-8.2237">
        <ele>391.5</ele>
        <time>2016-07-19T05:52:45Z</time>
      </trkpt>
      <trkpt lat="42.92561" lon="-8.22382">
        <ele>391.5</ele>
        <time>2016-07-19T05:52:53Z</time>
      </trkpt>
      <trkpt lat="42.92557" lon="-8.22394">
        <ele>391.6</ele>
        <time>2016-07-19T05:53:02Z</time>
      </trkpt>
      <trkpt lat="42.92554" lon="-8.22406">
        <ele>391.7</ele>
        <time>2016-07-19T05:53:10Z</time>
      </trkpt>
      <trkpt lat="42.92549" lon="-8.22417">
        <ele>391.8</ele>
        <time>2016-07-19T05:53:19Z</time>
      </trkpt>
      <trkpt lat="42.92543" lon="-8.22428">
        <ele>391.8</ele>
        <time>2016-07-19T05:53:29Z</time>
      </trkpt>
      <trkpt lat="42.92538" lon="-8.22439">
        <ele>391.7</ele>
        <time>2016-07-19T05:53:38Z</time>
      </trkpt>
      <trkpt lat="42.92532" lon="-8.2245">
        <ele>391.5</ele>
        <time>2016-07-19T05:53:45Z</time>
      </trkpt>
      <trkpt lat="42.92526" lon="-8.2246">
        <ele>391.2</ele>
        <time>2016-07-19T05:53:52Z</time>
      </trkpt>
      <trkpt lat="42.92522" lon="-8.22472">
        <ele>390.9</ele>
        <time>2016-07-19T05:54:00Z</time>
      </trkpt>
      <trkpt lat="42.92518" lon="-8.22484">
        <ele>390.6</ele>
        <time>2016-07-19T05:54:08Z</time>
      </trkpt>
      <trkpt lat="42.92513" lon="-8.22496">
        <ele>390.4</ele>
        <time>2016-07-19T05:54:16Z</time>
      </trkpt>
      <trkpt lat="42.92509" lon="-8.22508">
        <ele>390.4</ele>
        <time>2016-07-19T05:54:25Z</time>
      </trkpt>
      <trkpt lat="42.92504" lon="-8.22518">
        <ele>390.6</ele>
        <time>2016-07-19T05:54:34Z</time>
      </trkpt>
      <trkpt lat="42.92499" lon="-8.22529">
        <ele>390.5</ele>
        <time>2016-07-19T05:54:44Z</time>
      </trkpt>
      <trkpt lat="42.92495" lon="-8.22541">
        <ele>390.4</ele>
        <time>2016-07-19T05:54:51Z</time>
      </trkpt>
      <trkpt lat="42.92491" lon="-8.22553">
        <ele>390.2</ele>
        <time>2016-07-19T05:55:00Z</time>
      </trkpt>
      <trkpt lat="42.92485" lon="-8.22565">
        <ele>390</ele>
        <time>2016-07-19T05:55:07Z</time>
      </trkpt>
      <trkpt lat="42.9248" lon="-8.22576">
        <ele>389.8</ele>
        <time>2016-07-19T05:55:14Z</time>
      </trkpt>
      <trkpt lat="42.92474" lon="-8.22586">
        <ele>389.7</ele>
        <time>2016-07-19T05:55:22Z</time>
      </trkpt>
      <trkpt lat="42.9247" lon="-8.22598">
        <ele>388.9</ele>
        <time>2016-07-19T05:55:31Z</time>
      </trkpt>
      <trkpt lat="42.92466" lon="-8.2261">
        <ele>388.5</ele>
        <time>2016-07-19T05:55:39Z</time>
      </trkpt>
      <trkpt lat="42.92462" lon="-8.22622">
        <ele>388.4</ele>
        <time>2016-07-19T05:55:49Z</time>
      </trkpt>
      <trkpt lat="42.92454" lon="-8.22631">
        <ele>388.2</ele>
        <time>2016-07-19T05:55:58Z</time>
      </trkpt>
      <trkpt lat="42.92447" lon="-8.22641">
        <ele>387.7</ele>
        <time>2016-07-19T05:56:08Z</time>
      </trkpt>
      <trkpt lat="42.9244" lon="-8.22649">
        <ele>387.8</ele>
        <time>2016-07-19T05:56:14Z</time>
      </trkpt>
      <trkpt lat="42.92433" lon="-8.22658">
        <ele>387.6</ele>
        <time>2016-07-19T05:56:21Z</time>
      </trkpt>
      <trkpt lat="42.92426" lon="-8.22666">
        <ele>387.6</ele>
        <time>2016-07-19T05:56:28Z</time>
      </trkpt>
      <trkpt lat="42.92418" lon="-8.22674">
        <ele>387.6</ele>
        <time>2016-07-19T05:56:35Z</time>
      </trkpt>
      <trkpt lat="42.9241" lon="-8.2268">
        <ele>387.6</ele>
        <time>2016-07-19T05:56:42Z</time>
      </trkpt>
      <trkpt lat="42.92403" lon="-8.22689">
        <ele>387.4</ele>
        <time>2016-07-19T05:56:49Z</time>
      </trkpt>
      <trkpt lat="42.92397" lon="-8.22698">
        <ele>387.3</ele>
        <time>2016-07-19T05:56:56Z</time>
      </trkpt>
      <trkpt lat="42.92391" lon="-8.22709">
        <ele>387</ele>
        <time>2016-07-19T05:57:04Z</time>
      </trkpt>
      <trkpt lat="42.92386" lon="-8.22721">
        <ele>386.9</ele>
        <time>2016-07-19T05:57:12Z</time>
      </trkpt>
      <trkpt lat="42.9238" lon="-8.22732">
        <ele>386.8</ele>
        <time>2016-07-19T05:57:20Z</time>
      </trkpt>
      <trkpt lat="42.92375" lon="-8.22742">
        <ele>386.6</ele>
        <time>2016-07-19T05:57:28Z</time>
      </trkpt>
      <trkpt lat="42.92371" lon="-8.22754">
        <ele>386.5</ele>
        <time>2016-07-19T05:57:36Z</time>
      </trkpt>
      <trkpt lat="42.92365" lon="-8.22765">
        <ele>386.6</ele>
        <time>2016-07-19T05:57:44Z</time>
      </trkpt>
      <trkpt lat="42.9236" lon="-8.22776">
        <ele>386.6</ele>
        <time>2016-07-19T05:57:52Z</time>
      </trkpt>
      <trkpt lat="42.92354" lon="-8.22786">
        <ele>386.6</ele>
        <time>2016-07-19T05:58:01Z</time>
      </trkpt>
      <trkpt lat="42.92349" lon="-8.22797">
        <ele>387</ele>
        <time>2016-07-19T05:58:09Z</time>
      </trkpt>
      <trkpt lat="42.92343" lon="-8.22808">
        <ele>387.5</ele>
        <time>2016-07-19T05:58:19Z</time>
      </trkpt>
      <trkpt lat="42.92337" lon="-8.22819">
        <ele>388.3</ele>
        <time>2016-07-19T05:58:29Z</time>
      </trkpt>
      <trkpt lat="42.9233" lon="-8.22827">
        <ele>389.1</ele>
        <time>2016-07-19T05:58:41Z</time>
      </trkpt>
      <trkpt lat="42.92323" lon="-8.22837">
        <ele>390.3</ele>
        <time>2016-07-19T05:58:50Z</time>
      </trkpt>
      <trkpt lat="42.92316" lon="-8.22846">
        <ele>391.5</ele>
        <time>2016-07-19T05:58:59Z</time>
      </trkpt>
      <trkpt lat="42.9231" lon="-8.22856">
        <ele>392.1</ele>
        <time>2016-07-19T05:59:06Z</time>
      </trkpt>
      <trkpt lat="42.92303" lon="-8.22866">
        <ele>392.7</ele>
        <time>2016-07-19T05:59:16Z</time>
      </trkpt>
      <trkpt lat="42.92298" lon="-8.22876">
        <ele>393.9</ele>
        <time>2016-07-19T05:59:24Z</time>
      </trkpt>
      <trkpt lat="42.92291" lon="-8.22885">
        <ele>394.4</ele>
        <time>2016-07-19T05:59:32Z</time>
      </trkpt>
      <trkpt lat="42.92286" lon="-8.22896">
        <ele>395.2</ele>
        <time>2016-07-19T05:59:42Z</time>
      </trkpt>
      <trkpt lat="42.92282" lon="-8.22909">
        <ele>396</ele>
        <time>2016-07-19T05:59:53Z</time>
      </trkpt>
      <trkpt lat="42.92276" lon="-8.2292">
        <ele>396.4</ele>
        <time>2016-07-19T06:00:00Z</time>
      </trkpt>
      <trkpt lat="42.9227" lon="-8.2293">
        <ele>396.9</ele>
        <time>2016-07-19T06:00:08Z</time>
      </trkpt>
      <trkpt lat="42.92264" lon="-8.22941">
        <ele>397.2</ele>
        <time>2016-07-19T06:00:16Z</time>
      </trkpt>
      <trkpt lat="42.92259" lon="-8.22951">
        <ele>398.1</ele>
        <time>2016-07-19T06:00:23Z</time>
      </trkpt>
      <trkpt lat="42.92254" lon="-8.22963">
        <ele>398.5</ele>
        <time>2016-07-19T06:00:32Z</time>
      </trkpt>
      <trkpt lat="42.9225" lon="-8.22975">
        <ele>398.7</ele>
        <time>2016-07-19T06:00:41Z</time>
      </trkpt>
      <trkpt lat="42.92247" lon="-8.22986">
        <ele>398.8</ele>
        <time>2016-07-19T06:00:51Z</time>
      </trkpt>
      <trkpt lat="42.92239" lon="-8.22994">
        <ele>399.4</ele>
        <time>2016-07-19T06:01:13Z</time>
      </trkpt>
      <trkpt lat="42.92234" lon="-8.23005">
        <ele>399.5</ele>
        <time>2016-07-19T06:01:23Z</time>
      </trkpt>
      <trkpt lat="42.92232" lon="-8.23018">
        <ele>399.3</ele>
        <time>2016-07-19T06:01:33Z</time>
      </trkpt>
      <trkpt lat="42.92231" lon="-8.2303">
        <ele>399.3</ele>
        <time>2016-07-19T06:01:42Z</time>
      </trkpt>
      <trkpt lat="42.92229" lon="-8.23043">
        <ele>399.5</ele>
        <time>2016-07-19T06:01:49Z</time>
      </trkpt>
      <trkpt lat="42.92226" lon="-8.23056">
        <ele>399.5</ele>
        <time>2016-07-19T06:01:56Z</time>
      </trkpt>
      <trkpt lat="42.92222" lon="-8.23067">
        <ele>399</ele>
        <time>2016-07-19T06:02:03Z</time>
      </trkpt>
      <trkpt lat="42.92218" lon="-8.23079">
        <ele>398.9</ele>
        <time>2016-07-19T06:02:09Z</time>
      </trkpt>
      <trkpt lat="42.92214" lon="-8.23091">
        <ele>398.9</ele>
        <time>2016-07-19T06:02:16Z</time>
      </trkpt>
      <trkpt lat="42.92211" lon="-8.23104">
        <ele>398.2</ele>
        <time>2016-07-19T06:02:24Z</time>
      </trkpt>
      <trkpt lat="42.92208" lon="-8.23117">
        <ele>397.3</ele>
        <time>2016-07-19T06:02:32Z</time>
      </trkpt>
      <trkpt lat="42.92207" lon="-8.2313">
        <ele>398.1</ele>
        <time>2016-07-19T06:02:42Z</time>
      </trkpt>
      <trkpt lat="42.92203" lon="-8.23141">
        <ele>397.6</ele>
        <time>2016-07-19T06:02:53Z</time>
      </trkpt>
      <trkpt lat="42.92198" lon="-8.23151">
        <ele>396.4</ele>
        <time>2016-07-19T06:03:02Z</time>
      </trkpt>
      <trkpt lat="42.92193" lon="-8.23163">
        <ele>394.5</ele>
        <time>2016-07-19T06:03:12Z</time>
      </trkpt>
      <trkpt lat="42.92189" lon="-8.23175">
        <ele>394</ele>
        <time>2016-07-19T06:03:20Z</time>
      </trkpt>
      <trkpt lat="42.92185" lon="-8.23187">
        <ele>393.4</ele>
        <time>2016-07-19T06:03:28Z</time>
      </trkpt>
      <trkpt lat="42.9218" lon="-8.23199">
        <ele>392.9</ele>
        <time>2016-07-19T06:03:37Z</time>
      </trkpt>
      <trkpt lat="42.92175" lon="-8.2321">
        <ele>392.4</ele>
        <time>2016-07-19T06:03:46Z</time>
      </trkpt>
      <trkpt lat="42.9217" lon="-8.23222">
        <ele>392.1</ele>
        <time>2016-07-19T06:03:55Z</time>
      </trkpt>
      <trkpt lat="42.92165" lon="-8.23233">
        <ele>391.7</ele>
        <time>2016-07-19T06:04:04Z</time>
      </trkpt>
      <trkpt lat="42.9216" lon="-8.23243">
        <ele>391.1</ele>
        <time>2016-07-19T06:04:12Z</time>
      </trkpt>
      <trkpt lat="42.92156" lon="-8.23255">
        <ele>390.5</ele>
        <time>2016-07-19T06:04:20Z</time>
      </trkpt>
      <trkpt lat="42.92151" lon="-8.23266">
        <ele>390.2</ele>
        <time>2016-07-19T06:04:28Z</time>
      </trkpt>
      <trkpt lat="42.92144" lon="-8.23277">
        <ele>390.1</ele>
        <time>2016-07-19T06:04:36Z</time>
      </trkpt>
      <trkpt lat="42.92139" lon="-8.23287">
        <ele>390.2</ele>
        <time>2016-07-19T06:04:44Z</time>
      </trkpt>
      <trkpt lat="42.92133" lon="-8.23297">
        <ele>390</ele>
        <time>2016-07-19T06:04:52Z</time>
      </trkpt>
      <trkpt lat="42.92126" lon="-8.23307">
        <ele>389.7</ele>
        <time>2016-07-19T06:04:59Z</time>
      </trkpt>
      <trkpt lat="42.92121" lon="-8.23317">
        <ele>389.4</ele>
        <time>2016-07-19T06:05:06Z</time>
      </trkpt>
      <trkpt lat="42.92119" lon="-8.2333">
        <ele>389.2</ele>
        <time>2016-07-19T06:05:15Z</time>
      </trkpt>
      <trkpt lat="42.92113" lon="-8.23341">
        <ele>389.1</ele>
        <time>2016-07-19T06:05:23Z</time>
      </trkpt>
      <trkpt lat="42.92108" lon="-8.23351">
        <ele>388.8</ele>
        <time>2016-07-19T06:05:33Z</time>
      </trkpt>
      <trkpt lat="42.92103" lon="-8.23363">
        <ele>389</ele>
        <time>2016-07-19T06:05:42Z</time>
      </trkpt>
      <trkpt lat="42.92099" lon="-8.23374">
        <ele>388.7</ele>
        <time>2016-07-19T06:05:51Z</time>
      </trkpt>
      <trkpt lat="42.92094" lon="-8.23385">
        <ele>388.3</ele>
        <time>2016-07-19T06:05:59Z</time>
      </trkpt>
      <trkpt lat="42.92092" lon="-8.23397">
        <ele>388</ele>
        <time>2016-07-19T06:06:06Z</time>
      </trkpt>
      <trkpt lat="42.9209" lon="-8.23409">
        <ele>387.8</ele>
        <time>2016-07-19T06:06:13Z</time>
      </trkpt>
      <trkpt lat="42.92087" lon="-8.23421">
        <ele>387.7</ele>
        <time>2016-07-19T06:06:20Z</time>
      </trkpt>
      <trkpt lat="42.92085" lon="-8.23433">
        <ele>387.6</ele>
        <time>2016-07-19T06:06:28Z</time>
      </trkpt>
      <trkpt lat="42.92083" lon="-8.23447">
        <ele>387.5</ele>
        <time>2016-07-19T06:06:36Z</time>
      </trkpt>
      <trkpt lat="42.9208" lon="-8.23459">
        <ele>387.5</ele>
        <time>2016-07-19T06:06:44Z</time>
      </trkpt>
      <trkpt lat="42.92077" lon="-8.23471">
        <ele>387.5</ele>
        <time>2016-07-19T06:06:52Z</time>
      </trkpt>
      <trkpt lat="42.92073" lon="-8.23483">
        <ele>387.3</ele>
        <time>2016-07-19T06:07:01Z</time>
      </trkpt>
      <trkpt lat="42.92068" lon="-8.23495">
        <ele>387.1</ele>
        <time>2016-07-19T06:07:10Z</time>
      </trkpt>
      <trkpt lat="42.92064" lon="-8.23506">
        <ele>387.2</ele>
        <time>2016-07-19T06:07:19Z</time>
      </trkpt>
      <trkpt lat="42.92058" lon="-8.23515">
        <ele>387.3</ele>
        <time>2016-07-19T06:07:27Z</time>
      </trkpt>
      <trkpt lat="42.92052" lon="-8.23525">
        <ele>387.3</ele>
        <time>2016-07-19T06:07:35Z</time>
      </trkpt>
      <trkpt lat="42.92047" lon="-8.23536">
        <ele>387.5</ele>
        <time>2016-07-19T06:07:44Z</time>
      </trkpt>
      <trkpt lat="42.92046" lon="-8.23549">
        <ele>387.8</ele>
        <time>2016-07-19T06:07:52Z</time>
      </trkpt>
      <trkpt lat="42.92044" lon="-8.23563">
        <ele>388</ele>
        <time>2016-07-19T06:08:01Z</time>
      </trkpt>
      <trkpt lat="42.92042" lon="-8.23575">
        <ele>388</ele>
        <time>2016-07-19T06:08:08Z</time>
      </trkpt>
      <trkpt lat="42.92041" lon="-8.23588">
        <ele>388</ele>
        <time>2016-07-19T06:08:15Z</time>
      </trkpt>
      <trkpt lat="42.92041" lon="-8.23601">
        <ele>387.7</ele>
        <time>2016-07-19T06:08:23Z</time>
      </trkpt>
      <trkpt lat="42.9204" lon="-8.23614">
        <ele>387</ele>
        <time>2016-07-19T06:08:31Z</time>
      </trkpt>
      <trkpt lat="42.9204" lon="-8.23627">
        <ele>385.7</ele>
        <time>2016-07-19T06:08:40Z</time>
      </trkpt>
      <trkpt lat="42.92041" lon="-8.2364">
        <ele>384.6</ele>
        <time>2016-07-19T06:08:48Z</time>
      </trkpt>
      <trkpt lat="42.92042" lon="-8.23653">
        <ele>383.7</ele>
        <time>2016-07-19T06:08:57Z</time>
      </trkpt>
      <trkpt lat="42.92043" lon="-8.23665">
        <ele>382.8</ele>
        <time>2016-07-19T06:09:05Z</time>
      </trkpt>
      <trkpt lat="42.92044" lon="-8.23679">
        <ele>381.8</ele>
        <time>2016-07-19T06:09:14Z</time>
      </trkpt>
      <trkpt lat="42.92041" lon="-8.2369">
        <ele>380.9</ele>
        <time>2016-07-19T06:09:21Z</time>
      </trkpt>
      <trkpt lat="42.92035" lon="-8.23702">
        <ele>380.1</ele>
        <time>2016-07-19T06:09:28Z</time>
      </trkpt>
      <trkpt lat="42.92031" lon="-8.23713">
        <ele>379.5</ele>
        <time>2016-07-19T06:09:36Z</time>
      </trkpt>
      <trkpt lat="42.92026" lon="-8.23724">
        <ele>378.1</ele>
        <time>2016-07-19T06:09:46Z</time>
      </trkpt>
      <trkpt lat="42.92019" lon="-8.23734">
        <ele>376.9</ele>
        <time>2016-07-19T06:09:55Z</time>
      </trkpt>
      <trkpt lat="42.9201" lon="-8.23743">
        <ele>376.1</ele>
        <time>2016-07-19T06:10:02Z</time>
      </trkpt>
      <trkpt lat="42.92002" lon="-8.23749">
        <ele>375.2</ele>
        <time>2016-07-19T06:10:09Z</time>
      </trkpt>
      <trkpt lat="42.91994" lon="-8.23754">
        <ele>374.7</ele>
        <time>2016-07-19T06:10:16Z</time>
      </trkpt>
      <trkpt lat="42.91986" lon="-8.2376">
        <ele>374.3</ele>
        <time>2016-07-19T06:10:23Z</time>
      </trkpt>
      <trkpt lat="42.91979" lon="-8.2377">
        <ele>373.9</ele>
        <time>2016-07-19T06:10:31Z</time>
      </trkpt>
      <trkpt lat="42.91975" lon="-8.23781">
        <ele>373.5</ele>
        <time>2016-07-19T06:10:41Z</time>
      </trkpt>
      <trkpt lat="42.91971" lon="-8.23793">
        <ele>373.2</ele>
        <time>2016-07-19T06:10:51Z</time>
      </trkpt>
      <trkpt lat="42.91967" lon="-8.23806">
        <ele>373.2</ele>
        <time>2016-07-19T06:10:59Z</time>
      </trkpt>
      <trkpt lat="42.91962" lon="-8.23816">
        <ele>372.9</ele>
        <time>2016-07-19T06:11:07Z</time>
      </trkpt>
      <trkpt lat="42.91956" lon="-8.23827">
        <ele>372.6</ele>
        <time>2016-07-19T06:11:15Z</time>
      </trkpt>
      <trkpt lat="42.91951" lon="-8.23838">
        <ele>372.5</ele>
        <time>2016-07-19T06:11:25Z</time>
      </trkpt>
      <trkpt lat="42.91946" lon="-8.23849">
        <ele>372.3</ele>
        <time>2016-07-19T06:11:32Z</time>
      </trkpt>
      <trkpt lat="42.91943" lon="-8.23861">
        <ele>371.7</ele>
        <time>2016-07-19T06:11:40Z</time>
      </trkpt>
      <trkpt lat="42.9194" lon="-8.23873">
        <ele>371.7</ele>
        <time>2016-07-19T06:11:49Z</time>
      </trkpt>
      <trkpt lat="42.91935" lon="-8.23885">
        <ele>371.6</ele>
        <time>2016-07-19T06:11:57Z</time>
      </trkpt>
      <trkpt lat="42.9193" lon="-8.23896">
        <ele>371.6</ele>
        <time>2016-07-19T06:12:04Z</time>
      </trkpt>
      <trkpt lat="42.91926" lon="-8.23908">
        <ele>370.9</ele>
        <time>2016-07-19T06:12:13Z</time>
      </trkpt>
      <trkpt lat="42.91921" lon="-8.23919">
        <ele>370.3</ele>
        <time>2016-07-19T06:12:22Z</time>
      </trkpt>
      <trkpt lat="42.91916" lon="-8.23929">
        <ele>369.9</ele>
        <time>2016-07-19T06:12:31Z</time>
      </trkpt>
      <trkpt lat="42.9191" lon="-8.23938">
        <ele>369.4</ele>
        <time>2016-07-19T06:12:39Z</time>
      </trkpt>
      <trkpt lat="42.91904" lon="-8.23949">
        <ele>368.9</ele>
        <time>2016-07-19T06:12:48Z</time>
      </trkpt>
      <trkpt lat="42.91898" lon="-8.23959">
        <ele>368.3</ele>
        <time>2016-07-19T06:12:56Z</time>
      </trkpt>
      <trkpt lat="42.91895" lon="-8.23971">
        <ele>366.8</ele>
        <time>2016-07-19T06:13:15Z</time>
      </trkpt>
      <trkpt lat="42.91886" lon="-8.23969">
        <ele>365.2</ele>
        <time>2016-07-19T06:14:38Z</time>
      </trkpt>
      <trkpt lat="42.91896" lon="-8.23968">
        <ele>365.3</ele>
        <time>2016-07-19T06:15:39Z</time>
      </trkpt>
      <trkpt lat="42.91887" lon="-8.23971">
        <ele>365.2</ele>
        <time>2016-07-19T06:16:46Z</time>
      </trkpt>
      <trkpt lat="42.91881" lon="-8.23982">
        <ele>365.1</ele>
        <time>2016-07-19T06:18:01Z</time>
      </trkpt>
      <trkpt lat="42.91875" lon="-8.23993">
        <ele>364.7</ele>
        <time>2016-07-19T06:18:13Z</time>
      </trkpt>
      <trkpt lat="42.91868" lon="-8.24001">
        <ele>364.2</ele>
        <time>2016-07-19T06:18:22Z</time>
      </trkpt>
      <trkpt lat="42.91861" lon="-8.2401">
        <ele>363.1</ele>
        <time>2016-07-19T06:18:32Z</time>
      </trkpt>
      <trkpt lat="42.91854" lon="-8.2402">
        <ele>362.5</ele>
        <time>2016-07-19T06:18:40Z</time>
      </trkpt>
      <trkpt lat="42.91846" lon="-8.24026">
        <ele>361.7</ele>
        <time>2016-07-19T06:18:48Z</time>
      </trkpt>
      <trkpt lat="42.91838" lon="-8.24033">
        <ele>360.5</ele>
        <time>2016-07-19T06:18:58Z</time>
      </trkpt>
      <trkpt lat="42.91829" lon="-8.24039">
        <ele>359.6</ele>
        <time>2016-07-19T06:19:06Z</time>
      </trkpt>
      <trkpt lat="42.91821" lon="-8.24047">
        <ele>358.9</ele>
        <time>2016-07-19T06:19:14Z</time>
      </trkpt>
      <trkpt lat="42.91817" lon="-8.24059">
        <ele>357.9</ele>
        <time>2016-07-19T06:19:23Z</time>
      </trkpt>
      <trkpt lat="42.91812" lon="-8.24071">
        <ele>357.3</ele>
        <time>2016-07-19T06:19:32Z</time>
      </trkpt>
      <trkpt lat="42.91814" lon="-8.24083">
        <ele>356.2</ele>
        <time>2016-07-19T06:19:58Z</time>
      </trkpt>
      <trkpt lat="42.91807" lon="-8.24091">
        <ele>354.4</ele>
        <time>2016-07-19T06:21:20Z</time>
      </trkpt>
      <trkpt lat="42.91803" lon="-8.24103">
        <ele>353.6</ele>
        <time>2016-07-19T06:21:39Z</time>
      </trkpt>
      <trkpt lat="42.91799" lon="-8.24114">
        <ele>353.2</ele>
        <time>2016-07-19T06:21:49Z</time>
      </trkpt>
      <trkpt lat="42.91795" lon="-8.24126">
        <ele>352.6</ele>
        <time>2016-07-19T06:21:59Z</time>
      </trkpt>
      <trkpt lat="42.9179" lon="-8.24137">
        <ele>352.3</ele>
        <time>2016-07-19T06:22:08Z</time>
      </trkpt>
      <trkpt lat="42.91784" lon="-8.24148">
        <ele>352.2</ele>
        <time>2016-07-19T06:22:16Z</time>
      </trkpt>
      <trkpt lat="42.91781" lon="-8.2416">
        <ele>351.1</ele>
        <time>2016-07-19T06:22:26Z</time>
      </trkpt>
      <trkpt lat="42.91782" lon="-8.24173">
        <ele>350.2</ele>
        <time>2016-07-19T06:22:36Z</time>
      </trkpt>
      <trkpt lat="42.91786" lon="-8.24185">
        <ele>349.4</ele>
        <time>2016-07-19T06:22:46Z</time>
      </trkpt>
      <trkpt lat="42.9179" lon="-8.24197">
        <ele>348.4</ele>
        <time>2016-07-19T06:22:57Z</time>
      </trkpt>
      <trkpt lat="42.91792" lon="-8.24209">
        <ele>347.8</ele>
        <time>2016-07-19T06:23:06Z</time>
      </trkpt>
      <trkpt lat="42.91793" lon="-8.24223">
        <ele>347.2</ele>
        <time>2016-07-19T06:23:21Z</time>
      </trkpt>
      <trkpt lat="42.91797" lon="-8.24235">
        <ele>346.5</ele>
        <time>2016-07-19T06:23:34Z</time>
      </trkpt>
      <trkpt lat="42.91801" lon="-8.24246">
        <ele>345.8</ele>
        <time>2016-07-19T06:23:42Z</time>
      </trkpt>
      <trkpt lat="42.91805" lon="-8.24258">
        <ele>345.4</ele>
        <time>2016-07-19T06:23:49Z</time>
      </trkpt>
      <trkpt lat="42.91808" lon="-8.2427">
        <ele>344.8</ele>
        <time>2016-07-19T06:23:57Z</time>
      </trkpt>
      <trkpt lat="42.91809" lon="-8.24282">
        <ele>344.2</ele>
        <time>2016-07-19T06:24:07Z</time>
      </trkpt>
      <trkpt lat="42.91809" lon="-8.24294">
        <ele>342.3</ele>
        <time>2016-07-19T06:24:38Z</time>
      </trkpt>
      <trkpt lat="42.91817" lon="-8.24302">
        <ele>341.2</ele>
        <time>2016-07-19T06:25:09Z</time>
      </trkpt>
      <trkpt lat="42.91822" lon="-8.24313">
        <ele>341.3</ele>
        <time>2016-07-19T06:25:18Z</time>
      </trkpt>
      <trkpt lat="42.91823" lon="-8.24325">
        <ele>340.7</ele>
        <time>2016-07-19T06:25:35Z</time>
      </trkpt>
      <trkpt lat="42.91823" lon="-8.24337">
        <ele>338.2</ele>
        <time>2016-07-19T06:26:40Z</time>
      </trkpt>
      <trkpt lat="42.91814" lon="-8.24342">
        <ele>338.1</ele>
        <time>2016-07-19T06:27:09Z</time>
      </trkpt>
      <trkpt lat="42.91804" lon="-8.24346">
        <ele>337.7</ele>
        <time>2016-07-19T06:27:20Z</time>
      </trkpt>
      <trkpt lat="42.91804" lon="-8.24358">
        <ele>337.5</ele>
        <time>2016-07-19T06:27:40Z</time>
      </trkpt>
      <trkpt lat="42.91802" lon="-8.24371">
        <ele>336.4</ele>
        <time>2016-07-19T06:27:49Z</time>
      </trkpt>
      <trkpt lat="42.91799" lon="-8.24383">
        <ele>335.5</ele>
        <time>2016-07-19T06:27:58Z</time>
      </trkpt>
      <trkpt lat="42.91796" lon="-8.24396">
        <ele>335</ele>
        <time>2016-07-19T06:28:09Z</time>
      </trkpt>
      <trkpt lat="42.91796" lon="-8.2441">
        <ele>334.8</ele>
        <time>2016-07-19T06:28:19Z</time>
      </trkpt>
      <trkpt lat="42.91796" lon="-8.24423">
        <ele>334.4</ele>
        <time>2016-07-19T06:28:26Z</time>
      </trkpt>
      <trkpt lat="42.91792" lon="-8.24435">
        <ele>334.4</ele>
        <time>2016-07-19T06:28:34Z</time>
      </trkpt>
      <trkpt lat="42.91791" lon="-8.24447">
        <ele>334.6</ele>
        <time>2016-07-19T06:28:42Z</time>
      </trkpt>
      <trkpt lat="42.91787" lon="-8.2446">
        <ele>334.7</ele>
        <time>2016-07-19T06:28:51Z</time>
      </trkpt>
      <trkpt lat="42.91786" lon="-8.24473">
        <ele>334.7</ele>
        <time>2016-07-19T06:29:01Z</time>
      </trkpt>
      <trkpt lat="42.91784" lon="-8.24486">
        <ele>334.9</ele>
        <time>2016-07-19T06:29:10Z</time>
      </trkpt>
      <trkpt lat="42.91783" lon="-8.24499">
        <ele>335.4</ele>
        <time>2016-07-19T06:29:19Z</time>
      </trkpt>
      <trkpt lat="42.91784" lon="-8.24512">
        <ele>335.9</ele>
        <time>2016-07-19T06:29:29Z</time>
      </trkpt>
      <trkpt lat="42.91785" lon="-8.24525">
        <ele>336.7</ele>
        <time>2016-07-19T06:29:40Z</time>
      </trkpt>
      <trkpt lat="42.91782" lon="-8.24538">
        <ele>337.6</ele>
        <time>2016-07-19T06:29:50Z</time>
      </trkpt>
      <trkpt lat="42.9178" lon="-8.2455">
        <ele>338.2</ele>
        <time>2016-07-19T06:29:59Z</time>
      </trkpt>
      <trkpt lat="42.91778" lon="-8.24563">
        <ele>338.5</ele>
        <time>2016-07-19T06:30:07Z</time>
      </trkpt>
      <trkpt lat="42.9178" lon="-8.24576">
        <ele>338.8</ele>
        <time>2016-07-19T06:30:16Z</time>
      </trkpt>
      <trkpt lat="42.91784" lon="-8.24588">
        <ele>339</ele>
        <time>2016-07-19T06:30:24Z</time>
      </trkpt>
      <trkpt lat="42.91787" lon="-8.246">
        <ele>339.2</ele>
        <time>2016-07-19T06:30:32Z</time>
      </trkpt>
      <trkpt lat="42.9179" lon="-8.24612">
        <ele>339.5</ele>
        <time>2016-07-19T06:30:41Z</time>
      </trkpt>
      <trkpt lat="42.91793" lon="-8.24624">
        <ele>339.8</ele>
        <time>2016-07-19T06:30:50Z</time>
      </trkpt>
      <trkpt lat="42.91796" lon="-8.24637">
        <ele>340.3</ele>
        <time>2016-07-19T06:30:59Z</time>
      </trkpt>
      <trkpt lat="42.91797" lon="-8.2465">
        <ele>340.8</ele>
        <time>2016-07-19T06:31:09Z</time>
      </trkpt>
      <trkpt lat="42.91799" lon="-8.24663">
        <ele>341</ele>
        <time>2016-07-19T06:31:18Z</time>
      </trkpt>
      <trkpt lat="42.91802" lon="-8.24676">
        <ele>341</ele>
        <time>2016-07-19T06:31:28Z</time>
      </trkpt>
      <trkpt lat="42.91805" lon="-8.24688">
        <ele>341.4</ele>
        <time>2016-07-19T06:31:36Z</time>
      </trkpt>
      <trkpt lat="42.91807" lon="-8.24701">
        <ele>341.6</ele>
        <time>2016-07-19T06:31:46Z</time>
      </trkpt>
      <trkpt lat="42.9181" lon="-8.24714">
        <ele>342.2</ele>
        <time>2016-07-19T06:31:55Z</time>
      </trkpt>
      <trkpt lat="42.91813" lon="-8.24727">
        <ele>342.6</ele>
        <time>2016-07-19T06:32:04Z</time>
      </trkpt>
      <trkpt lat="42.91815" lon="-8.24739">
        <ele>343.1</ele>
        <time>2016-07-19T06:32:12Z</time>
      </trkpt>
      <trkpt lat="42.91816" lon="-8.24752">
        <ele>343.3</ele>
        <time>2016-07-19T06:32:20Z</time>
      </trkpt>
      <trkpt lat="42.91817" lon="-8.24765">
        <ele>343.6</ele>
        <time>2016-07-19T06:32:28Z</time>
      </trkpt>
      <trkpt lat="42.91818" lon="-8.24777">
        <ele>344.2</ele>
        <time>2016-07-19T06:32:38Z</time>
      </trkpt>
      <trkpt lat="42.91819" lon="-8.24789">
        <ele>344.6</ele>
        <time>2016-07-19T06:32:48Z</time>
      </trkpt>
      <trkpt lat="42.91821" lon="-8.24802">
        <ele>344.9</ele>
        <time>2016-07-19T06:32:57Z</time>
      </trkpt>
      <trkpt lat="42.91823" lon="-8.24815">
        <ele>345.8</ele>
        <time>2016-07-19T06:33:07Z</time>
      </trkpt>
      <trkpt lat="42.91825" lon="-8.24828">
        <ele>346.3</ele>
        <time>2016-07-19T06:33:15Z</time>
      </trkpt>
      <trkpt lat="42.91827" lon="-8.2484">
        <ele>346.7</ele>
        <time>2016-07-19T06:33:24Z</time>
      </trkpt>
      <trkpt lat="42.91831" lon="-8.24853">
        <ele>346.9</ele>
        <time>2016-07-19T06:33:35Z</time>
      </trkpt>
      <trkpt lat="42.91835" lon="-8.24864">
        <ele>346.8</ele>
        <time>2016-07-19T06:33:44Z</time>
      </trkpt>
      <trkpt lat="42.91839" lon="-8.24877">
        <ele>347.7</ele>
        <time>2016-07-19T06:33:53Z</time>
      </trkpt>
      <trkpt lat="42.91841" lon="-8.24889">
        <ele>348.3</ele>
        <time>2016-07-19T06:34:02Z</time>
      </trkpt>
      <trkpt lat="42.91843" lon="-8.24902">
        <ele>348.9</ele>
        <time>2016-07-19T06:34:11Z</time>
      </trkpt>
      <trkpt lat="42.91845" lon="-8.24915">
        <ele>349.4</ele>
        <time>2016-07-19T06:34:20Z</time>
      </trkpt>
      <trkpt lat="42.91846" lon="-8.24928">
        <ele>349.8</ele>
        <time>2016-07-19T06:34:30Z</time>
      </trkpt>
      <trkpt lat="42.9185" lon="-8.2494">
        <ele>350.1</ele>
        <time>2016-07-19T06:34:40Z</time>
      </trkpt>
      <trkpt lat="42.91852" lon="-8.24953">
        <ele>351.2</ele>
        <time>2016-07-19T06:34:53Z</time>
      </trkpt>
      <trkpt lat="42.91852" lon="-8.24966">
        <ele>351.7</ele>
        <time>2016-07-19T06:35:02Z</time>
      </trkpt>
      <trkpt lat="42.91854" lon="-8.24978">
        <ele>352.2</ele>
        <time>2016-07-19T06:35:10Z</time>
      </trkpt>
      <trkpt lat="42.91857" lon="-8.24992">
        <ele>353</ele>
        <time>2016-07-19T06:35:19Z</time>
      </trkpt>
      <trkpt lat="42.9186" lon="-8.25005">
        <ele>353.4</ele>
        <time>2016-07-19T06:35:30Z</time>
      </trkpt>
      <trkpt lat="42.91861" lon="-8.25017">
        <ele>353.6</ele>
        <time>2016-07-19T06:35:38Z</time>
      </trkpt>
      <trkpt lat="42.91864" lon="-8.2503">
        <ele>353.5</ele>
        <time>2016-07-19T06:35:47Z</time>
      </trkpt>
      <trkpt lat="42.91865" lon="-8.25043">
        <ele>353.7</ele>
        <time>2016-07-19T06:35:56Z</time>
      </trkpt>
      <trkpt lat="42.91866" lon="-8.25056">
        <ele>354.5</ele>
        <time>2016-07-19T06:36:06Z</time>
      </trkpt>
      <trkpt lat="42.91868" lon="-8.25068">
        <ele>354.9</ele>
        <time>2016-07-19T06:36:15Z</time>
      </trkpt>
      <trkpt lat="42.91872" lon="-8.25081">
        <ele>355.1</ele>
        <time>2016-07-19T06:36:24Z</time>
      </trkpt>
      <trkpt lat="42.91876" lon="-8.25092">
        <ele>355.6</ele>
        <time>2016-07-19T06:36:33Z</time>
      </trkpt>
      <trkpt lat="42.9188" lon="-8.25103">
        <ele>356.1</ele>
        <time>2016-07-19T06:36:42Z</time>
      </trkpt>
      <trkpt lat="42.91884" lon="-8.25114">
        <ele>356.6</ele>
        <time>2016-07-19T06:36:51Z</time>
      </trkpt>
      <trkpt lat="42.9189" lon="-8.25125">
        <ele>357.2</ele>
        <time>2016-07-19T06:37:01Z</time>
      </trkpt>
      <trkpt lat="42.91895" lon="-8.25135">
        <ele>357.9</ele>
        <time>2016-07-19T06:37:10Z</time>
      </trkpt>
      <trkpt lat="42.919" lon="-8.25147">
        <ele>358.9</ele>
        <time>2016-07-19T06:37:20Z</time>
      </trkpt>
      <trkpt lat="42.91904" lon="-8.25158">
        <ele>359.5</ele>
        <time>2016-07-19T06:37:29Z</time>
      </trkpt>
      <trkpt lat="42.91908" lon="-8.2517">
        <ele>360.4</ele>
        <time>2016-07-19T06:37:39Z</time>
      </trkpt>
      <trkpt lat="42.91915" lon="-8.25179">
        <ele>361</ele>
        <time>2016-07-19T06:37:48Z</time>
      </trkpt>
      <trkpt lat="42.91922" lon="-8.25189">
        <ele>361.5</ele>
        <time>2016-07-19T06:37:57Z</time>
      </trkpt>
      <trkpt lat="42.91926" lon="-8.252">
        <ele>362</ele>
        <time>2016-07-19T06:38:05Z</time>
      </trkpt>
      <trkpt lat="42.9193" lon="-8.25211">
        <ele>362.4</ele>
        <time>2016-07-19T06:38:15Z</time>
      </trkpt>
      <trkpt lat="42.91934" lon="-8.25222">
        <ele>362.9</ele>
        <time>2016-07-19T06:38:24Z</time>
      </trkpt>
      <trkpt lat="42.91939" lon="-8.25233">
        <ele>363</ele>
        <time>2016-07-19T06:38:33Z</time>
      </trkpt>
      <trkpt lat="42.91945" lon="-8.25243">
        <ele>363.3</ele>
        <time>2016-07-19T06:38:43Z</time>
      </trkpt>
      <trkpt lat="42.91952" lon="-8.25254">
        <ele>364</ele>
        <time>2016-07-19T06:38:52Z</time>
      </trkpt>
      <trkpt lat="42.91958" lon="-8.25265">
        <ele>364.7</ele>
        <time>2016-07-19T06:39:03Z</time>
      </trkpt>
      <trkpt lat="42.91963" lon="-8.25276">
        <ele>365.1</ele>
        <time>2016-07-19T06:39:13Z</time>
      </trkpt>
      <trkpt lat="42.9197" lon="-8.25284">
        <ele>365.9</ele>
        <time>2016-07-19T06:39:22Z</time>
      </trkpt>
      <trkpt lat="42.91979" lon="-8.25287">
        <ele>366.6</ele>
        <time>2016-07-19T06:39:30Z</time>
      </trkpt>
      <trkpt lat="42.91987" lon="-8.25296">
        <ele>367.3</ele>
        <time>2016-07-19T06:39:39Z</time>
      </trkpt>
      <trkpt lat="42.91994" lon="-8.25303">
        <ele>367.6</ele>
        <time>2016-07-19T06:39:46Z</time>
      </trkpt>
      <trkpt lat="42.92003" lon="-8.25308">
        <ele>368.1</ele>
        <time>2016-07-19T06:39:55Z</time>
      </trkpt>
      <trkpt lat="42.92013" lon="-8.25312">
        <ele>368.7</ele>
        <time>2016-07-19T06:40:04Z</time>
      </trkpt>
      <trkpt lat="42.92022" lon="-8.25315">
        <ele>369.2</ele>
        <time>2016-07-19T06:40:13Z</time>
      </trkpt>
      <trkpt lat="42.9203" lon="-8.25321">
        <ele>369.8</ele>
        <time>2016-07-19T06:40:22Z</time>
      </trkpt>
      <trkpt lat="42.92038" lon="-8.25328">
        <ele>369.9</ele>
        <time>2016-07-19T06:40:28Z</time>
      </trkpt>
      <trkpt lat="42.92046" lon="-8.25336">
        <ele>369.9</ele>
        <time>2016-07-19T06:40:35Z</time>
      </trkpt>
      <trkpt lat="42.92054" lon="-8.25343">
        <ele>369.9</ele>
        <time>2016-07-19T06:40:43Z</time>
      </trkpt>
      <trkpt lat="42.92062" lon="-8.2535">
        <ele>370.1</ele>
        <time>2016-07-19T06:40:50Z</time>
      </trkpt>
      <trkpt lat="42.92069" lon="-8.25359">
        <ele>370.7</ele>
        <time>2016-07-19T06:40:58Z</time>
      </trkpt>
      <trkpt lat="42.92076" lon="-8.25369">
        <ele>371.1</ele>
        <time>2016-07-19T06:41:07Z</time>
      </trkpt>
      <trkpt lat="42.92083" lon="-8.25378">
        <ele>371.4</ele>
        <time>2016-07-19T06:41:17Z</time>
      </trkpt>
      <trkpt lat="42.92089" lon="-8.25387">
        <ele>371.6</ele>
        <time>2016-07-19T06:41:25Z</time>
      </trkpt>
      <trkpt lat="42.92096" lon="-8.25395">
        <ele>371.7</ele>
        <time>2016-07-19T06:41:33Z</time>
      </trkpt>
      <trkpt lat="42.92103" lon="-8.25405">
        <ele>371.8</ele>
        <time>2016-07-19T06:41:41Z</time>
      </trkpt>
      <trkpt lat="42.92109" lon="-8.25414">
        <ele>372.5</ele>
        <time>2016-07-19T06:41:49Z</time>
      </trkpt>
      <trkpt lat="42.92114" lon="-8.25425">
        <ele>373.2</ele>
        <time>2016-07-19T06:41:59Z</time>
      </trkpt>
      <trkpt lat="42.92117" lon="-8.25437">
        <ele>373.9</ele>
        <time>2016-07-19T06:42:09Z</time>
      </trkpt>
      <trkpt lat="42.92123" lon="-8.25448">
        <ele>374.3</ele>
        <time>2016-07-19T06:42:17Z</time>
      </trkpt>
      <trkpt lat="42.92126" lon="-8.2546">
        <ele>374.9</ele>
        <time>2016-07-19T06:42:25Z</time>
      </trkpt>
      <trkpt lat="42.92131" lon="-8.25471">
        <ele>375.2</ele>
        <time>2016-07-19T06:42:34Z</time>
      </trkpt>
      <trkpt lat="42.92135" lon="-8.25482">
        <ele>375.5</ele>
        <time>2016-07-19T06:42:43Z</time>
      </trkpt>
      <trkpt lat="42.92139" lon="-8.25494">
        <ele>376</ele>
        <time>2016-07-19T06:42:53Z</time>
      </trkpt>
      <trkpt lat="42.92144" lon="-8.25506">
        <ele>376.4</ele>
        <time>2016-07-19T06:43:02Z</time>
      </trkpt>
      <trkpt lat="42.92149" lon="-8.25518">
        <ele>376.4</ele>
        <time>2016-07-19T06:43:10Z</time>
      </trkpt>
      <trkpt lat="42.92152" lon="-8.2553">
        <ele>376.5</ele>
        <time>2016-07-19T06:43:18Z</time>
      </trkpt>
      <trkpt lat="42.92157" lon="-8.25541">
        <ele>377</ele>
        <time>2016-07-19T06:43:27Z</time>
      </trkpt>
      <trkpt lat="42.92163" lon="-8.25553">
        <ele>377.8</ele>
        <time>2016-07-19T06:43:42Z</time>
      </trkpt>
      <trkpt lat="42.92167" lon="-8.25564">
        <ele>377.9</ele>
        <time>2016-07-19T06:43:52Z</time>
      </trkpt>
      <trkpt lat="42.92172" lon="-8.25576">
        <ele>377.9</ele>
        <time>2016-07-19T06:44:01Z</time>
      </trkpt>
      <trkpt lat="42.92176" lon="-8.25588">
        <ele>377.3</ele>
        <time>2016-07-19T06:44:12Z</time>
      </trkpt>
      <trkpt lat="42.9218" lon="-8.25599">
        <ele>376.7</ele>
        <time>2016-07-19T06:44:22Z</time>
      </trkpt>
      <trkpt lat="42.92186" lon="-8.2561">
        <ele>375.9</ele>
        <time>2016-07-19T06:44:31Z</time>
      </trkpt>
      <trkpt lat="42.92192" lon="-8.25621">
        <ele>374.7</ele>
        <time>2016-07-19T06:44:41Z</time>
      </trkpt>
      <trkpt lat="42.92197" lon="-8.25633">
        <ele>374.2</ele>
        <time>2016-07-19T06:44:50Z</time>
      </trkpt>
      <trkpt lat="42.92203" lon="-8.25643">
        <ele>373.6</ele>
        <time>2016-07-19T06:44:58Z</time>
      </trkpt>
      <trkpt lat="42.92209" lon="-8.25653">
        <ele>373.3</ele>
        <time>2016-07-19T06:45:05Z</time>
      </trkpt>
      <trkpt lat="42.92215" lon="-8.25663">
        <ele>372.7</ele>
        <time>2016-07-19T06:45:11Z</time>
      </trkpt>
      <trkpt lat="42.92219" lon="-8.25674">
        <ele>372.6</ele>
        <time>2016-07-19T06:45:18Z</time>
      </trkpt>
      <trkpt lat="42.92224" lon="-8.25686">
        <ele>372.7</ele>
        <time>2016-07-19T06:45:25Z</time>
      </trkpt>
      <trkpt lat="42.92226" lon="-8.25699">
        <ele>372.7</ele>
        <time>2016-07-19T06:45:32Z</time>
      </trkpt>
      <trkpt lat="42.92229" lon="-8.25712">
        <ele>372.5</ele>
        <time>2016-07-19T06:45:40Z</time>
      </trkpt>
      <trkpt lat="42.92231" lon="-8.25725">
        <ele>372.5</ele>
        <time>2016-07-19T06:45:49Z</time>
      </trkpt>
      <trkpt lat="42.92233" lon="-8.25738">
        <ele>372.5</ele>
        <time>2016-07-19T06:45:56Z</time>
      </trkpt>
      <trkpt lat="42.92234" lon="-8.25751">
        <ele>372.5</ele>
        <time>2016-07-19T06:46:05Z</time>
      </trkpt>
      <trkpt lat="42.92236" lon="-8.25764">
        <ele>372.6</ele>
        <time>2016-07-19T06:46:13Z</time>
      </trkpt>
      <trkpt lat="42.92237" lon="-8.25777">
        <ele>372.6</ele>
        <time>2016-07-19T06:46:21Z</time>
      </trkpt>
      <trkpt lat="42.92238" lon="-8.25791">
        <ele>372.5</ele>
        <time>2016-07-19T06:46:29Z</time>
      </trkpt>
      <trkpt lat="42.92238" lon="-8.25804">
        <ele>372.9</ele>
        <time>2016-07-19T06:46:38Z</time>
      </trkpt>
      <trkpt lat="42.9224" lon="-8.25817">
        <ele>373.2</ele>
        <time>2016-07-19T06:46:47Z</time>
      </trkpt>
      <trkpt lat="42.92239" lon="-8.25831">
        <ele>373.3</ele>
        <time>2016-07-19T06:46:59Z</time>
      </trkpt>
      <trkpt lat="42.92241" lon="-8.25844">
        <ele>373.2</ele>
        <time>2016-07-19T06:47:08Z</time>
      </trkpt>
      <trkpt lat="42.92241" lon="-8.25856">
        <ele>373.8</ele>
        <time>2016-07-19T06:47:17Z</time>
      </trkpt>
      <trkpt lat="42.92238" lon="-8.25868">
        <ele>373.6</ele>
        <time>2016-07-19T06:47:27Z</time>
      </trkpt>
      <trkpt lat="42.92234" lon="-8.2588">
        <ele>373.5</ele>
        <time>2016-07-19T06:47:38Z</time>
      </trkpt>
      <trkpt lat="42.92235" lon="-8.25893">
        <ele>372.9</ele>
        <time>2016-07-19T06:47:48Z</time>
      </trkpt>
      <trkpt lat="42.92234" lon="-8.25906">
        <ele>372.8</ele>
        <time>2016-07-19T06:47:56Z</time>
      </trkpt>
      <trkpt lat="42.92231" lon="-8.25917">
        <ele>373.1</ele>
        <time>2016-07-19T06:48:05Z</time>
      </trkpt>
      <trkpt lat="42.92229" lon="-8.2593">
        <ele>373</ele>
        <time>2016-07-19T06:48:13Z</time>
      </trkpt>
      <trkpt lat="42.92229" lon="-8.25943">
        <ele>372.7</ele>
        <time>2016-07-19T06:48:20Z</time>
      </trkpt>
      <trkpt lat="42.92228" lon="-8.25956">
        <ele>372.5</ele>
        <time>2016-07-19T06:48:27Z</time>
      </trkpt>
      <trkpt lat="42.92227" lon="-8.25968">
        <ele>372.4</ele>
        <time>2016-07-19T06:48:34Z</time>
      </trkpt>
      <trkpt lat="42.92226" lon="-8.25982">
        <ele>371.9</ele>
        <time>2016-07-19T06:48:44Z</time>
      </trkpt>
      <trkpt lat="42.92227" lon="-8.25996">
        <ele>371.4</ele>
        <time>2016-07-19T06:48:52Z</time>
      </trkpt>
      <trkpt lat="42.92227" lon="-8.2601">
        <ele>370.8</ele>
        <time>2016-07-19T06:49:01Z</time>
      </trkpt>
      <trkpt lat="42.9223" lon="-8.26022">
        <ele>370.6</ele>
        <time>2016-07-19T06:49:09Z</time>
      </trkpt>
      <trkpt lat="42.92232" lon="-8.26035">
        <ele>370.3</ele>
        <time>2016-07-19T06:49:17Z</time>
      </trkpt>
      <trkpt lat="42.92234" lon="-8.26047">
        <ele>370</ele>
        <time>2016-07-19T06:49:25Z</time>
      </trkpt>
      <trkpt lat="42.92236" lon="-8.2606">
        <ele>369.7</ele>
        <time>2016-07-19T06:49:32Z</time>
      </trkpt>
      <trkpt lat="42.92238" lon="-8.26073">
        <ele>369</ele>
        <time>2016-07-19T06:49:40Z</time>
      </trkpt>
      <trkpt lat="42.92239" lon="-8.26086">
        <ele>368.5</ele>
        <time>2016-07-19T06:49:47Z</time>
      </trkpt>
      <trkpt lat="42.9224" lon="-8.26099">
        <ele>368.3</ele>
        <time>2016-07-19T06:49:55Z</time>
      </trkpt>
      <trkpt lat="42.92242" lon="-8.26112">
        <ele>368.1</ele>
        <time>2016-07-19T06:50:04Z</time>
      </trkpt>
      <trkpt lat="42.92243" lon="-8.26125">
        <ele>367.9</ele>
        <time>2016-07-19T06:50:13Z</time>
      </trkpt>
      <trkpt lat="42.92243" lon="-8.26138">
        <ele>367.6</ele>
        <time>2016-07-19T06:50:22Z</time>
      </trkpt>
      <trkpt lat="42.92246" lon="-8.2615">
        <ele>366.9</ele>
        <time>2016-07-19T06:50:32Z</time>
      </trkpt>
      <trkpt lat="42.92251" lon="-8.26161">
        <ele>365.8</ele>
        <time>2016-07-19T06:50:41Z</time>
      </trkpt>
      <trkpt lat="42.92257" lon="-8.26171">
        <ele>365</ele>
        <time>2016-07-19T06:50:50Z</time>
      </trkpt>
      <trkpt lat="42.92263" lon="-8.2618">
        <ele>364.7</ele>
        <time>2016-07-19T06:50:59Z</time>
      </trkpt>
      <trkpt lat="42.92269" lon="-8.26192">
        <ele>364.4</ele>
        <time>2016-07-19T06:51:08Z</time>
      </trkpt>
      <trkpt lat="42.92273" lon="-8.26204">
        <ele>364.2</ele>
        <time>2016-07-19T06:51:16Z</time>
      </trkpt>
      <trkpt lat="42.92275" lon="-8.26217">
        <ele>363.9</ele>
        <time>2016-07-19T06:51:25Z</time>
      </trkpt>
      <trkpt lat="42.92278" lon="-8.26229">
        <ele>363.6</ele>
        <time>2016-07-19T06:51:34Z</time>
      </trkpt>
      <trkpt lat="42.92282" lon="-8.26241">
        <ele>362.8</ele>
        <time>2016-07-19T06:51:42Z</time>
      </trkpt>
      <trkpt lat="42.92286" lon="-8.26253">
        <ele>361.6</ele>
        <time>2016-07-19T06:51:51Z</time>
      </trkpt>
      <trkpt lat="42.92292" lon="-8.26264">
        <ele>359.8</ele>
        <time>2016-07-19T06:52:01Z</time>
      </trkpt>
      <trkpt lat="42.92296" lon="-8.26275">
        <ele>358.8</ele>
        <time>2016-07-19T06:52:11Z</time>
      </trkpt>
      <trkpt lat="42.92301" lon="-8.26287">
        <ele>358.3</ele>
        <time>2016-07-19T06:52:19Z</time>
      </trkpt>
      <trkpt lat="42.92304" lon="-8.26299">
        <ele>358</ele>
        <time>2016-07-19T06:52:26Z</time>
      </trkpt>
      <trkpt lat="42.92306" lon="-8.26312">
        <ele>357.8</ele>
        <time>2016-07-19T06:52:33Z</time>
      </trkpt>
      <trkpt lat="42.92308" lon="-8.26326">
        <ele>357.6</ele>
        <time>2016-07-19T06:52:40Z</time>
      </trkpt>
      <trkpt lat="42.92309" lon="-8.2634">
        <ele>357.4</ele>
        <time>2016-07-19T06:52:47Z</time>
      </trkpt>
      <trkpt lat="42.92313" lon="-8.26352">
        <ele>357.2</ele>
        <time>2016-07-19T06:52:55Z</time>
      </trkpt>
      <trkpt lat="42.92315" lon="-8.26365">
        <ele>357</ele>
        <time>2016-07-19T06:53:05Z</time>
      </trkpt>
      <trkpt lat="42.92318" lon="-8.26377">
        <ele>357</ele>
        <time>2016-07-19T06:53:14Z</time>
      </trkpt>
      <trkpt lat="42.92324" lon="-8.26388">
        <ele>357.2</ele>
        <time>2016-07-19T06:53:23Z</time>
      </trkpt>
      <trkpt lat="42.92327" lon="-8.26401">
        <ele>357.1</ele>
        <time>2016-07-19T06:53:32Z</time>
      </trkpt>
      <trkpt lat="42.9233" lon="-8.26414">
        <ele>357</ele>
        <time>2016-07-19T06:53:41Z</time>
      </trkpt>
      <trkpt lat="42.92332" lon="-8.26426">
        <ele>356.9</ele>
        <time>2016-07-19T06:53:48Z</time>
      </trkpt>
      <trkpt lat="42.92335" lon="-8.26439">
        <ele>356.8</ele>
        <time>2016-07-19T06:53:55Z</time>
      </trkpt>
      <trkpt lat="42.9234" lon="-8.26452">
        <ele>356.8</ele>
        <time>2016-07-19T06:54:03Z</time>
      </trkpt>
      <trkpt lat="42.92343" lon="-8.26463">
        <ele>357</ele>
        <time>2016-07-19T06:54:11Z</time>
      </trkpt>
      <trkpt lat="42.92345" lon="-8.26476">
        <ele>357.6</ele>
        <time>2016-07-19T06:54:35Z</time>
      </trkpt>
      <trkpt lat="42.92349" lon="-8.26488">
        <ele>357.4</ele>
        <time>2016-07-19T06:54:43Z</time>
      </trkpt>
      <trkpt lat="42.92353" lon="-8.26499">
        <ele>357.5</ele>
        <time>2016-07-19T06:54:50Z</time>
      </trkpt>
      <trkpt lat="42.92353" lon="-8.26511">
        <ele>358.4</ele>
        <time>2016-07-19T06:55:21Z</time>
      </trkpt>
      <trkpt lat="42.92357" lon="-8.26524">
        <ele>357.8</ele>
        <time>2016-07-19T06:55:31Z</time>
      </trkpt>
      <trkpt lat="42.92356" lon="-8.26536">
        <ele>357.4</ele>
        <time>2016-07-19T06:55:55Z</time>
      </trkpt>
      <trkpt lat="42.92359" lon="-8.26549">
        <ele>357.3</ele>
        <time>2016-07-19T06:56:10Z</time>
      </trkpt>
      <trkpt lat="42.9236" lon="-8.26561">
        <ele>357.5</ele>
        <time>2016-07-19T06:56:21Z</time>
      </trkpt>
      <trkpt lat="42.92359" lon="-8.26575">
        <ele>357.7</ele>
        <time>2016-07-19T06:56:32Z</time>
      </trkpt>
      <trkpt lat="42.92359" lon="-8.26587">
        <ele>357.9</ele>
        <time>2016-07-19T06:56:43Z</time>
      </trkpt>
      <trkpt lat="42.92357" lon="-8.26599">
        <ele>357.9</ele>
        <time>2016-07-19T06:56:57Z</time>
      </trkpt>
      <trkpt lat="42.92353" lon="-8.26611">
        <ele>358.2</ele>
        <time>2016-07-19T06:57:10Z</time>
      </trkpt>
      <trkpt lat="42.92349" lon="-8.26623">
        <ele>359.1</ele>
        <time>2016-07-19T06:57:21Z</time>
      </trkpt>
      <trkpt lat="42.92345" lon="-8.26636">
        <ele>359.9</ele>
        <time>2016-07-19T06:57:31Z</time>
      </trkpt>
      <trkpt lat="42.92344" lon="-8.26648">
        <ele>359.9</ele>
        <time>2016-07-19T06:57:39Z</time>
      </trkpt>
      <trkpt lat="42.92344" lon="-8.26661">
        <ele>360.1</ele>
        <time>2016-07-19T06:57:47Z</time>
      </trkpt>
      <trkpt lat="42.92345" lon="-8.26674">
        <ele>360.3</ele>
        <time>2016-07-19T06:57:56Z</time>
      </trkpt>
      <trkpt lat="42.92346" lon="-8.26687">
        <ele>360.4</ele>
        <time>2016-07-19T06:58:04Z</time>
      </trkpt>
      <trkpt lat="42.92349" lon="-8.26699">
        <ele>361.3</ele>
        <time>2016-07-19T06:58:12Z</time>
      </trkpt>
      <trkpt lat="42.92352" lon="-8.26711">
        <ele>361.6</ele>
        <time>2016-07-19T06:58:19Z</time>
      </trkpt>
      <trkpt lat="42.92357" lon="-8.26723">
        <ele>362</ele>
        <time>2016-07-19T06:58:27Z</time>
      </trkpt>
      <trkpt lat="42.92362" lon="-8.26734">
        <ele>362.6</ele>
        <time>2016-07-19T06:58:36Z</time>
      </trkpt>
      <trkpt lat="42.92367" lon="-8.26745">
        <ele>363.3</ele>
        <time>2016-07-19T06:58:44Z</time>
      </trkpt>
      <trkpt lat="42.92373" lon="-8.26755">
        <ele>363.8</ele>
        <time>2016-07-19T06:58:52Z</time>
      </trkpt>
      <trkpt lat="42.9238" lon="-8.26766">
        <ele>364</ele>
        <time>2016-07-19T06:59:00Z</time>
      </trkpt>
      <trkpt lat="42.92387" lon="-8.26776">
        <ele>364.1</ele>
        <time>2016-07-19T06:59:08Z</time>
      </trkpt>
      <trkpt lat="42.92393" lon="-8.26787">
        <ele>364.5</ele>
        <time>2016-07-19T06:59:16Z</time>
      </trkpt>
      <trkpt lat="42.924" lon="-8.26796">
        <ele>364.9</ele>
        <time>2016-07-19T06:59:25Z</time>
      </trkpt>
      <trkpt lat="42.92407" lon="-8.26805">
        <ele>365.4</ele>
        <time>2016-07-19T06:59:35Z</time>
      </trkpt>
      <trkpt lat="42.92413" lon="-8.26815">
        <ele>365.7</ele>
        <time>2016-07-19T06:59:45Z</time>
      </trkpt>
      <trkpt lat="42.9242" lon="-8.26825">
        <ele>365.9</ele>
        <time>2016-07-19T06:59:52Z</time>
      </trkpt>
      <trkpt lat="42.92428" lon="-8.26831">
        <ele>366.5</ele>
        <time>2016-07-19T07:00:01Z</time>
      </trkpt>
      <trkpt lat="42.92435" lon="-8.2684">
        <ele>367.3</ele>
        <time>2016-07-19T07:00:14Z</time>
      </trkpt>
      <trkpt lat="42.92442" lon="-8.26848">
        <ele>368</ele>
        <time>2016-07-19T07:00:22Z</time>
      </trkpt>
      <trkpt lat="42.92451" lon="-8.26854">
        <ele>368.5</ele>
        <time>2016-07-19T07:00:31Z</time>
      </trkpt>
      <trkpt lat="42.92459" lon="-8.26862">
        <ele>368.7</ele>
        <time>2016-07-19T07:00:39Z</time>
      </trkpt>
      <trkpt lat="42.92467" lon="-8.26869">
        <ele>369</ele>
        <time>2016-07-19T07:00:48Z</time>
      </trkpt>
      <trkpt lat="42.92473" lon="-8.26878">
        <ele>369.3</ele>
        <time>2016-07-19T07:00:57Z</time>
      </trkpt>
      <trkpt lat="42.92479" lon="-8.26888">
        <ele>369.6</ele>
        <time>2016-07-19T07:01:05Z</time>
      </trkpt>
      <trkpt lat="42.92484" lon="-8.26899">
        <ele>369.7</ele>
        <time>2016-07-19T07:01:13Z</time>
      </trkpt>
      <trkpt lat="42.92488" lon="-8.2691">
        <ele>369.8</ele>
        <time>2016-07-19T07:01:22Z</time>
      </trkpt>
      <trkpt lat="42.92492" lon="-8.26921">
        <ele>369.9</ele>
        <time>2016-07-19T07:01:31Z</time>
      </trkpt>
      <trkpt lat="42.92494" lon="-8.26934">
        <ele>369.6</ele>
        <time>2016-07-19T07:01:41Z</time>
      </trkpt>
      <trkpt lat="42.92496" lon="-8.26947">
        <ele>369.5</ele>
        <time>2016-07-19T07:01:49Z</time>
      </trkpt>
      <trkpt lat="42.92499" lon="-8.2696">
        <ele>369.1</ele>
        <time>2016-07-19T07:01:57Z</time>
      </trkpt>
      <trkpt lat="42.925" lon="-8.26973">
        <ele>368.7</ele>
        <time>2016-07-19T07:02:05Z</time>
      </trkpt>
      <trkpt lat="42.92502" lon="-8.26986">
        <ele>368.5</ele>
        <time>2016-07-19T07:02:12Z</time>
      </trkpt>
      <trkpt lat="42.92505" lon="-8.26998">
        <ele>368.2</ele>
        <time>2016-07-19T07:02:19Z</time>
      </trkpt>
      <trkpt lat="42.92507" lon="-8.27011">
        <ele>368.4</ele>
        <time>2016-07-19T07:02:27Z</time>
      </trkpt>
      <trkpt lat="42.9251" lon="-8.27024">
        <ele>368.2</ele>
        <time>2016-07-19T07:02:35Z</time>
      </trkpt>
      <trkpt lat="42.92513" lon="-8.27035">
        <ele>368.1</ele>
        <time>2016-07-19T07:02:42Z</time>
      </trkpt>
      <trkpt lat="42.92515" lon="-8.27047">
        <ele>368</ele>
        <time>2016-07-19T07:02:51Z</time>
      </trkpt>
      <trkpt lat="42.92517" lon="-8.2706">
        <ele>368</ele>
        <time>2016-07-19T07:02:59Z</time>
      </trkpt>
      <trkpt lat="42.92521" lon="-8.27072">
        <ele>367.8</ele>
        <time>2016-07-19T07:03:07Z</time>
      </trkpt>
      <trkpt lat="42.92523" lon="-8.27084">
        <ele>367.9</ele>
        <time>2016-07-19T07:03:16Z</time>
      </trkpt>
      <trkpt lat="42.92524" lon="-8.27097">
        <ele>368</ele>
        <time>2016-07-19T07:03:25Z</time>
      </trkpt>
      <trkpt lat="42.92526" lon="-8.27111">
        <ele>367.9</ele>
        <time>2016-07-19T07:03:34Z</time>
      </trkpt>
      <trkpt lat="42.92527" lon="-8.27123">
        <ele>367.6</ele>
        <time>2016-07-19T07:03:42Z</time>
      </trkpt>
      <trkpt lat="42.92528" lon="-8.27136">
        <ele>367.4</ele>
        <time>2016-07-19T07:03:51Z</time>
      </trkpt>
      <trkpt lat="42.92531" lon="-8.27148">
        <ele>367.4</ele>
        <time>2016-07-19T07:03:59Z</time>
      </trkpt>
      <trkpt lat="42.92532" lon="-8.2716">
        <ele>367.6</ele>
        <time>2016-07-19T07:04:06Z</time>
      </trkpt>
      <trkpt lat="42.92536" lon="-8.27172">
        <ele>367.6</ele>
        <time>2016-07-19T07:04:13Z</time>
      </trkpt>
      <trkpt lat="42.92539" lon="-8.27185">
        <ele>367.6</ele>
        <time>2016-07-19T07:04:21Z</time>
      </trkpt>
      <trkpt lat="42.92541" lon="-8.27197">
        <ele>367.6</ele>
        <time>2016-07-19T07:04:29Z</time>
      </trkpt>
      <trkpt lat="42.92543" lon="-8.27209">
        <ele>367.6</ele>
        <time>2016-07-19T07:04:37Z</time>
      </trkpt>
      <trkpt lat="42.92546" lon="-8.27222">
        <ele>367.4</ele>
        <time>2016-07-19T07:04:45Z</time>
      </trkpt>
      <trkpt lat="42.92548" lon="-8.27234">
        <ele>367.2</ele>
        <time>2016-07-19T07:04:53Z</time>
      </trkpt>
      <trkpt lat="42.9255" lon="-8.27246">
        <ele>367.4</ele>
        <time>2016-07-19T07:05:01Z</time>
      </trkpt>
      <trkpt lat="42.92553" lon="-8.27259">
        <ele>367.6</ele>
        <time>2016-07-19T07:05:08Z</time>
      </trkpt>
      <trkpt lat="42.92556" lon="-8.27272">
        <ele>367.6</ele>
        <time>2016-07-19T07:05:15Z</time>
      </trkpt>
      <trkpt lat="42.92559" lon="-8.27284">
        <ele>367.5</ele>
        <time>2016-07-19T07:05:23Z</time>
      </trkpt>
      <trkpt lat="42.92561" lon="-8.27296">
        <ele>366.8</ele>
        <time>2016-07-19T07:05:32Z</time>
      </trkpt>
      <trkpt lat="42.92563" lon="-8.27309">
        <ele>366.6</ele>
        <time>2016-07-19T07:05:41Z</time>
      </trkpt>
      <trkpt lat="42.92566" lon="-8.2732">
        <ele>366.8</ele>
        <time>2016-07-19T07:05:51Z</time>
      </trkpt>
      <trkpt lat="42.9257" lon="-8.27332">
        <ele>366.6</ele>
        <time>2016-07-19T07:06:01Z</time>
      </trkpt>
      <trkpt lat="42.92571" lon="-8.27345">
        <ele>366.3</ele>
        <time>2016-07-19T07:06:09Z</time>
      </trkpt>
      <trkpt lat="42.92572" lon="-8.27358">
        <ele>366.1</ele>
        <time>2016-07-19T07:06:16Z</time>
      </trkpt>
      <trkpt lat="42.92576" lon="-8.27369">
        <ele>365.7</ele>
        <time>2016-07-19T07:06:24Z</time>
      </trkpt>
      <trkpt lat="42.9258" lon="-8.27381">
        <ele>365.3</ele>
        <time>2016-07-19T07:06:33Z</time>
      </trkpt>
      <trkpt lat="42.92585" lon="-8.27392">
        <ele>365</ele>
        <time>2016-07-19T07:06:41Z</time>
      </trkpt>
      <trkpt lat="42.92589" lon="-8.27403">
        <ele>364.5</ele>
        <time>2016-07-19T07:06:50Z</time>
      </trkpt>
      <trkpt lat="42.92596" lon="-8.27412">
        <ele>364.1</ele>
        <time>2016-07-19T07:06:58Z</time>
      </trkpt>
      <trkpt lat="42.92603" lon="-8.27421">
        <ele>363.9</ele>
        <time>2016-07-19T07:07:06Z</time>
      </trkpt>
      <trkpt lat="42.92609" lon="-8.27431">
        <ele>364.8</ele>
        <time>2016-07-19T07:07:22Z</time>
      </trkpt>
      <trkpt lat="42.92614" lon="-8.27441">
        <ele>365</ele>
        <time>2016-07-19T07:07:30Z</time>
      </trkpt>
      <trkpt lat="42.92618" lon="-8.27453">
        <ele>364.8</ele>
        <time>2016-07-19T07:07:38Z</time>
      </trkpt>
      <trkpt lat="42.92622" lon="-8.27465">
        <ele>364.8</ele>
        <time>2016-07-19T07:07:47Z</time>
      </trkpt>
      <trkpt lat="42.92625" lon="-8.27479">
        <ele>364.9</ele>
        <time>2016-07-19T07:07:56Z</time>
      </trkpt>
      <trkpt lat="42.92627" lon="-8.27491">
        <ele>364.3</ele>
        <time>2016-07-19T07:08:05Z</time>
      </trkpt>
      <trkpt lat="42.92631" lon="-8.27503">
        <ele>364</ele>
        <time>2016-07-19T07:08:14Z</time>
      </trkpt>
      <trkpt lat="42.92634" lon="-8.27516">
        <ele>363.7</ele>
        <time>2016-07-19T07:08:22Z</time>
      </trkpt>
      <trkpt lat="42.92637" lon="-8.27528">
        <ele>364</ele>
        <time>2016-07-19T07:08:30Z</time>
      </trkpt>
      <trkpt lat="42.92639" lon="-8.27541">
        <ele>363.9</ele>
        <time>2016-07-19T07:08:40Z</time>
      </trkpt>
      <trkpt lat="42.92641" lon="-8.27555">
        <ele>363.8</ele>
        <time>2016-07-19T07:08:48Z</time>
      </trkpt>
      <trkpt lat="42.92642" lon="-8.27567">
        <ele>363.7</ele>
        <time>2016-07-19T07:08:57Z</time>
      </trkpt>
      <trkpt lat="42.92644" lon="-8.2758">
        <ele>363.6</ele>
        <time>2016-07-19T07:09:04Z</time>
      </trkpt>
      <trkpt lat="42.92645" lon="-8.27592">
        <ele>363.6</ele>
        <time>2016-07-19T07:09:11Z</time>
      </trkpt>
      <trkpt lat="42.92647" lon="-8.27604">
        <ele>363.4</ele>
        <time>2016-07-19T07:09:21Z</time>
      </trkpt>
      <trkpt lat="42.92647" lon="-8.27617">
        <ele>363.1</ele>
        <time>2016-07-19T07:09:29Z</time>
      </trkpt>
      <trkpt lat="42.92648" lon="-8.2763">
        <ele>362.7</ele>
        <time>2016-07-19T07:09:37Z</time>
      </trkpt>
      <trkpt lat="42.92649" lon="-8.27642">
        <ele>362.6</ele>
        <time>2016-07-19T07:09:45Z</time>
      </trkpt>
      <trkpt lat="42.92649" lon="-8.27656">
        <ele>362.1</ele>
        <time>2016-07-19T07:09:54Z</time>
      </trkpt>
      <trkpt lat="42.92649" lon="-8.27669">
        <ele>361.7</ele>
        <time>2016-07-19T07:10:02Z</time>
      </trkpt>
      <trkpt lat="42.9265" lon="-8.27681">
        <ele>361.6</ele>
        <time>2016-07-19T07:10:10Z</time>
      </trkpt>
      <trkpt lat="42.92648" lon="-8.27694">
        <ele>361.2</ele>
        <time>2016-07-19T07:10:19Z</time>
      </trkpt>
      <trkpt lat="42.92647" lon="-8.27708">
        <ele>360.6</ele>
        <time>2016-07-19T07:10:28Z</time>
      </trkpt>
      <trkpt lat="42.92644" lon="-8.27721">
        <ele>360.3</ele>
        <time>2016-07-19T07:10:37Z</time>
      </trkpt>
      <trkpt lat="42.92643" lon="-8.27734">
        <ele>360</ele>
        <time>2016-07-19T07:10:46Z</time>
      </trkpt>
      <trkpt lat="42.92637" lon="-8.27744">
        <ele>359.4</ele>
        <time>2016-07-19T07:10:57Z</time>
      </trkpt>
      <trkpt lat="42.92632" lon="-8.27756">
        <ele>359.4</ele>
        <time>2016-07-19T07:11:05Z</time>
      </trkpt>
      <trkpt lat="42.92631" lon="-8.27769">
        <ele>359.6</ele>
        <time>2016-07-19T07:11:13Z</time>
      </trkpt>
      <trkpt lat="42.9263" lon="-8.27783">
        <ele>358.6</ele>
        <time>2016-07-19T07:11:22Z</time>
      </trkpt>
      <trkpt lat="42.9263" lon="-8.27796">
        <ele>358.3</ele>
        <time>2016-07-19T07:11:29Z</time>
      </trkpt>
      <trkpt lat="42.92631" lon="-8.27809">
        <ele>358</ele>
        <time>2016-07-19T07:11:36Z</time>
      </trkpt>
      <trkpt lat="42.92631" lon="-8.27822">
        <ele>357.6</ele>
        <time>2016-07-19T07:11:44Z</time>
      </trkpt>
      <trkpt lat="42.92631" lon="-8.27835">
        <ele>357.5</ele>
        <time>2016-07-19T07:11:52Z</time>
      </trkpt>
      <trkpt lat="42.9263" lon="-8.27849">
        <ele>357.6</ele>
        <time>2016-07-19T07:11:59Z</time>
      </trkpt>
      <trkpt lat="42.92629" lon="-8.27861">
        <ele>357.5</ele>
        <time>2016-07-19T07:12:07Z</time>
      </trkpt>
      <trkpt lat="42.9263" lon="-8.27874">
        <ele>357.3</ele>
        <time>2016-07-19T07:12:14Z</time>
      </trkpt>
      <trkpt lat="42.92632" lon="-8.27887">
        <ele>357.1</ele>
        <time>2016-07-19T07:12:22Z</time>
      </trkpt>
      <trkpt lat="42.92634" lon="-8.27899">
        <ele>357</ele>
        <time>2016-07-19T07:12:29Z</time>
      </trkpt>
      <trkpt lat="42.92635" lon="-8.27912">
        <ele>357</ele>
        <time>2016-07-19T07:12:38Z</time>
      </trkpt>
      <trkpt lat="42.92637" lon="-8.27924">
        <ele>357.1</ele>
        <time>2016-07-19T07:12:47Z</time>
      </trkpt>
      <trkpt lat="42.92639" lon="-8.27936">
        <ele>357</ele>
        <time>2016-07-19T07:12:55Z</time>
      </trkpt>
      <trkpt lat="42.92642" lon="-8.27949">
        <ele>356.9</ele>
        <time>2016-07-19T07:13:03Z</time>
      </trkpt>
      <trkpt lat="42.92644" lon="-8.27961">
        <ele>356.9</ele>
        <time>2016-07-19T07:13:16Z</time>
      </trkpt>
      <trkpt lat="42.92646" lon="-8.27974">
        <ele>357</ele>
        <time>2016-07-19T07:13:29Z</time>
      </trkpt>
      <trkpt lat="42.92647" lon="-8.27987">
        <ele>356.7</ele>
        <time>2016-07-19T07:13:39Z</time>
      </trkpt>
      <trkpt lat="42.92645" lon="-8.28">
        <ele>356.5</ele>
        <time>2016-07-19T07:13:48Z</time>
      </trkpt>
      <trkpt lat="42.92643" lon="-8.28012">
        <ele>356.8</ele>
        <time>2016-07-19T07:13:57Z</time>
      </trkpt>
      <trkpt lat="42.92642" lon="-8.28025">
        <ele>356.6</ele>
        <time>2016-07-19T07:14:05Z</time>
      </trkpt>
      <trkpt lat="42.92641" lon="-8.28038">
        <ele>356.9</ele>
        <time>2016-07-19T07:14:14Z</time>
      </trkpt>
      <trkpt lat="42.9264" lon="-8.28051">
        <ele>356.7</ele>
        <time>2016-07-19T07:14:24Z</time>
      </trkpt>
      <trkpt lat="42.92637" lon="-8.28063">
        <ele>356.6</ele>
        <time>2016-07-19T07:14:32Z</time>
      </trkpt>
      <trkpt lat="42.92634" lon="-8.28075">
        <ele>356.7</ele>
        <time>2016-07-19T07:14:39Z</time>
      </trkpt>
      <trkpt lat="42.92631" lon="-8.28088">
        <ele>356.8</ele>
        <time>2016-07-19T07:14:47Z</time>
      </trkpt>
      <trkpt lat="42.92631" lon="-8.281">
        <ele>356.9</ele>
        <time>2016-07-19T07:14:55Z</time>
      </trkpt>
      <trkpt lat="42.92627" lon="-8.28112">
        <ele>357</ele>
        <time>2016-07-19T07:15:04Z</time>
      </trkpt>
      <trkpt lat="42.92624" lon="-8.28124">
        <ele>357.5</ele>
        <time>2016-07-19T07:15:12Z</time>
      </trkpt>
      <trkpt lat="42.92621" lon="-8.28136">
        <ele>357.8</ele>
        <time>2016-07-19T07:15:20Z</time>
      </trkpt>
      <trkpt lat="42.92617" lon="-8.28149">
        <ele>357.9</ele>
        <time>2016-07-19T07:15:29Z</time>
      </trkpt>
      <trkpt lat="42.92614" lon="-8.28161">
        <ele>358</ele>
        <time>2016-07-19T07:15:37Z</time>
      </trkpt>
      <trkpt lat="42.9261" lon="-8.28173">
        <ele>357.9</ele>
        <time>2016-07-19T07:15:46Z</time>
      </trkpt>
      <trkpt lat="42.92606" lon="-8.28185">
        <ele>357.9</ele>
        <time>2016-07-19T07:15:54Z</time>
      </trkpt>
      <trkpt lat="42.92599" lon="-8.28194">
        <ele>358</ele>
        <time>2016-07-19T07:16:01Z</time>
      </trkpt>
      <trkpt lat="42.92593" lon="-8.28205">
        <ele>358.1</ele>
        <time>2016-07-19T07:16:08Z</time>
      </trkpt>
      <trkpt lat="42.92589" lon="-8.28217">
        <ele>358.5</ele>
        <time>2016-07-19T07:16:17Z</time>
      </trkpt>
      <trkpt lat="42.92583" lon="-8.28227">
        <ele>358.9</ele>
        <time>2016-07-19T07:16:26Z</time>
      </trkpt>
      <trkpt lat="42.92578" lon="-8.28237">
        <ele>358.9</ele>
        <time>2016-07-19T07:16:34Z</time>
      </trkpt>
      <trkpt lat="42.92571" lon="-8.28248">
        <ele>358.9</ele>
        <time>2016-07-19T07:16:43Z</time>
      </trkpt>
      <trkpt lat="42.92567" lon="-8.2826">
        <ele>359.3</ele>
        <time>2016-07-19T07:16:52Z</time>
      </trkpt>
      <trkpt lat="42.92563" lon="-8.2827">
        <ele>359.8</ele>
        <time>2016-07-19T07:16:59Z</time>
      </trkpt>
      <trkpt lat="42.92559" lon="-8.28282">
        <ele>360.1</ele>
        <time>2016-07-19T07:17:10Z</time>
      </trkpt>
      <trkpt lat="42.92555" lon="-8.28294">
        <ele>359.9</ele>
        <time>2016-07-19T07:17:18Z</time>
      </trkpt>
      <trkpt lat="42.92554" lon="-8.28307">
        <ele>360.2</ele>
        <time>2016-07-19T07:17:28Z</time>
      </trkpt>
      <trkpt lat="42.9255" lon="-8.28318">
        <ele>360.1</ele>
        <time>2016-07-19T07:17:39Z</time>
      </trkpt>
      <trkpt lat="42.92546" lon="-8.2833">
        <ele>360.7</ele>
        <time>2016-07-19T07:17:48Z</time>
      </trkpt>
      <trkpt lat="42.92545" lon="-8.28343">
        <ele>361.9</ele>
        <time>2016-07-19T07:18:00Z</time>
      </trkpt>
      <trkpt lat="42.92541" lon="-8.28354">
        <ele>362.9</ele>
        <time>2016-07-19T07:18:10Z</time>
      </trkpt>
      <trkpt lat="42.92539" lon="-8.28367">
        <ele>363.5</ele>
        <time>2016-07-19T07:18:19Z</time>
      </trkpt>
      <trkpt lat="42.9254" lon="-8.2838">
        <ele>364.1</ele>
        <time>2016-07-19T07:18:28Z</time>
      </trkpt>
      <trkpt lat="42.92541" lon="-8.28393">
        <ele>365</ele>
        <time>2016-07-19T07:18:39Z</time>
      </trkpt>
      <trkpt lat="42.92543" lon="-8.28406">
        <ele>365.9</ele>
        <time>2016-07-19T07:18:51Z</time>
      </trkpt>
      <trkpt lat="42.92545" lon="-8.28418">
        <ele>366.5</ele>
        <time>2016-07-19T07:19:00Z</time>
      </trkpt>
      <trkpt lat="42.92548" lon="-8.28431">
        <ele>367.3</ele>
        <time>2016-07-19T07:19:07Z</time>
      </trkpt>
      <trkpt lat="42.92548" lon="-8.28443">
        <ele>367.8</ele>
        <time>2016-07-19T07:19:15Z</time>
      </trkpt>
      <trkpt lat="42.92546" lon="-8.28455">
        <ele>368.2</ele>
        <time>2016-07-19T07:19:24Z</time>
      </trkpt>
      <trkpt lat="42.92543" lon="-8.28468">
        <ele>368.9</ele>
        <time>2016-07-19T07:19:33Z</time>
      </trkpt>
      <trkpt lat="42.92542" lon="-8.28481">
        <ele>369.4</ele>
        <time>2016-07-19T07:19:43Z</time>
      </trkpt>
      <trkpt lat="42.92539" lon="-8.28493">
        <ele>370.5</ele>
        <time>2016-07-19T07:19:54Z</time>
      </trkpt>
      <trkpt lat="42.92538" lon="-8.28506">
        <ele>372</ele>
        <time>2016-07-19T07:20:15Z</time>
      </trkpt>
      <trkpt lat="42.92538" lon="-8.28519">
        <ele>372.5</ele>
        <time>2016-07-19T07:20:26Z</time>
      </trkpt>
      <trkpt lat="42.92536" lon="-8.28531">
        <ele>373.2</ele>
        <time>2016-07-19T07:20:38Z</time>
      </trkpt>
      <trkpt lat="42.92533" lon="-8.28544">
        <ele>373.8</ele>
        <time>2016-07-19T07:20:48Z</time>
      </trkpt>
      <trkpt lat="42.9253" lon="-8.28557">
        <ele>374.2</ele>
        <time>2016-07-19T07:20:58Z</time>
      </trkpt>
      <trkpt lat="42.92526" lon="-8.28569">
        <ele>374.4</ele>
        <time>2016-07-19T07:21:08Z</time>
      </trkpt>
      <trkpt lat="42.92523" lon="-8.2858">
        <ele>374.8</ele>
        <time>2016-07-19T07:21:17Z</time>
      </trkpt>
      <trkpt lat="42.92522" lon="-8.28592">
        <ele>375.5</ele>
        <time>2016-07-19T07:21:26Z</time>
      </trkpt>
      <trkpt lat="42.9252" lon="-8.28605">
        <ele>376.2</ele>
        <time>2016-07-19T07:21:35Z</time>
      </trkpt>
      <trkpt lat="42.9252" lon="-8.28618">
        <ele>376.6</ele>
        <time>2016-07-19T07:21:44Z</time>
      </trkpt>
      <trkpt lat="42.92519" lon="-8.28631">
        <ele>377.1</ele>
        <time>2016-07-19T07:21:53Z</time>
      </trkpt>
      <trkpt lat="42.92519" lon="-8.28644">
        <ele>377.5</ele>
        <time>2016-07-19T07:22:02Z</time>
      </trkpt>
      <trkpt lat="42.9252" lon="-8.28657">
        <ele>377.6</ele>
        <time>2016-07-19T07:22:10Z</time>
      </trkpt>
      <trkpt lat="42.92522" lon="-8.28669">
        <ele>377.7</ele>
        <time>2016-07-19T07:22:17Z</time>
      </trkpt>
      <trkpt lat="42.92521" lon="-8.28682">
        <ele>377.8</ele>
        <time>2016-07-19T07:22:23Z</time>
      </trkpt>
      <trkpt lat="42.9252" lon="-8.28695">
        <ele>377.7</ele>
        <time>2016-07-19T07:22:30Z</time>
      </trkpt>
      <trkpt lat="42.92518" lon="-8.28707">
        <ele>377.5</ele>
        <time>2016-07-19T07:22:37Z</time>
      </trkpt>
      <trkpt lat="42.92515" lon="-8.2872">
        <ele>377.2</ele>
        <time>2016-07-19T07:22:47Z</time>
      </trkpt>
      <trkpt lat="42.92512" lon="-8.28732">
        <ele>377.2</ele>
        <time>2016-07-19T07:22:58Z</time>
      </trkpt>
      <trkpt lat="42.9251" lon="-8.28745">
        <ele>377.1</ele>
        <time>2016-07-19T07:23:06Z</time>
      </trkpt>
      <trkpt lat="42.92506" lon="-8.28757">
        <ele>377.3</ele>
        <time>2016-07-19T07:23:15Z</time>
      </trkpt>
      <trkpt lat="42.92502" lon="-8.28769">
        <ele>377.4</ele>
        <time>2016-07-19T07:23:23Z</time>
      </trkpt>
      <trkpt lat="42.92499" lon="-8.28782">
        <ele>377.4</ele>
        <time>2016-07-19T07:23:31Z</time>
      </trkpt>
      <trkpt lat="42.92496" lon="-8.28794">
        <ele>377.4</ele>
        <time>2016-07-19T07:23:39Z</time>
      </trkpt>
      <trkpt lat="42.92494" lon="-8.28808">
        <ele>377.3</ele>
        <time>2016-07-19T07:23:48Z</time>
      </trkpt>
      <trkpt lat="42.92491" lon="-8.28822">
        <ele>377.3</ele>
        <time>2016-07-19T07:23:57Z</time>
      </trkpt>
      <trkpt lat="42.92488" lon="-8.28835">
        <ele>377.3</ele>
        <time>2016-07-19T07:24:05Z</time>
      </trkpt>
      <trkpt lat="42.92483" lon="-8.28847">
        <ele>377.3</ele>
        <time>2016-07-19T07:24:13Z</time>
      </trkpt>
      <trkpt lat="42.92478" lon="-8.28858">
        <ele>377.3</ele>
        <time>2016-07-19T07:24:21Z</time>
      </trkpt>
      <trkpt lat="42.92472" lon="-8.2887">
        <ele>377.2</ele>
        <time>2016-07-19T07:24:30Z</time>
      </trkpt>
      <trkpt lat="42.92467" lon="-8.2888">
        <ele>377.1</ele>
        <time>2016-07-19T07:24:39Z</time>
      </trkpt>
      <trkpt lat="42.92461" lon="-8.2889">
        <ele>377</ele>
        <time>2016-07-19T07:24:46Z</time>
      </trkpt>
      <trkpt lat="42.92457" lon="-8.28902">
        <ele>376.7</ele>
        <time>2016-07-19T07:24:55Z</time>
      </trkpt>
      <trkpt lat="42.92453" lon="-8.28915">
        <ele>376.9</ele>
        <time>2016-07-19T07:25:03Z</time>
      </trkpt>
      <trkpt lat="42.9245" lon="-8.28928">
        <ele>376.9</ele>
        <time>2016-07-19T07:25:11Z</time>
      </trkpt>
      <trkpt lat="42.92448" lon="-8.28941">
        <ele>377.3</ele>
        <time>2016-07-19T07:25:20Z</time>
      </trkpt>
      <trkpt lat="42.92444" lon="-8.28953">
        <ele>377.5</ele>
        <time>2016-07-19T07:25:29Z</time>
      </trkpt>
      <trkpt lat="42.92441" lon="-8.28966">
        <ele>377.8</ele>
        <time>2016-07-19T07:25:39Z</time>
      </trkpt>
      <trkpt lat="42.92437" lon="-8.28978">
        <ele>378.2</ele>
        <time>2016-07-19T07:25:48Z</time>
      </trkpt>
      <trkpt lat="42.92433" lon="-8.28989">
        <ele>378.4</ele>
        <time>2016-07-19T07:25:57Z</time>
      </trkpt>
      <trkpt lat="42.9243" lon="-8.29001">
        <ele>378.7</ele>
        <time>2016-07-19T07:26:06Z</time>
      </trkpt>
      <trkpt lat="42.92425" lon="-8.29012">
        <ele>378.9</ele>
        <time>2016-07-19T07:26:15Z</time>
      </trkpt>
      <trkpt lat="42.92419" lon="-8.29021">
        <ele>379.1</ele>
        <time>2016-07-19T07:26:29Z</time>
      </trkpt>
      <trkpt lat="42.92411" lon="-8.29028">
        <ele>379.5</ele>
        <time>2016-07-19T07:26:40Z</time>
      </trkpt>
      <trkpt lat="42.92404" lon="-8.29038">
        <ele>379.5</ele>
        <time>2016-07-19T07:26:50Z</time>
      </trkpt>
      <trkpt lat="42.92398" lon="-8.29048">
        <ele>380</ele>
        <time>2016-07-19T07:27:00Z</time>
      </trkpt>
      <trkpt lat="42.92392" lon="-8.29057">
        <ele>379.8</ele>
        <time>2016-07-19T07:27:09Z</time>
      </trkpt>
      <trkpt lat="42.92385" lon="-8.29067">
        <ele>379.7</ele>
        <time>2016-07-19T07:27:18Z</time>
      </trkpt>
      <trkpt lat="42.92379" lon="-8.29076">
        <ele>379.6</ele>
        <time>2016-07-19T07:27:26Z</time>
      </trkpt>
      <trkpt lat="42.92373" lon="-8.29087">
        <ele>379.6</ele>
        <time>2016-07-19T07:27:35Z</time>
      </trkpt>
      <trkpt lat="42.92367" lon="-8.29096">
        <ele>379.8</ele>
        <time>2016-07-19T07:27:44Z</time>
      </trkpt>
      <trkpt lat="42.92362" lon="-8.29107">
        <ele>379.9</ele>
        <time>2016-07-19T07:27:53Z</time>
      </trkpt>
      <trkpt lat="42.92356" lon="-8.29118">
        <ele>380.2</ele>
        <time>2016-07-19T07:28:03Z</time>
      </trkpt>
      <trkpt lat="42.92349" lon="-8.29126">
        <ele>380.7</ele>
        <time>2016-07-19T07:28:13Z</time>
      </trkpt>
      <trkpt lat="42.92344" lon="-8.29137">
        <ele>381.2</ele>
        <time>2016-07-19T07:28:22Z</time>
      </trkpt>
      <trkpt lat="42.92339" lon="-8.29147">
        <ele>381.4</ele>
        <time>2016-07-19T07:28:31Z</time>
      </trkpt>
      <trkpt lat="42.92333" lon="-8.29157">
        <ele>381.7</ele>
        <time>2016-07-19T07:28:40Z</time>
      </trkpt>
      <trkpt lat="42.92327" lon="-8.29167">
        <ele>382.1</ele>
        <time>2016-07-19T07:28:49Z</time>
      </trkpt>
      <trkpt lat="42.92324" lon="-8.29179">
        <ele>383.1</ele>
        <time>2016-07-19T07:28:59Z</time>
      </trkpt>
      <trkpt lat="42.92319" lon="-8.29191">
        <ele>384.1</ele>
        <time>2016-07-19T07:29:07Z</time>
      </trkpt>
      <trkpt lat="42.92315" lon="-8.29202">
        <ele>384.9</ele>
        <time>2016-07-19T07:29:14Z</time>
      </trkpt>
      <trkpt lat="42.9231" lon="-8.29214">
        <ele>385.7</ele>
        <time>2016-07-19T07:29:21Z</time>
      </trkpt>
      <trkpt lat="42.92307" lon="-8.29226">
        <ele>386.1</ele>
        <time>2016-07-19T07:29:29Z</time>
      </trkpt>
      <trkpt lat="42.92303" lon="-8.29237">
        <ele>386.4</ele>
        <time>2016-07-19T07:29:38Z</time>
      </trkpt>
      <trkpt lat="42.92298" lon="-8.29248">
        <ele>386.9</ele>
        <time>2016-07-19T07:29:46Z</time>
      </trkpt>
      <trkpt lat="42.92292" lon="-8.29258">
        <ele>387.3</ele>
        <time>2016-07-19T07:29:55Z</time>
      </trkpt>
      <trkpt lat="42.92287" lon="-8.29268">
        <ele>387.9</ele>
        <time>2016-07-19T07:30:04Z</time>
      </trkpt>
      <trkpt lat="42.92281" lon="-8.29279">
        <ele>388.5</ele>
        <time>2016-07-19T07:30:16Z</time>
      </trkpt>
      <trkpt lat="42.92273" lon="-8.29288">
        <ele>388.6</ele>
        <time>2016-07-19T07:30:24Z</time>
      </trkpt>
      <trkpt lat="42.92272" lon="-8.293">
        <ele>388.8</ele>
        <time>2016-07-19T07:30:34Z</time>
      </trkpt>
      <trkpt lat="42.92268" lon="-8.29312">
        <ele>389.5</ele>
        <time>2016-07-19T07:30:42Z</time>
      </trkpt>
      <trkpt lat="42.92265" lon="-8.29325">
        <ele>390</ele>
        <time>2016-07-19T07:30:51Z</time>
      </trkpt>
      <trkpt lat="42.92263" lon="-8.29337">
        <ele>390.5</ele>
        <time>2016-07-19T07:31:00Z</time>
      </trkpt>
      <trkpt lat="42.9226" lon="-8.29351">
        <ele>390.9</ele>
        <time>2016-07-19T07:31:08Z</time>
      </trkpt>
      <trkpt lat="42.92256" lon="-8.29363">
        <ele>391.4</ele>
        <time>2016-07-19T07:31:17Z</time>
      </trkpt>
      <trkpt lat="42.92251" lon="-8.29374">
        <ele>391.6</ele>
        <time>2016-07-19T07:31:26Z</time>
      </trkpt>
      <trkpt lat="42.92246" lon="-8.29385">
        <ele>391.8</ele>
        <time>2016-07-19T07:31:34Z</time>
      </trkpt>
      <trkpt lat="42.9224" lon="-8.29395">
        <ele>391.9</ele>
        <time>2016-07-19T07:31:44Z</time>
      </trkpt>
      <trkpt lat="42.92235" lon="-8.29405">
        <ele>391.9</ele>
        <time>2016-07-19T07:31:52Z</time>
      </trkpt>
      <trkpt lat="42.9223" lon="-8.29416">
        <ele>392.2</ele>
        <time>2016-07-19T07:32:00Z</time>
      </trkpt>
      <trkpt lat="42.92224" lon="-8.29427">
        <ele>392.4</ele>
        <time>2016-07-19T07:32:09Z</time>
      </trkpt>
      <trkpt lat="42.9222" lon="-8.29439">
        <ele>392.6</ele>
        <time>2016-07-19T07:32:18Z</time>
      </trkpt>
      <trkpt lat="42.92215" lon="-8.2945">
        <ele>392.9</ele>
        <time>2016-07-19T07:32:26Z</time>
      </trkpt>
      <trkpt lat="42.92208" lon="-8.2946">
        <ele>392.7</ele>
        <time>2016-07-19T07:32:35Z</time>
      </trkpt>
      <trkpt lat="42.92202" lon="-8.2947">
        <ele>392.5</ele>
        <time>2016-07-19T07:32:43Z</time>
      </trkpt>
      <trkpt lat="42.92196" lon="-8.29479">
        <ele>392.1</ele>
        <time>2016-07-19T07:32:52Z</time>
      </trkpt>
      <trkpt lat="42.92189" lon="-8.29488">
        <ele>391.6</ele>
        <time>2016-07-19T07:33:00Z</time>
      </trkpt>
      <trkpt lat="42.92183" lon="-8.29499">
        <ele>390.9</ele>
        <time>2016-07-19T07:33:10Z</time>
      </trkpt>
      <trkpt lat="42.92177" lon="-8.29508">
        <ele>390.5</ele>
        <time>2016-07-19T07:33:17Z</time>
      </trkpt>
      <trkpt lat="42.92172" lon="-8.29519">
        <ele>390.1</ele>
        <time>2016-07-19T07:33:27Z</time>
      </trkpt>
      <trkpt lat="42.92169" lon="-8.29532">
        <ele>389.3</ele>
        <time>2016-07-19T07:33:36Z</time>
      </trkpt>
      <trkpt lat="42.92164" lon="-8.29542">
        <ele>388.7</ele>
        <time>2016-07-19T07:33:43Z</time>
      </trkpt>
      <trkpt lat="42.92159" lon="-8.29552">
        <ele>388.2</ele>
        <time>2016-07-19T07:33:51Z</time>
      </trkpt>
      <trkpt lat="42.92155" lon="-8.29564">
        <ele>387.7</ele>
        <time>2016-07-19T07:34:01Z</time>
      </trkpt>
      <trkpt lat="42.92151" lon="-8.29575">
        <ele>387.4</ele>
        <time>2016-07-19T07:34:10Z</time>
      </trkpt>
      <trkpt lat="42.92145" lon="-8.29586">
        <ele>386.9</ele>
        <time>2016-07-19T07:34:21Z</time>
      </trkpt>
      <trkpt lat="42.9214" lon="-8.29596">
        <ele>386.6</ele>
        <time>2016-07-19T07:34:31Z</time>
      </trkpt>
      <trkpt lat="42.92133" lon="-8.29606">
        <ele>386</ele>
        <time>2016-07-19T07:34:39Z</time>
      </trkpt>
      <trkpt lat="42.92125" lon="-8.29615">
        <ele>385.6</ele>
        <time>2016-07-19T07:34:47Z</time>
      </trkpt>
      <trkpt lat="42.9212" lon="-8.29625">
        <ele>384.1</ele>
        <time>2016-07-19T07:35:34Z</time>
      </trkpt>
      <trkpt lat="42.92111" lon="-8.29628">
        <ele>382.9</ele>
        <time>2016-07-19T07:40:44Z</time>
      </trkpt>
      <trkpt lat="42.92106" lon="-8.29638">
        <ele>383.7</ele>
        <time>2016-07-19T07:41:14Z</time>
      </trkpt>
      <trkpt lat="42.92112" lon="-8.29629">
        <ele>384.8</ele>
        <time>2016-07-19T07:41:55Z</time>
      </trkpt>
      <trkpt lat="42.92112" lon="-8.29642">
        <ele>383.3</ele>
        <time>2016-07-19T07:43:25Z</time>
      </trkpt>
      <trkpt lat="42.92117" lon="-8.29631">
        <ele>382.7</ele>
        <time>2016-07-19T07:45:26Z</time>
      </trkpt>
      <trkpt lat="42.9211" lon="-8.2964">
        <ele>382.8</ele>
        <time>2016-07-19T07:45:45Z</time>
      </trkpt>
      <trkpt lat="42.92103" lon="-8.29648">
        <ele>382.3</ele>
        <time>2016-07-19T07:45:54Z</time>
      </trkpt>
      <trkpt lat="42.92095" lon="-8.29655">
        <ele>381.6</ele>
        <time>2016-07-19T07:46:04Z</time>
      </trkpt>
      <trkpt lat="42.92087" lon="-8.29663">
        <ele>380.7</ele>
        <time>2016-07-19T07:46:15Z</time>
      </trkpt>
      <trkpt lat="42.92081" lon="-8.29673">
        <ele>380.6</ele>
        <time>2016-07-19T07:46:24Z</time>
      </trkpt>
      <trkpt lat="42.92075" lon="-8.29682">
        <ele>380.5</ele>
        <time>2016-07-19T07:46:35Z</time>
      </trkpt>
      <trkpt lat="42.92068" lon="-8.29691">
        <ele>380</ele>
        <time>2016-07-19T07:46:44Z</time>
      </trkpt>
      <trkpt lat="42.92063" lon="-8.29702">
        <ele>379.3</ele>
        <time>2016-07-19T07:46:55Z</time>
      </trkpt>
      <trkpt lat="42.92058" lon="-8.29713">
        <ele>378.9</ele>
        <time>2016-07-19T07:47:06Z</time>
      </trkpt>
      <trkpt lat="42.92051" lon="-8.29723">
        <ele>378.1</ele>
        <time>2016-07-19T07:47:17Z</time>
      </trkpt>
      <trkpt lat="42.92048" lon="-8.29735">
        <ele>377.1</ele>
        <time>2016-07-19T07:47:27Z</time>
      </trkpt>
      <trkpt lat="42.92045" lon="-8.29747">
        <ele>376</ele>
        <time>2016-07-19T07:47:38Z</time>
      </trkpt>
      <trkpt lat="42.92043" lon="-8.29761">
        <ele>374.7</ele>
        <time>2016-07-19T07:47:49Z</time>
      </trkpt>
      <trkpt lat="42.92041" lon="-8.29773">
        <ele>373.7</ele>
        <time>2016-07-19T07:47:57Z</time>
      </trkpt>
      <trkpt lat="42.92038" lon="-8.29785">
        <ele>372.6</ele>
        <time>2016-07-19T07:48:08Z</time>
      </trkpt>
      <trkpt lat="42.92033" lon="-8.29797">
        <ele>371.2</ele>
        <time>2016-07-19T07:48:18Z</time>
      </trkpt>
      <trkpt lat="42.92029" lon="-8.29809">
        <ele>370.1</ele>
        <time>2016-07-19T07:48:27Z</time>
      </trkpt>
      <trkpt lat="42.92029" lon="-8.29822">
        <ele>369.3</ele>
        <time>2016-07-19T07:48:37Z</time>
      </trkpt>
      <trkpt lat="42.9203" lon="-8.29835">
        <ele>367.6</ele>
        <time>2016-07-19T07:48:50Z</time>
      </trkpt>
      <trkpt lat="42.92031" lon="-8.29848">
        <ele>366.6</ele>
        <time>2016-07-19T07:48:59Z</time>
      </trkpt>
      <trkpt lat="42.9203" lon="-8.29861">
        <ele>365.1</ele>
        <time>2016-07-19T07:49:09Z</time>
      </trkpt>
      <trkpt lat="42.92028" lon="-8.29874">
        <ele>364</ele>
        <time>2016-07-19T07:49:19Z</time>
      </trkpt>
      <trkpt lat="42.92024" lon="-8.29886">
        <ele>363.4</ele>
        <time>2016-07-19T07:49:27Z</time>
      </trkpt>
      <trkpt lat="42.92017" lon="-8.29896">
        <ele>362.9</ele>
        <time>2016-07-19T07:49:39Z</time>
      </trkpt>
      <trkpt lat="42.92009" lon="-8.29904">
        <ele>362.6</ele>
        <time>2016-07-19T07:49:49Z</time>
      </trkpt>
      <trkpt lat="42.92002" lon="-8.29912">
        <ele>362.2</ele>
        <time>2016-07-19T07:49:58Z</time>
      </trkpt>
      <trkpt lat="42.91996" lon="-8.29923">
        <ele>362.1</ele>
        <time>2016-07-19T07:50:10Z</time>
      </trkpt>
      <trkpt lat="42.91989" lon="-8.29931">
        <ele>362.1</ele>
        <time>2016-07-19T07:50:19Z</time>
      </trkpt>
      <trkpt lat="42.91982" lon="-8.29939">
        <ele>362.1</ele>
        <time>2016-07-19T07:50:27Z</time>
      </trkpt>
      <trkpt lat="42.91974" lon="-8.29947">
        <ele>362.1</ele>
        <time>2016-07-19T07:50:34Z</time>
      </trkpt>
      <trkpt lat="42.91966" lon="-8.29955">
        <ele>362.1</ele>
        <time>2016-07-19T07:50:42Z</time>
      </trkpt>
      <trkpt lat="42.91958" lon="-8.29963">
        <ele>362.1</ele>
        <time>2016-07-19T07:50:51Z</time>
      </trkpt>
      <trkpt lat="42.91951" lon="-8.29972">
        <ele>362.3</ele>
        <time>2016-07-19T07:51:02Z</time>
      </trkpt>
      <trkpt lat="42.91945" lon="-8.29982">
        <ele>362.4</ele>
        <time>2016-07-19T07:51:11Z</time>
      </trkpt>
      <trkpt lat="42.9194" lon="-8.29993">
        <ele>362.7</ele>
        <time>2016-07-19T07:51:21Z</time>
      </trkpt>
      <trkpt lat="42.91935" lon="-8.30004">
        <ele>362.5</ele>
        <time>2016-07-19T07:51:28Z</time>
      </trkpt>
      <trkpt lat="42.9193" lon="-8.30016">
        <ele>362.4</ele>
        <time>2016-07-19T07:51:35Z</time>
      </trkpt>
      <trkpt lat="42.91926" lon="-8.30027">
        <ele>362.7</ele>
        <time>2016-07-19T07:51:43Z</time>
      </trkpt>
      <trkpt lat="42.91922" lon="-8.30038">
        <ele>363.1</ele>
        <time>2016-07-19T07:51:51Z</time>
      </trkpt>
      <trkpt lat="42.91917" lon="-8.30049">
        <ele>363.6</ele>
        <time>2016-07-19T07:51:59Z</time>
      </trkpt>
      <trkpt lat="42.91914" lon="-8.30061">
        <ele>364.3</ele>
        <time>2016-07-19T07:52:08Z</time>
      </trkpt>
      <trkpt lat="42.91908" lon="-8.30071">
        <ele>365</ele>
        <time>2016-07-19T07:52:17Z</time>
      </trkpt>
      <trkpt lat="42.91902" lon="-8.30081">
        <ele>365.2</ele>
        <time>2016-07-19T07:52:25Z</time>
      </trkpt>
      <trkpt lat="42.91896" lon="-8.30092">
        <ele>365.1</ele>
        <time>2016-07-19T07:52:33Z</time>
      </trkpt>
      <trkpt lat="42.91889" lon="-8.30101">
        <ele>365.1</ele>
        <time>2016-07-19T07:52:42Z</time>
      </trkpt>
      <trkpt lat="42.9189" lon="-8.30114">
        <ele>364.8</ele>
        <time>2016-07-19T07:52:52Z</time>
      </trkpt>
      <trkpt lat="42.91896" lon="-8.30124">
        <ele>363.7</ele>
        <time>2016-07-19T07:53:13Z</time>
      </trkpt>
      <trkpt lat="42.91895" lon="-8.30136">
        <ele>363.8</ele>
        <time>2016-07-19T07:53:20Z</time>
      </trkpt>
      <trkpt lat="42.91898" lon="-8.30148">
        <ele>364</ele>
        <time>2016-07-19T07:53:29Z</time>
      </trkpt>
      <trkpt lat="42.91901" lon="-8.3016">
        <ele>364.3</ele>
        <time>2016-07-19T07:53:39Z</time>
      </trkpt>
      <trkpt lat="42.91904" lon="-8.30173">
        <ele>364.7</ele>
        <time>2016-07-19T07:53:50Z</time>
      </trkpt>
      <trkpt lat="42.91908" lon="-8.30185">
        <ele>365.6</ele>
        <time>2016-07-19T07:54:00Z</time>
      </trkpt>
      <trkpt lat="42.9191" lon="-8.30197">
        <ele>365.9</ele>
        <time>2016-07-19T07:54:10Z</time>
      </trkpt>
      <trkpt lat="42.91913" lon="-8.3021">
        <ele>366.6</ele>
        <time>2016-07-19T07:54:20Z</time>
      </trkpt>
      <trkpt lat="42.91915" lon="-8.30223">
        <ele>367</ele>
        <time>2016-07-19T07:54:28Z</time>
      </trkpt>
      <trkpt lat="42.91916" lon="-8.30236">
        <ele>367.1</ele>
        <time>2016-07-19T07:54:36Z</time>
      </trkpt>
      <trkpt lat="42.91919" lon="-8.3025">
        <ele>367.2</ele>
        <time>2016-07-19T07:54:44Z</time>
      </trkpt>
      <trkpt lat="42.9192" lon="-8.30263">
        <ele>367.3</ele>
        <time>2016-07-19T07:54:52Z</time>
      </trkpt>
      <trkpt lat="42.91922" lon="-8.30275">
        <ele>367.6</ele>
        <time>2016-07-19T07:55:00Z</time>
      </trkpt>
      <trkpt lat="42.91925" lon="-8.30287">
        <ele>367.8</ele>
        <time>2016-07-19T07:55:07Z</time>
      </trkpt>
      <trkpt lat="42.91927" lon="-8.303">
        <ele>368.1</ele>
        <time>2016-07-19T07:55:16Z</time>
      </trkpt>
      <trkpt lat="42.91928" lon="-8.30312">
        <ele>368.3</ele>
        <time>2016-07-19T07:55:24Z</time>
      </trkpt>
      <trkpt lat="42.9193" lon="-8.30325">
        <ele>368.8</ele>
        <time>2016-07-19T07:55:34Z</time>
      </trkpt>
      <trkpt lat="42.91931" lon="-8.30338">
        <ele>369.2</ele>
        <time>2016-07-19T07:55:43Z</time>
      </trkpt>
      <trkpt lat="42.9193" lon="-8.30351">
        <ele>370.1</ele>
        <time>2016-07-19T07:55:53Z</time>
      </trkpt>
      <trkpt lat="42.91929" lon="-8.30364">
        <ele>370.5</ele>
        <time>2016-07-19T07:56:02Z</time>
      </trkpt>
      <trkpt lat="42.91928" lon="-8.30377">
        <ele>370.9</ele>
        <time>2016-07-19T07:56:11Z</time>
      </trkpt>
      <trkpt lat="42.91929" lon="-8.3039">
        <ele>371</ele>
        <time>2016-07-19T07:56:20Z</time>
      </trkpt>
      <trkpt lat="42.91927" lon="-8.30403">
        <ele>370.8</ele>
        <time>2016-07-19T07:56:38Z</time>
      </trkpt>
      <trkpt lat="42.91926" lon="-8.30416">
        <ele>370.7</ele>
        <time>2016-07-19T07:56:47Z</time>
      </trkpt>
      <trkpt lat="42.91924" lon="-8.30428">
        <ele>370.4</ele>
        <time>2016-07-19T07:56:55Z</time>
      </trkpt>
      <trkpt lat="42.91922" lon="-8.3044">
        <ele>369.9</ele>
        <time>2016-07-19T07:57:04Z</time>
      </trkpt>
      <trkpt lat="42.9192" lon="-8.30453">
        <ele>369.6</ele>
        <time>2016-07-19T07:57:14Z</time>
      </trkpt>
      <trkpt lat="42.91918" lon="-8.30466">
        <ele>369.6</ele>
        <time>2016-07-19T07:57:22Z</time>
      </trkpt>
      <trkpt lat="42.91917" lon="-8.30479">
        <ele>369.3</ele>
        <time>2016-07-19T07:57:31Z</time>
      </trkpt>
      <trkpt lat="42.91917" lon="-8.30492">
        <ele>369.1</ele>
        <time>2016-07-19T07:57:38Z</time>
      </trkpt>
      <trkpt lat="42.91911" lon="-8.30504">
        <ele>368.8</ele>
        <time>2016-07-19T07:57:47Z</time>
      </trkpt>
      <trkpt lat="42.91903" lon="-8.30512">
        <ele>368.6</ele>
        <time>2016-07-19T07:57:56Z</time>
      </trkpt>
      <trkpt lat="42.91895" lon="-8.30517">
        <ele>368</ele>
        <time>2016-07-19T07:58:04Z</time>
      </trkpt>
      <trkpt lat="42.91892" lon="-8.30529">
        <ele>367.5</ele>
        <time>2016-07-19T07:58:13Z</time>
      </trkpt>
      <trkpt lat="42.91892" lon="-8.30543">
        <ele>367.1</ele>
        <time>2016-07-19T07:58:23Z</time>
      </trkpt>
      <trkpt lat="42.91895" lon="-8.30555">
        <ele>366.8</ele>
        <time>2016-07-19T07:58:34Z</time>
      </trkpt>
      <trkpt lat="42.91901" lon="-8.30566">
        <ele>366.1</ele>
        <time>2016-07-19T07:58:45Z</time>
      </trkpt>
      <trkpt lat="42.91903" lon="-8.30579">
        <ele>364.9</ele>
        <time>2016-07-19T07:58:54Z</time>
      </trkpt>
      <trkpt lat="42.91902" lon="-8.30592">
        <ele>363.3</ele>
        <time>2016-07-19T07:59:03Z</time>
      </trkpt>
      <trkpt lat="42.91903" lon="-8.30604">
        <ele>362.5</ele>
        <time>2016-07-19T07:59:11Z</time>
      </trkpt>
      <trkpt lat="42.91905" lon="-8.30617">
        <ele>361.3</ele>
        <time>2016-07-19T07:59:21Z</time>
      </trkpt>
      <trkpt lat="42.91907" lon="-8.3063">
        <ele>360.1</ele>
        <time>2016-07-19T07:59:30Z</time>
      </trkpt>
      <trkpt lat="42.91908" lon="-8.30643">
        <ele>359.5</ele>
        <time>2016-07-19T07:59:38Z</time>
      </trkpt>
      <trkpt lat="42.91908" lon="-8.30656">
        <ele>358.9</ele>
        <time>2016-07-19T07:59:46Z</time>
      </trkpt>
      <trkpt lat="42.91908" lon="-8.3067">
        <ele>358.2</ele>
        <time>2016-07-19T07:59:54Z</time>
      </trkpt>
      <trkpt lat="42.91905" lon="-8.30681">
        <ele>357.7</ele>
        <time>2016-07-19T08:00:02Z</time>
      </trkpt>
      <trkpt lat="42.919" lon="-8.30692">
        <ele>357.4</ele>
        <time>2016-07-19T08:00:10Z</time>
      </trkpt>
      <trkpt lat="42.91894" lon="-8.30702">
        <ele>357</ele>
        <time>2016-07-19T08:00:19Z</time>
      </trkpt>
      <trkpt lat="42.9189" lon="-8.30713">
        <ele>356.7</ele>
        <time>2016-07-19T08:00:29Z</time>
      </trkpt>
      <trkpt lat="42.91883" lon="-8.30722">
        <ele>356.5</ele>
        <time>2016-07-19T08:00:42Z</time>
      </trkpt>
      <trkpt lat="42.91878" lon="-8.30733">
        <ele>355.7</ele>
        <time>2016-07-19T08:00:53Z</time>
      </trkpt>
      <trkpt lat="42.91872" lon="-8.30743">
        <ele>355.6</ele>
        <time>2016-07-19T08:01:02Z</time>
      </trkpt>
      <trkpt lat="42.91866" lon="-8.30754">
        <ele>355.6</ele>
        <time>2016-07-19T08:01:09Z</time>
      </trkpt>
      <trkpt lat="42.91861" lon="-8.30767">
        <ele>355.6</ele>
        <time>2016-07-19T08:01:17Z</time>
      </trkpt>
      <trkpt lat="42.91857" lon="-8.30779">
        <ele>355.4</ele>
        <time>2016-07-19T08:01:25Z</time>
      </trkpt>
      <trkpt lat="42.91854" lon="-8.3079">
        <ele>355.5</ele>
        <time>2016-07-19T08:01:34Z</time>
      </trkpt>
      <trkpt lat="42.91851" lon="-8.30803">
        <ele>355.9</ele>
        <time>2016-07-19T08:01:43Z</time>
      </trkpt>
      <trkpt lat="42.91849" lon="-8.30816">
        <ele>356.2</ele>
        <time>2016-07-19T08:01:52Z</time>
      </trkpt>
      <trkpt lat="42.91847" lon="-8.30829">
        <ele>356.3</ele>
        <time>2016-07-19T08:01:59Z</time>
      </trkpt>
      <trkpt lat="42.91846" lon="-8.30841">
        <ele>356.3</ele>
        <time>2016-07-19T08:02:07Z</time>
      </trkpt>
      <trkpt lat="42.91848" lon="-8.30855">
        <ele>356.2</ele>
        <time>2016-07-19T08:02:16Z</time>
      </trkpt>
      <trkpt lat="42.9185" lon="-8.30868">
        <ele>356.2</ele>
        <time>2016-07-19T08:02:25Z</time>
      </trkpt>
      <trkpt lat="42.91849" lon="-8.30881">
        <ele>356.2</ele>
        <time>2016-07-19T08:02:34Z</time>
      </trkpt>
      <trkpt lat="42.91846" lon="-8.30893">
        <ele>356.3</ele>
        <time>2016-07-19T08:02:43Z</time>
      </trkpt>
      <trkpt lat="42.91843" lon="-8.30906">
        <ele>356.6</ele>
        <time>2016-07-19T08:02:53Z</time>
      </trkpt>
      <trkpt lat="42.91842" lon="-8.30919">
        <ele>357.4</ele>
        <time>2016-07-19T08:03:02Z</time>
      </trkpt>
      <trkpt lat="42.91842" lon="-8.30932">
        <ele>357.8</ele>
        <time>2016-07-19T08:03:12Z</time>
      </trkpt>
      <trkpt lat="42.91841" lon="-8.30946">
        <ele>357.7</ele>
        <time>2016-07-19T08:03:22Z</time>
      </trkpt>
      <trkpt lat="42.91839" lon="-8.30958">
        <ele>357.7</ele>
        <time>2016-07-19T08:03:30Z</time>
      </trkpt>
      <trkpt lat="42.91838" lon="-8.30972">
        <ele>358</ele>
        <time>2016-07-19T08:03:39Z</time>
      </trkpt>
      <trkpt lat="42.91838" lon="-8.30984">
        <ele>358.2</ele>
        <time>2016-07-19T08:03:49Z</time>
      </trkpt>
      <trkpt lat="42.91839" lon="-8.30997">
        <ele>358.5</ele>
        <time>2016-07-19T08:03:58Z</time>
      </trkpt>
      <trkpt lat="42.91837" lon="-8.3101">
        <ele>358.7</ele>
        <time>2016-07-19T08:04:06Z</time>
      </trkpt>
      <trkpt lat="42.91837" lon="-8.31023">
        <ele>359.3</ele>
        <time>2016-07-19T08:04:15Z</time>
      </trkpt>
      <trkpt lat="42.91837" lon="-8.31036">
        <ele>359.5</ele>
        <time>2016-07-19T08:04:24Z</time>
      </trkpt>
      <trkpt lat="42.91835" lon="-8.31049">
        <ele>359.7</ele>
        <time>2016-07-19T08:04:33Z</time>
      </trkpt>
      <trkpt lat="42.91827" lon="-8.31056">
        <ele>359.8</ele>
        <time>2016-07-19T08:04:43Z</time>
      </trkpt>
      <trkpt lat="42.91817" lon="-8.31058">
        <ele>360.2</ele>
        <time>2016-07-19T08:04:54Z</time>
      </trkpt>
      <trkpt lat="42.91807" lon="-8.31056">
        <ele>360.3</ele>
        <time>2016-07-19T08:05:04Z</time>
      </trkpt>
      <trkpt lat="42.91798" lon="-8.31054">
        <ele>360.4</ele>
        <time>2016-07-19T08:05:13Z</time>
      </trkpt>
      <trkpt lat="42.91788" lon="-8.31051">
        <ele>360.6</ele>
        <time>2016-07-19T08:05:22Z</time>
      </trkpt>
      <trkpt lat="42.91778" lon="-8.31049">
        <ele>360.6</ele>
        <time>2016-07-19T08:05:31Z</time>
      </trkpt>
      <trkpt lat="42.91769" lon="-8.31048">
        <ele>360.3</ele>
        <time>2016-07-19T08:05:39Z</time>
      </trkpt>
      <trkpt lat="42.91759" lon="-8.31049">
        <ele>359.9</ele>
        <time>2016-07-19T08:05:48Z</time>
      </trkpt>
      <trkpt lat="42.91756" lon="-8.31062">
        <ele>360.1</ele>
        <time>2016-07-19T08:06:01Z</time>
      </trkpt>
      <trkpt lat="42.91753" lon="-8.31075">
        <ele>360</ele>
        <time>2016-07-19T08:06:10Z</time>
      </trkpt>
      <trkpt lat="42.91752" lon="-8.31088">
        <ele>359.9</ele>
        <time>2016-07-19T08:06:20Z</time>
      </trkpt>
      <trkpt lat="42.91749" lon="-8.311">
        <ele>360</ele>
        <time>2016-07-19T08:06:29Z</time>
      </trkpt>
      <trkpt lat="42.91747" lon="-8.31113">
        <ele>360.4</ele>
        <time>2016-07-19T08:06:39Z</time>
      </trkpt>
      <trkpt lat="42.91745" lon="-8.31126">
        <ele>360.7</ele>
        <time>2016-07-19T08:06:48Z</time>
      </trkpt>
      <trkpt lat="42.91743" lon="-8.31139">
        <ele>361.7</ele>
        <time>2016-07-19T08:06:57Z</time>
      </trkpt>
      <trkpt lat="42.9174" lon="-8.31151">
        <ele>362.3</ele>
        <time>2016-07-19T08:07:05Z</time>
      </trkpt>
      <trkpt lat="42.91738" lon="-8.31165">
        <ele>362.8</ele>
        <time>2016-07-19T08:07:13Z</time>
      </trkpt>
      <trkpt lat="42.91736" lon="-8.31177">
        <ele>363.2</ele>
        <time>2016-07-19T08:07:22Z</time>
      </trkpt>
      <trkpt lat="42.91734" lon="-8.3119">
        <ele>363.4</ele>
        <time>2016-07-19T08:07:31Z</time>
      </trkpt>
      <trkpt lat="42.91733" lon="-8.31204">
        <ele>364.1</ele>
        <time>2016-07-19T08:07:43Z</time>
      </trkpt>
      <trkpt lat="42.91731" lon="-8.31217">
        <ele>364.4</ele>
        <time>2016-07-19T08:07:51Z</time>
      </trkpt>
      <trkpt lat="42.91728" lon="-8.31229">
        <ele>364.6</ele>
        <time>2016-07-19T08:07:59Z</time>
      </trkpt>
      <trkpt lat="42.91727" lon="-8.31241">
        <ele>364.9</ele>
        <time>2016-07-19T08:08:07Z</time>
      </trkpt>
      <trkpt lat="42.91725" lon="-8.31255">
        <ele>365.1</ele>
        <time>2016-07-19T08:08:15Z</time>
      </trkpt>
      <trkpt lat="42.91723" lon="-8.31267">
        <ele>365.3</ele>
        <time>2016-07-19T08:08:23Z</time>
      </trkpt>
      <trkpt lat="42.91724" lon="-8.31281">
        <ele>365.8</ele>
        <time>2016-07-19T08:08:33Z</time>
      </trkpt>
      <trkpt lat="42.91725" lon="-8.31293">
        <ele>366.4</ele>
        <time>2016-07-19T08:08:41Z</time>
      </trkpt>
      <trkpt lat="42.91724" lon="-8.31306">
        <ele>366.8</ele>
        <time>2016-07-19T08:08:48Z</time>
      </trkpt>
      <trkpt lat="42.91723" lon="-8.3132">
        <ele>367</ele>
        <time>2016-07-19T08:08:56Z</time>
      </trkpt>
      <trkpt lat="42.91723" lon="-8.31333">
        <ele>367.4</ele>
        <time>2016-07-19T08:09:05Z</time>
      </trkpt>
      <trkpt lat="42.91723" lon="-8.31347">
        <ele>367.7</ele>
        <time>2016-07-19T08:09:14Z</time>
      </trkpt>
      <trkpt lat="42.9172" lon="-8.31359">
        <ele>368</ele>
        <time>2016-07-19T08:09:23Z</time>
      </trkpt>
      <trkpt lat="42.91718" lon="-8.31372">
        <ele>368.2</ele>
        <time>2016-07-19T08:09:32Z</time>
      </trkpt>
      <trkpt lat="42.91717" lon="-8.31386">
        <ele>368.3</ele>
        <time>2016-07-19T08:09:40Z</time>
      </trkpt>
      <trkpt lat="42.91717" lon="-8.31398">
        <ele>368.4</ele>
        <time>2016-07-19T08:09:47Z</time>
      </trkpt>
      <trkpt lat="42.91715" lon="-8.31411">
        <ele>368.5</ele>
        <time>2016-07-19T08:09:55Z</time>
      </trkpt>
      <trkpt lat="42.91714" lon="-8.31423">
        <ele>368.7</ele>
        <time>2016-07-19T08:10:03Z</time>
      </trkpt>
      <trkpt lat="42.91712" lon="-8.31436">
        <ele>369.1</ele>
        <time>2016-07-19T08:10:11Z</time>
      </trkpt>
      <trkpt lat="42.91711" lon="-8.31448">
        <ele>369.4</ele>
        <time>2016-07-19T08:10:19Z</time>
      </trkpt>
      <trkpt lat="42.9171" lon="-8.31462">
        <ele>369.3</ele>
        <time>2016-07-19T08:10:28Z</time>
      </trkpt>
      <trkpt lat="42.9171" lon="-8.31474">
        <ele>369.6</ele>
        <time>2016-07-19T08:10:36Z</time>
      </trkpt>
      <trkpt lat="42.91708" lon="-8.31488">
        <ele>369.9</ele>
        <time>2016-07-19T08:10:45Z</time>
      </trkpt>
      <trkpt lat="42.91706" lon="-8.315">
        <ele>370.2</ele>
        <time>2016-07-19T08:10:52Z</time>
      </trkpt>
      <trkpt lat="42.91704" lon="-8.31513">
        <ele>370.6</ele>
        <time>2016-07-19T08:11:00Z</time>
      </trkpt>
      <trkpt lat="42.91702" lon="-8.31526">
        <ele>371.4</ele>
        <time>2016-07-19T08:11:14Z</time>
      </trkpt>
      <trkpt lat="42.91697" lon="-8.31538">
        <ele>372.3</ele>
        <time>2016-07-19T08:11:26Z</time>
      </trkpt>
      <trkpt lat="42.91689" lon="-8.31543">
        <ele>372.6</ele>
        <time>2016-07-19T08:11:35Z</time>
      </trkpt>
      <trkpt lat="42.91684" lon="-8.31554">
        <ele>372.9</ele>
        <time>2016-07-19T08:11:45Z</time>
      </trkpt>
      <trkpt lat="42.91682" lon="-8.31567">
        <ele>373</ele>
        <time>2016-07-19T08:11:54Z</time>
      </trkpt>
      <trkpt lat="42.91679" lon="-8.31579">
        <ele>373</ele>
        <time>2016-07-19T08:12:02Z</time>
      </trkpt>
      <trkpt lat="42.91677" lon="-8.31591">
        <ele>372.7</ele>
        <time>2016-07-19T08:12:10Z</time>
      </trkpt>
      <trkpt lat="42.91674" lon="-8.31605">
        <ele>372.6</ele>
        <time>2016-07-19T08:12:19Z</time>
      </trkpt>
      <trkpt lat="42.91672" lon="-8.31617">
        <ele>373.1</ele>
        <time>2016-07-19T08:12:27Z</time>
      </trkpt>
      <trkpt lat="42.9167" lon="-8.3163">
        <ele>373.6</ele>
        <time>2016-07-19T08:12:35Z</time>
      </trkpt>
      <trkpt lat="42.91668" lon="-8.31644">
        <ele>374</ele>
        <time>2016-07-19T08:12:43Z</time>
      </trkpt>
      <trkpt lat="42.91666" lon="-8.31657">
        <ele>374.4</ele>
        <time>2016-07-19T08:12:51Z</time>
      </trkpt>
      <trkpt lat="42.91663" lon="-8.3167">
        <ele>374.7</ele>
        <time>2016-07-19T08:13:00Z</time>
      </trkpt>
      <trkpt lat="42.91662" lon="-8.31683">
        <ele>374.9</ele>
        <time>2016-07-19T08:13:08Z</time>
      </trkpt>
      <trkpt lat="42.9166" lon="-8.31696">
        <ele>375.3</ele>
        <time>2016-07-19T08:13:17Z</time>
      </trkpt>
      <trkpt lat="42.91658" lon="-8.31708">
        <ele>375.7</ele>
        <time>2016-07-19T08:13:26Z</time>
      </trkpt>
      <trkpt lat="42.91655" lon="-8.31721">
        <ele>376.1</ele>
        <time>2016-07-19T08:13:35Z</time>
      </trkpt>
      <trkpt lat="42.91653" lon="-8.31734">
        <ele>376.7</ele>
        <time>2016-07-19T08:13:44Z</time>
      </trkpt>
      <trkpt lat="42.91651" lon="-8.31747">
        <ele>376.9</ele>
        <time>2016-07-19T08:13:53Z</time>
      </trkpt>
      <trkpt lat="42.91652" lon="-8.3176">
        <ele>377.1</ele>
        <time>2016-07-19T08:14:03Z</time>
      </trkpt>
      <trkpt lat="42.91649" lon="-8.31772">
        <ele>377.5</ele>
        <time>2016-07-19T08:14:18Z</time>
      </trkpt>
      <trkpt lat="42.91647" lon="-8.31784">
        <ele>377.7</ele>
        <time>2016-07-19T08:14:28Z</time>
      </trkpt>
      <trkpt lat="42.91644" lon="-8.31796">
        <ele>378.6</ele>
        <time>2016-07-19T08:14:39Z</time>
      </trkpt>
      <trkpt lat="42.9164" lon="-8.31808">
        <ele>379.2</ele>
        <time>2016-07-19T08:14:48Z</time>
      </trkpt>
      <trkpt lat="42.91638" lon="-8.3182">
        <ele>379.6</ele>
        <time>2016-07-19T08:14:56Z</time>
      </trkpt>
      <trkpt lat="42.91635" lon="-8.31832">
        <ele>380.2</ele>
        <time>2016-07-19T08:15:04Z</time>
      </trkpt>
      <trkpt lat="42.91632" lon="-8.31844">
        <ele>380.8</ele>
        <time>2016-07-19T08:15:12Z</time>
      </trkpt>
      <trkpt lat="42.91628" lon="-8.31856">
        <ele>381.4</ele>
        <time>2016-07-19T08:15:20Z</time>
      </trkpt>
      <trkpt lat="42.91625" lon="-8.31869">
        <ele>382.2</ele>
        <time>2016-07-19T08:15:31Z</time>
      </trkpt>
      <trkpt lat="42.91621" lon="-8.31881">
        <ele>382.8</ele>
        <time>2016-07-19T08:15:41Z</time>
      </trkpt>
      <trkpt lat="42.91617" lon="-8.31892">
        <ele>383.1</ele>
        <time>2016-07-19T08:15:49Z</time>
      </trkpt>
      <trkpt lat="42.91612" lon="-8.31904">
        <ele>383.6</ele>
        <time>2016-07-19T08:15:58Z</time>
      </trkpt>
      <trkpt lat="42.91607" lon="-8.31915">
        <ele>384</ele>
        <time>2016-07-19T08:16:07Z</time>
      </trkpt>
      <trkpt lat="42.91602" lon="-8.31927">
        <ele>384.8</ele>
        <time>2016-07-19T08:16:17Z</time>
      </trkpt>
      <trkpt lat="42.91597" lon="-8.31938">
        <ele>385.4</ele>
        <time>2016-07-19T08:16:26Z</time>
      </trkpt>
      <trkpt lat="42.91593" lon="-8.31951">
        <ele>385.8</ele>
        <time>2016-07-19T08:16:36Z</time>
      </trkpt>
      <trkpt lat="42.91588" lon="-8.31962">
        <ele>386.3</ele>
        <time>2016-07-19T08:16:44Z</time>
      </trkpt>
      <trkpt lat="42.91584" lon="-8.31975">
        <ele>386.9</ele>
        <time>2016-07-19T08:16:54Z</time>
      </trkpt>
      <trkpt lat="42.91579" lon="-8.31987">
        <ele>387.4</ele>
        <time>2016-07-19T08:17:03Z</time>
      </trkpt>
      <trkpt lat="42.91575" lon="-8.31998">
        <ele>387.9</ele>
        <time>2016-07-19T08:17:12Z</time>
      </trkpt>
      <trkpt lat="42.91571" lon="-8.3201">
        <ele>388.5</ele>
        <time>2016-07-19T08:17:21Z</time>
      </trkpt>
      <trkpt lat="42.91567" lon="-8.32023">
        <ele>389</ele>
        <time>2016-07-19T08:17:29Z</time>
      </trkpt>
      <trkpt lat="42.91564" lon="-8.32035">
        <ele>389.5</ele>
        <time>2016-07-19T08:17:38Z</time>
      </trkpt>
      <trkpt lat="42.91561" lon="-8.32048">
        <ele>389.9</ele>
        <time>2016-07-19T08:17:46Z</time>
      </trkpt>
      <trkpt lat="42.91557" lon="-8.3206">
        <ele>390.5</ele>
        <time>2016-07-19T08:17:54Z</time>
      </trkpt>
      <trkpt lat="42.91554" lon="-8.32072">
        <ele>391.2</ele>
        <time>2016-07-19T08:18:04Z</time>
      </trkpt>
      <trkpt lat="42.91551" lon="-8.32085">
        <ele>391.5</ele>
        <time>2016-07-19T08:18:15Z</time>
      </trkpt>
      <trkpt lat="42.91548" lon="-8.32097">
        <ele>391.7</ele>
        <time>2016-07-19T08:18:23Z</time>
      </trkpt>
      <trkpt lat="42.91547" lon="-8.3211">
        <ele>392</ele>
        <time>2016-07-19T08:18:31Z</time>
      </trkpt>
      <trkpt lat="42.91544" lon="-8.32124">
        <ele>392.4</ele>
        <time>2016-07-19T08:18:39Z</time>
      </trkpt>
      <trkpt lat="42.91543" lon="-8.32136">
        <ele>393.1</ele>
        <time>2016-07-19T08:18:46Z</time>
      </trkpt>
      <trkpt lat="42.91542" lon="-8.32148">
        <ele>393.6</ele>
        <time>2016-07-19T08:18:53Z</time>
      </trkpt>
      <trkpt lat="42.9154" lon="-8.32161">
        <ele>394</ele>
        <time>2016-07-19T08:19:01Z</time>
      </trkpt>
      <trkpt lat="42.91537" lon="-8.32174">
        <ele>394.2</ele>
        <time>2016-07-19T08:19:09Z</time>
      </trkpt>
      <trkpt lat="42.91535" lon="-8.32186">
        <ele>394.4</ele>
        <time>2016-07-19T08:19:17Z</time>
      </trkpt>
      <trkpt lat="42.91534" lon="-8.32199">
        <ele>394.6</ele>
        <time>2016-07-19T08:19:26Z</time>
      </trkpt>
      <trkpt lat="42.91533" lon="-8.32212">
        <ele>394.8</ele>
        <time>2016-07-19T08:19:36Z</time>
      </trkpt>
      <trkpt lat="42.91533" lon="-8.32224">
        <ele>395.3</ele>
        <time>2016-07-19T08:19:45Z</time>
      </trkpt>
      <trkpt lat="42.91533" lon="-8.32237">
        <ele>395.7</ele>
        <time>2016-07-19T08:19:54Z</time>
      </trkpt>
      <trkpt lat="42.91534" lon="-8.3225">
        <ele>396.2</ele>
        <time>2016-07-19T08:20:03Z</time>
      </trkpt>
      <trkpt lat="42.91533" lon="-8.32263">
        <ele>396.5</ele>
        <time>2016-07-19T08:20:11Z</time>
      </trkpt>
      <trkpt lat="42.91533" lon="-8.32277">
        <ele>397</ele>
        <time>2016-07-19T08:20:20Z</time>
      </trkpt>
      <trkpt lat="42.91532" lon="-8.32289">
        <ele>397.3</ele>
        <time>2016-07-19T08:20:28Z</time>
      </trkpt>
      <trkpt lat="42.91533" lon="-8.32302">
        <ele>397.6</ele>
        <time>2016-07-19T08:20:36Z</time>
      </trkpt>
      <trkpt lat="42.91533" lon="-8.32315">
        <ele>398.1</ele>
        <time>2016-07-19T08:20:45Z</time>
      </trkpt>
      <trkpt lat="42.91533" lon="-8.32328">
        <ele>398.6</ele>
        <time>2016-07-19T08:20:55Z</time>
      </trkpt>
      <trkpt lat="42.91541" lon="-8.32337">
        <ele>398.9</ele>
        <time>2016-07-19T08:21:03Z</time>
      </trkpt>
      <trkpt lat="42.91545" lon="-8.3235">
        <ele>399.4</ele>
        <time>2016-07-19T08:21:13Z</time>
      </trkpt>
      <trkpt lat="42.91553" lon="-8.32356">
        <ele>399.5</ele>
        <time>2016-07-19T08:21:24Z</time>
      </trkpt>
      <trkpt lat="42.91563" lon="-8.32359">
        <ele>399.7</ele>
        <time>2016-07-19T08:21:40Z</time>
      </trkpt>
      <trkpt lat="42.91571" lon="-8.32353">
        <ele>399.9</ele>
        <time>2016-07-19T08:21:51Z</time>
      </trkpt>
      <trkpt lat="42.9158" lon="-8.32349">
        <ele>400.5</ele>
        <time>2016-07-19T08:22:08Z</time>
      </trkpt>
      <trkpt lat="42.91589" lon="-8.32346">
        <ele>400.9</ele>
        <time>2016-07-19T08:22:18Z</time>
      </trkpt>
      <trkpt lat="42.91599" lon="-8.32344">
        <ele>401.3</ele>
        <time>2016-07-19T08:22:29Z</time>
      </trkpt>
      <trkpt lat="42.91609" lon="-8.32343">
        <ele>401.6</ele>
        <time>2016-07-19T08:22:37Z</time>
      </trkpt>
      <trkpt lat="42.91619" lon="-8.32343">
        <ele>402</ele>
        <time>2016-07-19T08:22:45Z</time>
      </trkpt>
      <trkpt lat="42.91628" lon="-8.32343">
        <ele>402.5</ele>
        <time>2016-07-19T08:22:53Z</time>
      </trkpt>
      <trkpt lat="42.91637" lon="-8.32345">
        <ele>402.9</ele>
        <time>2016-07-19T08:23:02Z</time>
      </trkpt>
      <trkpt lat="42.91645" lon="-8.32354">
        <ele>403.5</ele>
        <time>2016-07-19T08:23:18Z</time>
      </trkpt>
      <trkpt lat="42.91648" lon="-8.32365">
        <ele>404</ele>
        <time>2016-07-19T08:23:30Z</time>
      </trkpt>
      <trkpt lat="42.91648" lon="-8.32378">
        <ele>404.2</ele>
        <time>2016-07-19T08:23:40Z</time>
      </trkpt>
      <trkpt lat="42.91647" lon="-8.32391">
        <ele>404.1</ele>
        <time>2016-07-19T08:23:50Z</time>
      </trkpt>
      <trkpt lat="42.91646" lon="-8.32405">
        <ele>403.4</ele>
        <time>2016-07-19T08:23:59Z</time>
      </trkpt>
      <trkpt lat="42.91645" lon="-8.32418">
        <ele>403.3</ele>
        <time>2016-07-19T08:24:08Z</time>
      </trkpt>
      <trkpt lat="42.91645" lon="-8.32431">
        <ele>403</ele>
        <time>2016-07-19T08:24:17Z</time>
      </trkpt>
      <trkpt lat="42.91643" lon="-8.32444">
        <ele>402.8</ele>
        <time>2016-07-19T08:24:25Z</time>
      </trkpt>
      <trkpt lat="42.91638" lon="-8.32455">
        <ele>402.8</ele>
        <time>2016-07-19T08:24:32Z</time>
      </trkpt>
      <trkpt lat="42.91637" lon="-8.32468">
        <ele>402.8</ele>
        <time>2016-07-19T08:24:41Z</time>
      </trkpt>
      <trkpt lat="42.9164" lon="-8.32481">
        <ele>402.6</ele>
        <time>2016-07-19T08:24:51Z</time>
      </trkpt>
      <trkpt lat="42.91643" lon="-8.32493">
        <ele>401.9</ele>
        <time>2016-07-19T08:25:02Z</time>
      </trkpt>
      <trkpt lat="42.91643" lon="-8.32506">
        <ele>401.5</ele>
        <time>2016-07-19T08:25:10Z</time>
      </trkpt>
      <trkpt lat="42.91642" lon="-8.32519">
        <ele>401.4</ele>
        <time>2016-07-19T08:25:18Z</time>
      </trkpt>
      <trkpt lat="42.9164" lon="-8.32532">
        <ele>401.1</ele>
        <time>2016-07-19T08:25:29Z</time>
      </trkpt>
      <trkpt lat="42.91643" lon="-8.32545">
        <ele>400.6</ele>
        <time>2016-07-19T08:25:40Z</time>
      </trkpt>
      <trkpt lat="42.91644" lon="-8.32558">
        <ele>400.4</ele>
        <time>2016-07-19T08:25:49Z</time>
      </trkpt>
      <trkpt lat="42.91646" lon="-8.3257">
        <ele>400.1</ele>
        <time>2016-07-19T08:25:57Z</time>
      </trkpt>
      <trkpt lat="42.91646" lon="-8.32583">
        <ele>399.7</ele>
        <time>2016-07-19T08:26:05Z</time>
      </trkpt>
      <trkpt lat="42.91648" lon="-8.32596">
        <ele>399</ele>
        <time>2016-07-19T08:26:14Z</time>
      </trkpt>
      <trkpt lat="42.9165" lon="-8.32608">
        <ele>398.5</ele>
        <time>2016-07-19T08:26:21Z</time>
      </trkpt>
      <trkpt lat="42.91652" lon="-8.32621">
        <ele>398</ele>
        <time>2016-07-19T08:26:30Z</time>
      </trkpt>
      <trkpt lat="42.91652" lon="-8.32634">
        <ele>397.6</ele>
        <time>2016-07-19T08:26:37Z</time>
      </trkpt>
      <trkpt lat="42.91654" lon="-8.32647">
        <ele>397.4</ele>
        <time>2016-07-19T08:26:45Z</time>
      </trkpt>
      <trkpt lat="42.91657" lon="-8.3266">
        <ele>396.9</ele>
        <time>2016-07-19T08:26:54Z</time>
      </trkpt>
      <trkpt lat="42.91658" lon="-8.32673">
        <ele>396.8</ele>
        <time>2016-07-19T08:27:03Z</time>
      </trkpt>
      <trkpt lat="42.91659" lon="-8.32687">
        <ele>396.4</ele>
        <time>2016-07-19T08:27:10Z</time>
      </trkpt>
      <trkpt lat="42.91661" lon="-8.327">
        <ele>395.9</ele>
        <time>2016-07-19T08:27:17Z</time>
      </trkpt>
      <trkpt lat="42.91663" lon="-8.32712">
        <ele>395.3</ele>
        <time>2016-07-19T08:27:26Z</time>
      </trkpt>
      <trkpt lat="42.91666" lon="-8.32724">
        <ele>394.7</ele>
        <time>2016-07-19T08:27:35Z</time>
      </trkpt>
      <trkpt lat="42.91668" lon="-8.32737">
        <ele>393.5</ele>
        <time>2016-07-19T08:27:46Z</time>
      </trkpt>
      <trkpt lat="42.91672" lon="-8.32749">
        <ele>392.6</ele>
        <time>2016-07-19T08:27:56Z</time>
      </trkpt>
      <trkpt lat="42.91671" lon="-8.32763">
        <ele>391.9</ele>
        <time>2016-07-19T08:28:04Z</time>
      </trkpt>
      <trkpt lat="42.91677" lon="-8.32773">
        <ele>391.1</ele>
        <time>2016-07-19T08:28:15Z</time>
      </trkpt>
      <trkpt lat="42.91682" lon="-8.32784">
        <ele>390.8</ele>
        <time>2016-07-19T08:28:23Z</time>
      </trkpt>
      <trkpt lat="42.91685" lon="-8.32797">
        <ele>390</ele>
        <time>2016-07-19T08:28:30Z</time>
      </trkpt>
      <trkpt lat="42.9169" lon="-8.32808">
        <ele>389.3</ele>
        <time>2016-07-19T08:28:37Z</time>
      </trkpt>
      <trkpt lat="42.91693" lon="-8.32821">
        <ele>388.3</ele>
        <time>2016-07-19T08:28:45Z</time>
      </trkpt>
      <trkpt lat="42.91697" lon="-8.32834">
        <ele>386.9</ele>
        <time>2016-07-19T08:28:52Z</time>
      </trkpt>
      <trkpt lat="42.91699" lon="-8.32847">
        <ele>385.7</ele>
        <time>2016-07-19T08:28:59Z</time>
      </trkpt>
      <trkpt lat="42.91702" lon="-8.3286">
        <ele>384.3</ele>
        <time>2016-07-19T08:29:07Z</time>
      </trkpt>
      <trkpt lat="42.91705" lon="-8.32872">
        <ele>383.3</ele>
        <time>2016-07-19T08:29:14Z</time>
      </trkpt>
      <trkpt lat="42.91709" lon="-8.32884">
        <ele>382.3</ele>
        <time>2016-07-19T08:29:22Z</time>
      </trkpt>
      <trkpt lat="42.91717" lon="-8.32892">
        <ele>380.7</ele>
        <time>2016-07-19T08:29:33Z</time>
      </trkpt>
      <trkpt lat="42.91718" lon="-8.32905">
        <ele>379.5</ele>
        <time>2016-07-19T08:29:42Z</time>
      </trkpt>
      <trkpt lat="42.91722" lon="-8.32917">
        <ele>378</ele>
        <time>2016-07-19T08:29:52Z</time>
      </trkpt>
      <trkpt lat="42.91725" lon="-8.32928">
        <ele>377.5</ele>
        <time>2016-07-19T08:29:59Z</time>
      </trkpt>
      <trkpt lat="42.91728" lon="-8.32941">
        <ele>376.8</ele>
        <time>2016-07-19T08:30:08Z</time>
      </trkpt>
      <trkpt lat="42.91731" lon="-8.32953">
        <ele>376.2</ele>
        <time>2016-07-19T08:30:17Z</time>
      </trkpt>
      <trkpt lat="42.91735" lon="-8.32965">
        <ele>375.6</ele>
        <time>2016-07-19T08:30:25Z</time>
      </trkpt>
      <trkpt lat="42.91737" lon="-8.32977">
        <ele>374.7</ele>
        <time>2016-07-19T08:30:35Z</time>
      </trkpt>
      <trkpt lat="42.91738" lon="-8.3299">
        <ele>374</ele>
        <time>2016-07-19T08:30:43Z</time>
      </trkpt>
      <trkpt lat="42.9174" lon="-8.33003">
        <ele>373.5</ele>
        <time>2016-07-19T08:30:51Z</time>
      </trkpt>
      <trkpt lat="42.91743" lon="-8.33016">
        <ele>373</ele>
        <time>2016-07-19T08:31:00Z</time>
      </trkpt>
      <trkpt lat="42.91746" lon="-8.33029">
        <ele>372.3</ele>
        <time>2016-07-19T08:31:08Z</time>
      </trkpt>
      <trkpt lat="42.91748" lon="-8.33042">
        <ele>371</ele>
        <time>2016-07-19T08:31:19Z</time>
      </trkpt>
      <trkpt lat="42.91744" lon="-8.33054">
        <ele>369.4</ele>
        <time>2016-07-19T08:31:42Z</time>
      </trkpt>
      <trkpt lat="42.91738" lon="-8.33063">
        <ele>369.1</ele>
        <time>2016-07-19T08:31:52Z</time>
      </trkpt>
      <trkpt lat="42.91746" lon="-8.33069">
        <ele>369.5</ele>
        <time>2016-07-19T08:32:35Z</time>
      </trkpt>
      <trkpt lat="42.91753" lon="-8.33078">
        <ele>368.8</ele>
        <time>2016-07-19T08:33:20Z</time>
      </trkpt>
      <trkpt lat="42.91753" lon="-8.33091">
        <ele>368.7</ele>
        <time>2016-07-19T08:33:28Z</time>
      </trkpt>
      <trkpt lat="42.91754" lon="-8.33104">
        <ele>368.4</ele>
        <time>2016-07-19T08:33:37Z</time>
      </trkpt>
      <trkpt lat="42.91757" lon="-8.33116">
        <ele>368.2</ele>
        <time>2016-07-19T08:33:47Z</time>
      </trkpt>
      <trkpt lat="42.91759" lon="-8.33128">
        <ele>368.2</ele>
        <time>2016-07-19T08:33:58Z</time>
      </trkpt>
      <trkpt lat="42.91762" lon="-8.33141">
        <ele>368</ele>
        <time>2016-07-19T08:34:07Z</time>
      </trkpt>
      <trkpt lat="42.91763" lon="-8.33153">
        <ele>367.8</ele>
        <time>2016-07-19T08:34:15Z</time>
      </trkpt>
      <trkpt lat="42.91765" lon="-8.33166">
        <ele>367.7</ele>
        <time>2016-07-19T08:34:23Z</time>
      </trkpt>
      <trkpt lat="42.91768" lon="-8.33177">
        <ele>367.8</ele>
        <time>2016-07-19T08:34:31Z</time>
      </trkpt>
      <trkpt lat="42.91768" lon="-8.3319">
        <ele>368.1</ele>
        <time>2016-07-19T08:34:39Z</time>
      </trkpt>
      <trkpt lat="42.91767" lon="-8.33203">
        <ele>368.1</ele>
        <time>2016-07-19T08:34:47Z</time>
      </trkpt>
      <trkpt lat="42.91767" lon="-8.33217">
        <ele>367.9</ele>
        <time>2016-07-19T08:34:55Z</time>
      </trkpt>
      <trkpt lat="42.91768" lon="-8.33229">
        <ele>368.1</ele>
        <time>2016-07-19T08:35:02Z</time>
      </trkpt>
      <trkpt lat="42.9177" lon="-8.33242">
        <ele>368</ele>
        <time>2016-07-19T08:35:10Z</time>
      </trkpt>
      <trkpt lat="42.91771" lon="-8.33256">
        <ele>368</ele>
        <time>2016-07-19T08:35:18Z</time>
      </trkpt>
      <trkpt lat="42.91775" lon="-8.33267">
        <ele>367.6</ele>
        <time>2016-07-19T08:35:25Z</time>
      </trkpt>
      <trkpt lat="42.91778" lon="-8.33281">
        <ele>367.7</ele>
        <time>2016-07-19T08:35:33Z</time>
      </trkpt>
      <trkpt lat="42.9178" lon="-8.33293">
        <ele>367.3</ele>
        <time>2016-07-19T08:35:40Z</time>
      </trkpt>
      <trkpt lat="42.91782" lon="-8.33305">
        <ele>366.9</ele>
        <time>2016-07-19T08:35:48Z</time>
      </trkpt>
      <trkpt lat="42.91784" lon="-8.33318">
        <ele>366.2</ele>
        <time>2016-07-19T08:35:56Z</time>
      </trkpt>
      <trkpt lat="42.91785" lon="-8.33331">
        <ele>365.9</ele>
        <time>2016-07-19T08:36:03Z</time>
      </trkpt>
      <trkpt lat="42.91786" lon="-8.33344">
        <ele>365.7</ele>
        <time>2016-07-19T08:36:13Z</time>
      </trkpt>
      <trkpt lat="42.91789" lon="-8.33358">
        <ele>365.5</ele>
        <time>2016-07-19T08:36:22Z</time>
      </trkpt>
      <trkpt lat="42.91793" lon="-8.33369">
        <ele>365.4</ele>
        <time>2016-07-19T08:36:31Z</time>
      </trkpt>
      <trkpt lat="42.91798" lon="-8.33381">
        <ele>365.2</ele>
        <time>2016-07-19T08:36:39Z</time>
      </trkpt>
      <trkpt lat="42.91802" lon="-8.33392">
        <ele>364.7</ele>
        <time>2016-07-19T08:36:51Z</time>
      </trkpt>
      <trkpt lat="42.91806" lon="-8.33404">
        <ele>363.8</ele>
        <time>2016-07-19T08:36:59Z</time>
      </trkpt>
      <trkpt lat="42.91813" lon="-8.33413">
        <ele>363.4</ele>
        <time>2016-07-19T08:37:09Z</time>
      </trkpt>
      <trkpt lat="42.91815" lon="-8.33426">
        <ele>363.1</ele>
        <time>2016-07-19T08:37:18Z</time>
      </trkpt>
      <trkpt lat="42.91817" lon="-8.33438">
        <ele>362.7</ele>
        <time>2016-07-19T08:37:26Z</time>
      </trkpt>
      <trkpt lat="42.91817" lon="-8.33451">
        <ele>362.5</ele>
        <time>2016-07-19T08:37:34Z</time>
      </trkpt>
      <trkpt lat="42.91818" lon="-8.33465">
        <ele>362.6</ele>
        <time>2016-07-19T08:37:43Z</time>
      </trkpt>
      <trkpt lat="42.91819" lon="-8.33477">
        <ele>362.7</ele>
        <time>2016-07-19T08:37:52Z</time>
      </trkpt>
      <trkpt lat="42.91822" lon="-8.3349">
        <ele>362.5</ele>
        <time>2016-07-19T08:38:01Z</time>
      </trkpt>
      <trkpt lat="42.91823" lon="-8.33503">
        <ele>362.1</ele>
        <time>2016-07-19T08:38:10Z</time>
      </trkpt>
      <trkpt lat="42.91825" lon="-8.33515">
        <ele>361.4</ele>
        <time>2016-07-19T08:38:18Z</time>
      </trkpt>
      <trkpt lat="42.91825" lon="-8.33528">
        <ele>360.8</ele>
        <time>2016-07-19T08:38:25Z</time>
      </trkpt>
      <trkpt lat="42.91826" lon="-8.33541">
        <ele>360.3</ele>
        <time>2016-07-19T08:38:35Z</time>
      </trkpt>
      <trkpt lat="42.91828" lon="-8.33554">
        <ele>359.9</ele>
        <time>2016-07-19T08:38:45Z</time>
      </trkpt>
      <trkpt lat="42.9183" lon="-8.33566">
        <ele>359.5</ele>
        <time>2016-07-19T08:38:53Z</time>
      </trkpt>
      <trkpt lat="42.91831" lon="-8.33579">
        <ele>359.3</ele>
        <time>2016-07-19T08:39:01Z</time>
      </trkpt>
      <trkpt lat="42.91834" lon="-8.33592">
        <ele>358.5</ele>
        <time>2016-07-19T08:39:10Z</time>
      </trkpt>
      <trkpt lat="42.91835" lon="-8.33604">
        <ele>358.1</ele>
        <time>2016-07-19T08:39:17Z</time>
      </trkpt>
      <trkpt lat="42.91835" lon="-8.33617">
        <ele>357.4</ele>
        <time>2016-07-19T08:39:26Z</time>
      </trkpt>
      <trkpt lat="42.91836" lon="-8.33629">
        <ele>356.7</ele>
        <time>2016-07-19T08:39:34Z</time>
      </trkpt>
      <trkpt lat="42.91838" lon="-8.33641">
        <ele>356.4</ele>
        <time>2016-07-19T08:39:42Z</time>
      </trkpt>
      <trkpt lat="42.91837" lon="-8.33655">
        <ele>356.2</ele>
        <time>2016-07-19T08:39:49Z</time>
      </trkpt>
      <trkpt lat="42.91837" lon="-8.33668">
        <ele>355.9</ele>
        <time>2016-07-19T08:39:58Z</time>
      </trkpt>
      <trkpt lat="42.91839" lon="-8.33681">
        <ele>355.5</ele>
        <time>2016-07-19T08:40:05Z</time>
      </trkpt>
      <trkpt lat="42.91839" lon="-8.33695">
        <ele>354.8</ele>
        <time>2016-07-19T08:40:13Z</time>
      </trkpt>
      <trkpt lat="42.91839" lon="-8.33707">
        <ele>354.1</ele>
        <time>2016-07-19T08:40:23Z</time>
      </trkpt>
      <trkpt lat="42.91841" lon="-8.33721">
        <ele>353.4</ele>
        <time>2016-07-19T08:40:32Z</time>
      </trkpt>
      <trkpt lat="42.91843" lon="-8.33733">
        <ele>352</ele>
        <time>2016-07-19T08:40:45Z</time>
      </trkpt>
      <trkpt lat="42.91847" lon="-8.33745">
        <ele>351.1</ele>
        <time>2016-07-19T08:40:54Z</time>
      </trkpt>
      <trkpt lat="42.91847" lon="-8.33758">
        <ele>350.4</ele>
        <time>2016-07-19T08:41:02Z</time>
      </trkpt>
      <trkpt lat="42.91847" lon="-8.33771">
        <ele>349.8</ele>
        <time>2016-07-19T08:41:11Z</time>
      </trkpt>
      <trkpt lat="42.91847" lon="-8.33784">
        <ele>349.2</ele>
        <time>2016-07-19T08:41:19Z</time>
      </trkpt>
      <trkpt lat="42.91847" lon="-8.33796">
        <ele>348.6</ele>
        <time>2016-07-19T08:41:27Z</time>
      </trkpt>
      <trkpt lat="42.91845" lon="-8.33809">
        <ele>348.2</ele>
        <time>2016-07-19T08:41:35Z</time>
      </trkpt>
      <trkpt lat="42.91844" lon="-8.33822">
        <ele>347.4</ele>
        <time>2016-07-19T08:41:44Z</time>
      </trkpt>
      <trkpt lat="42.91845" lon="-8.33834">
        <ele>346.9</ele>
        <time>2016-07-19T08:41:52Z</time>
      </trkpt>
      <trkpt lat="42.91845" lon="-8.33847">
        <ele>346.6</ele>
        <time>2016-07-19T08:42:00Z</time>
      </trkpt>
      <trkpt lat="42.91842" lon="-8.33859">
        <ele>346.4</ele>
        <time>2016-07-19T08:42:09Z</time>
      </trkpt>
      <trkpt lat="42.91841" lon="-8.33872">
        <ele>346.1</ele>
        <time>2016-07-19T08:42:19Z</time>
      </trkpt>
      <trkpt lat="42.91838" lon="-8.33885">
        <ele>345.9</ele>
        <time>2016-07-19T08:42:28Z</time>
      </trkpt>
      <trkpt lat="42.91835" lon="-8.33897">
        <ele>345.9</ele>
        <time>2016-07-19T08:42:36Z</time>
      </trkpt>
      <trkpt lat="42.91832" lon="-8.33909">
        <ele>345.6</ele>
        <time>2016-07-19T08:42:44Z</time>
      </trkpt>
      <trkpt lat="42.91829" lon="-8.3392">
        <ele>345.4</ele>
        <time>2016-07-19T08:42:52Z</time>
      </trkpt>
      <trkpt lat="42.91826" lon="-8.33933">
        <ele>345</ele>
        <time>2016-07-19T08:42:59Z</time>
      </trkpt>
      <trkpt lat="42.91824" lon="-8.33946">
        <ele>344.4</ele>
        <time>2016-07-19T08:43:09Z</time>
      </trkpt>
      <trkpt lat="42.91821" lon="-8.33958">
        <ele>344.6</ele>
        <time>2016-07-19T08:43:20Z</time>
      </trkpt>
      <trkpt lat="42.91817" lon="-8.3397">
        <ele>344.8</ele>
        <time>2016-07-19T08:43:30Z</time>
      </trkpt>
      <trkpt lat="42.91814" lon="-8.33982">
        <ele>344.9</ele>
        <time>2016-07-19T08:43:39Z</time>
      </trkpt>
      <trkpt lat="42.91809" lon="-8.33993">
        <ele>344.8</ele>
        <time>2016-07-19T08:43:48Z</time>
      </trkpt>
      <trkpt lat="42.91806" lon="-8.34006">
        <ele>344.2</ele>
        <time>2016-07-19T08:43:58Z</time>
      </trkpt>
      <trkpt lat="42.91804" lon="-8.34018">
        <ele>344.1</ele>
        <time>2016-07-19T08:44:06Z</time>
      </trkpt>
      <trkpt lat="42.91801" lon="-8.3403">
        <ele>343.7</ele>
        <time>2016-07-19T08:44:14Z</time>
      </trkpt>
      <trkpt lat="42.91796" lon="-8.34041">
        <ele>343.4</ele>
        <time>2016-07-19T08:44:21Z</time>
      </trkpt>
      <trkpt lat="42.91792" lon="-8.34053">
        <ele>342.9</ele>
        <time>2016-07-19T08:44:30Z</time>
      </trkpt>
      <trkpt lat="42.91788" lon="-8.34066">
        <ele>342.6</ele>
        <time>2016-07-19T08:44:37Z</time>
      </trkpt>
      <trkpt lat="42.91785" lon="-8.34078">
        <ele>342.2</ele>
        <time>2016-07-19T08:44:45Z</time>
      </trkpt>
      <trkpt lat="42.91782" lon="-8.3409">
        <ele>341.6</ele>
        <time>2016-07-19T08:44:54Z</time>
      </trkpt>
      <trkpt lat="42.91778" lon="-8.34102">
        <ele>340.9</ele>
        <time>2016-07-19T08:45:03Z</time>
      </trkpt>
      <trkpt lat="42.91775" lon="-8.34115">
        <ele>340.1</ele>
        <time>2016-07-19T08:45:13Z</time>
      </trkpt>
      <trkpt lat="42.91771" lon="-8.34127">
        <ele>339.4</ele>
        <time>2016-07-19T08:45:22Z</time>
      </trkpt>
      <trkpt lat="42.91768" lon="-8.34139">
        <ele>338.8</ele>
        <time>2016-07-19T08:45:30Z</time>
      </trkpt>
      <trkpt lat="42.91764" lon="-8.34151">
        <ele>338.4</ele>
        <time>2016-07-19T08:45:38Z</time>
      </trkpt>
      <trkpt lat="42.91761" lon="-8.34164">
        <ele>337.9</ele>
        <time>2016-07-19T08:45:48Z</time>
      </trkpt>
      <trkpt lat="42.91757" lon="-8.34175">
        <ele>337.5</ele>
        <time>2016-07-19T08:45:55Z</time>
      </trkpt>
      <trkpt lat="42.91753" lon="-8.34188">
        <ele>337</ele>
        <time>2016-07-19T08:46:03Z</time>
      </trkpt>
      <trkpt lat="42.91749" lon="-8.342">
        <ele>336.6</ele>
        <time>2016-07-19T08:46:11Z</time>
      </trkpt>
      <trkpt lat="42.91744" lon="-8.34212">
        <ele>336.3</ele>
        <time>2016-07-19T08:46:19Z</time>
      </trkpt>
      <trkpt lat="42.9174" lon="-8.34223">
        <ele>335.9</ele>
        <time>2016-07-19T08:46:29Z</time>
      </trkpt>
      <trkpt lat="42.91734" lon="-8.34235">
        <ele>335.1</ele>
        <time>2016-07-19T08:46:38Z</time>
      </trkpt>
      <trkpt lat="42.91729" lon="-8.34247">
        <ele>334.3</ele>
        <time>2016-07-19T08:46:49Z</time>
      </trkpt>
      <trkpt lat="42.91726" lon="-8.34258">
        <ele>333.5</ele>
        <time>2016-07-19T08:46:58Z</time>
      </trkpt>
      <trkpt lat="42.91724" lon="-8.34272">
        <ele>332.8</ele>
        <time>2016-07-19T08:47:12Z</time>
      </trkpt>
      <trkpt lat="42.9172" lon="-8.34285">
        <ele>332.1</ele>
        <time>2016-07-19T08:47:20Z</time>
      </trkpt>
      <trkpt lat="42.91716" lon="-8.34297">
        <ele>331.3</ele>
        <time>2016-07-19T08:47:28Z</time>
      </trkpt>
      <trkpt lat="42.9171" lon="-8.34308">
        <ele>330.4</ele>
        <time>2016-07-19T08:47:35Z</time>
      </trkpt>
      <trkpt lat="42.91702" lon="-8.34315">
        <ele>329.5</ele>
        <time>2016-07-19T08:47:45Z</time>
      </trkpt>
      <trkpt lat="42.91693" lon="-8.34319">
        <ele>329</ele>
        <time>2016-07-19T08:47:54Z</time>
      </trkpt>
      <trkpt lat="42.91684" lon="-8.34324">
        <ele>328.1</ele>
        <time>2016-07-19T08:48:03Z</time>
      </trkpt>
      <trkpt lat="42.91675" lon="-8.34324">
        <ele>327.2</ele>
        <time>2016-07-19T08:48:11Z</time>
      </trkpt>
      <trkpt lat="42.91665" lon="-8.34325">
        <ele>326.7</ele>
        <time>2016-07-19T08:48:19Z</time>
      </trkpt>
      <trkpt lat="42.91656" lon="-8.3433">
        <ele>326</ele>
        <time>2016-07-19T08:48:30Z</time>
      </trkpt>
      <trkpt lat="42.91652" lon="-8.34342">
        <ele>325.2</ele>
        <time>2016-07-19T08:48:41Z</time>
      </trkpt>
      <trkpt lat="42.91653" lon="-8.34355">
        <ele>324</ele>
        <time>2016-07-19T08:48:52Z</time>
      </trkpt>
      <trkpt lat="42.91656" lon="-8.34367">
        <ele>323.3</ele>
        <time>2016-07-19T08:49:01Z</time>
      </trkpt>
      <trkpt lat="42.91654" lon="-8.3438">
        <ele>322.4</ele>
        <time>2016-07-19T08:49:09Z</time>
      </trkpt>
      <trkpt lat="42.91645" lon="-8.34386">
        <ele>321.4</ele>
        <time>2016-07-19T08:49:16Z</time>
      </trkpt>
      <trkpt lat="42.91635" lon="-8.34383">
        <ele>320</ele>
        <time>2016-07-19T08:49:20Z</time>
      </trkpt>
      <trkpt lat="42.9163" lon="-8.34395">
        <ele>319</ele>
        <time>2016-07-19T08:49:37Z</time>
      </trkpt>
      <trkpt lat="42.91629" lon="-8.34407">
        <ele>318.5</ele>
        <time>2016-07-19T08:49:44Z</time>
      </trkpt>
      <trkpt lat="42.9163" lon="-8.34419">
        <ele>318.1</ele>
        <time>2016-07-19T08:49:52Z</time>
      </trkpt>
      <trkpt lat="42.9163" lon="-8.34433">
        <ele>317.9</ele>
        <time>2016-07-19T08:50:02Z</time>
      </trkpt>
      <trkpt lat="42.91629" lon="-8.34446">
        <ele>317.8</ele>
        <time>2016-07-19T08:50:11Z</time>
      </trkpt>
      <trkpt lat="42.91625" lon="-8.34457">
        <ele>316.8</ele>
        <time>2016-07-19T08:50:21Z</time>
      </trkpt>
      <trkpt lat="42.91621" lon="-8.34468">
        <ele>315.6</ele>
        <time>2016-07-19T08:50:34Z</time>
      </trkpt>
      <trkpt lat="42.91618" lon="-8.34481">
        <ele>314.6</ele>
        <time>2016-07-19T08:50:44Z</time>
      </trkpt>
      <trkpt lat="42.91613" lon="-8.34492">
        <ele>314</ele>
        <time>2016-07-19T08:50:52Z</time>
      </trkpt>
      <trkpt lat="42.91607" lon="-8.34502">
        <ele>313.3</ele>
        <time>2016-07-19T08:51:00Z</time>
      </trkpt>
      <trkpt lat="42.91603" lon="-8.34514">
        <ele>312.4</ele>
        <time>2016-07-19T08:51:09Z</time>
      </trkpt>
      <trkpt lat="42.91601" lon="-8.34527">
        <ele>311.5</ele>
        <time>2016-07-19T08:51:20Z</time>
      </trkpt>
      <trkpt lat="42.91595" lon="-8.34538">
        <ele>311</ele>
        <time>2016-07-19T08:51:31Z</time>
      </trkpt>
      <trkpt lat="42.91591" lon="-8.34549">
        <ele>310.3</ele>
        <time>2016-07-19T08:51:39Z</time>
      </trkpt>
      <trkpt lat="42.91586" lon="-8.3456">
        <ele>309</ele>
        <time>2016-07-19T08:51:48Z</time>
      </trkpt>
      <trkpt lat="42.91582" lon="-8.34572">
        <ele>308.6</ele>
        <time>2016-07-19T08:51:56Z</time>
      </trkpt>
      <trkpt lat="42.91576" lon="-8.34582">
        <ele>308.2</ele>
        <time>2016-07-19T08:52:04Z</time>
      </trkpt>
      <trkpt lat="42.91571" lon="-8.34593">
        <ele>307.5</ele>
        <time>2016-07-19T08:52:14Z</time>
      </trkpt>
      <trkpt lat="42.91566" lon="-8.34604">
        <ele>307</ele>
        <time>2016-07-19T08:52:24Z</time>
      </trkpt>
      <trkpt lat="42.91561" lon="-8.34615">
        <ele>306.3</ele>
        <time>2016-07-19T08:52:33Z</time>
      </trkpt>
      <trkpt lat="42.91555" lon="-8.34624">
        <ele>306</ele>
        <time>2016-07-19T08:52:42Z</time>
      </trkpt>
      <trkpt lat="42.91549" lon="-8.34633">
        <ele>305.5</ele>
        <time>2016-07-19T08:52:49Z</time>
      </trkpt>
      <trkpt lat="42.91542" lon="-8.34642">
        <ele>305.1</ele>
        <time>2016-07-19T08:52:55Z</time>
      </trkpt>
      <trkpt lat="42.91535" lon="-8.34652">
        <ele>304.3</ele>
        <time>2016-07-19T08:53:04Z</time>
      </trkpt>
      <trkpt lat="42.91529" lon="-8.34661">
        <ele>304.1</ele>
        <time>2016-07-19T08:53:13Z</time>
      </trkpt>
      <trkpt lat="42.91524" lon="-8.34672">
        <ele>303.5</ele>
        <time>2016-07-19T08:53:23Z</time>
      </trkpt>
      <trkpt lat="42.91518" lon="-8.34682">
        <ele>302.8</ele>
        <time>2016-07-19T08:53:35Z</time>
      </trkpt>
      <trkpt lat="42.91513" lon="-8.34694">
        <ele>302.5</ele>
        <time>2016-07-19T08:53:46Z</time>
      </trkpt>
      <trkpt lat="42.91508" lon="-8.34705">
        <ele>301.8</ele>
        <time>2016-07-19T08:53:56Z</time>
      </trkpt>
      <trkpt lat="42.91503" lon="-8.34715">
        <ele>301.3</ele>
        <time>2016-07-19T08:54:04Z</time>
      </trkpt>
      <trkpt lat="42.91496" lon="-8.34724">
        <ele>300.9</ele>
        <time>2016-07-19T08:54:12Z</time>
      </trkpt>
      <trkpt lat="42.91489" lon="-8.34734">
        <ele>300.3</ele>
        <time>2016-07-19T08:54:21Z</time>
      </trkpt>
      <trkpt lat="42.91483" lon="-8.34744">
        <ele>299.5</ele>
        <time>2016-07-19T08:54:31Z</time>
      </trkpt>
      <trkpt lat="42.91476" lon="-8.34754">
        <ele>298.7</ele>
        <time>2016-07-19T08:54:41Z</time>
      </trkpt>
      <trkpt lat="42.91471" lon="-8.34765">
        <ele>298.3</ele>
        <time>2016-07-19T08:54:50Z</time>
      </trkpt>
      <trkpt lat="42.91468" lon="-8.34778">
        <ele>298.1</ele>
        <time>2016-07-19T08:54:59Z</time>
      </trkpt>
      <trkpt lat="42.91464" lon="-8.3479">
        <ele>297.5</ele>
        <time>2016-07-19T08:55:07Z</time>
      </trkpt>
      <trkpt lat="42.91461" lon="-8.34801">
        <ele>297.4</ele>
        <time>2016-07-19T08:55:15Z</time>
      </trkpt>
      <trkpt lat="42.91457" lon="-8.34814">
        <ele>297</ele>
        <time>2016-07-19T08:55:23Z</time>
      </trkpt>
      <trkpt lat="42.91452" lon="-8.34825">
        <ele>296.6</ele>
        <time>2016-07-19T08:55:30Z</time>
      </trkpt>
      <trkpt lat="42.91447" lon="-8.34836">
        <ele>296.1</ele>
        <time>2016-07-19T08:55:39Z</time>
      </trkpt>
      <trkpt lat="42.91443" lon="-8.34848">
        <ele>295.3</ele>
        <time>2016-07-19T08:55:49Z</time>
      </trkpt>
      <trkpt lat="42.9144" lon="-8.3486">
        <ele>294.8</ele>
        <time>2016-07-19T08:55:57Z</time>
      </trkpt>
      <trkpt lat="42.91438" lon="-8.34873">
        <ele>293.9</ele>
        <time>2016-07-19T08:56:06Z</time>
      </trkpt>
      <trkpt lat="42.91436" lon="-8.34886">
        <ele>293.1</ele>
        <time>2016-07-19T08:56:16Z</time>
      </trkpt>
      <trkpt lat="42.91438" lon="-8.34898">
        <ele>292.5</ele>
        <time>2016-07-19T08:56:26Z</time>
      </trkpt>
      <trkpt lat="42.9144" lon="-8.34911">
        <ele>291.4</ele>
        <time>2016-07-19T08:56:43Z</time>
      </trkpt>
      <trkpt lat="42.91447" lon="-8.34919">
        <ele>290.4</ele>
        <time>2016-07-19T08:57:04Z</time>
      </trkpt>
      <trkpt lat="42.91455" lon="-8.34926">
        <ele>289.6</ele>
        <time>2016-07-19T08:57:15Z</time>
      </trkpt>
      <trkpt lat="42.91461" lon="-8.34936">
        <ele>288.5</ele>
        <time>2016-07-19T08:57:25Z</time>
      </trkpt>
      <trkpt lat="42.91466" lon="-8.34947">
        <ele>287.6</ele>
        <time>2016-07-19T08:57:33Z</time>
      </trkpt>
      <trkpt lat="42.91468" lon="-8.34959">
        <ele>286.3</ele>
        <time>2016-07-19T08:57:43Z</time>
      </trkpt>
      <trkpt lat="42.91468" lon="-8.34972">
        <ele>284.9</ele>
        <time>2016-07-19T08:57:52Z</time>
      </trkpt>
      <trkpt lat="42.91468" lon="-8.34984">
        <ele>283.6</ele>
        <time>2016-07-19T08:58:00Z</time>
      </trkpt>
      <trkpt lat="42.91466" lon="-8.34997">
        <ele>282.8</ele>
        <time>2016-07-19T08:58:07Z</time>
      </trkpt>
      <trkpt lat="42.91465" lon="-8.3501">
        <ele>281.8</ele>
        <time>2016-07-19T08:58:16Z</time>
      </trkpt>
      <trkpt lat="42.91462" lon="-8.35022">
        <ele>281</ele>
        <time>2016-07-19T08:58:30Z</time>
      </trkpt>
      <trkpt lat="42.9146" lon="-8.35034">
        <ele>280.8</ele>
        <time>2016-07-19T08:58:40Z</time>
      </trkpt>
      <trkpt lat="42.91456" lon="-8.35045">
        <ele>280.3</ele>
        <time>2016-07-19T08:58:48Z</time>
      </trkpt>
      <trkpt lat="42.91453" lon="-8.35058">
        <ele>279.8</ele>
        <time>2016-07-19T08:58:57Z</time>
      </trkpt>
      <trkpt lat="42.9145" lon="-8.3507">
        <ele>279.5</ele>
        <time>2016-07-19T08:59:08Z</time>
      </trkpt>
      <trkpt lat="42.9145" lon="-8.35083">
        <ele>277.8</ele>
        <time>2016-07-19T08:59:58Z</time>
      </trkpt>
      <trkpt lat="42.91444" lon="-8.35091">
        <ele>277.5</ele>
        <time>2016-07-19T09:00:20Z</time>
      </trkpt>
      <trkpt lat="42.91439" lon="-8.35102">
        <ele>277.5</ele>
        <time>2016-07-19T09:00:34Z</time>
      </trkpt>
      <trkpt lat="42.91432" lon="-8.3511">
        <ele>277.4</ele>
        <time>2016-07-19T09:00:47Z</time>
      </trkpt>
      <trkpt lat="42.9143" lon="-8.35122">
        <ele>277.3</ele>
        <time>2016-07-19T09:00:56Z</time>
      </trkpt>
      <trkpt lat="42.91426" lon="-8.35134">
        <ele>277.2</ele>
        <time>2016-07-19T09:01:04Z</time>
      </trkpt>
      <trkpt lat="42.91422" lon="-8.35147">
        <ele>277</ele>
        <time>2016-07-19T09:01:11Z</time>
      </trkpt>
      <trkpt lat="42.91418" lon="-8.3516">
        <ele>276.7</ele>
        <time>2016-07-19T09:01:20Z</time>
      </trkpt>
      <trkpt lat="42.91414" lon="-8.35172">
        <ele>276.5</ele>
        <time>2016-07-19T09:01:27Z</time>
      </trkpt>
      <trkpt lat="42.91409" lon="-8.35183">
        <ele>276.7</ele>
        <time>2016-07-19T09:01:34Z</time>
      </trkpt>
      <trkpt lat="42.91405" lon="-8.35194">
        <ele>276.5</ele>
        <time>2016-07-19T09:01:41Z</time>
      </trkpt>
      <trkpt lat="42.914" lon="-8.35207">
        <ele>276.2</ele>
        <time>2016-07-19T09:01:49Z</time>
      </trkpt>
      <trkpt lat="42.91396" lon="-8.35218">
        <ele>275.9</ele>
        <time>2016-07-19T09:01:57Z</time>
      </trkpt>
      <trkpt lat="42.91392" lon="-8.35229">
        <ele>276</ele>
        <time>2016-07-19T09:02:07Z</time>
      </trkpt>
      <trkpt lat="42.91387" lon="-8.35241">
        <ele>276.7</ele>
        <time>2016-07-19T09:02:16Z</time>
      </trkpt>
      <trkpt lat="42.91382" lon="-8.35251">
        <ele>276.2</ele>
        <time>2016-07-19T09:02:24Z</time>
      </trkpt>
      <trkpt lat="42.91376" lon="-8.35262">
        <ele>275.8</ele>
        <time>2016-07-19T09:02:32Z</time>
      </trkpt>
      <trkpt lat="42.91372" lon="-8.35274">
        <ele>275.5</ele>
        <time>2016-07-19T09:02:41Z</time>
      </trkpt>
      <trkpt lat="42.91366" lon="-8.35284">
        <ele>275.4</ele>
        <time>2016-07-19T09:02:50Z</time>
      </trkpt>
      <trkpt lat="42.91359" lon="-8.35293">
        <ele>275.1</ele>
        <time>2016-07-19T09:03:00Z</time>
      </trkpt>
      <trkpt lat="42.91353" lon="-8.35302">
        <ele>274.8</ele>
        <time>2016-07-19T09:03:09Z</time>
      </trkpt>
      <trkpt lat="42.91346" lon="-8.35311">
        <ele>274.7</ele>
        <time>2016-07-19T09:03:17Z</time>
      </trkpt>
      <trkpt lat="42.91339" lon="-8.35319">
        <ele>274.6</ele>
        <time>2016-07-19T09:03:25Z</time>
      </trkpt>
      <trkpt lat="42.91331" lon="-8.35329">
        <ele>274.6</ele>
        <time>2016-07-19T09:03:36Z</time>
      </trkpt>
      <trkpt lat="42.91324" lon="-8.35336">
        <ele>274.3</ele>
        <time>2016-07-19T09:03:45Z</time>
      </trkpt>
      <trkpt lat="42.91316" lon="-8.35345">
        <ele>273.9</ele>
        <time>2016-07-19T09:03:55Z</time>
      </trkpt>
      <trkpt lat="42.91308" lon="-8.35352">
        <ele>274</ele>
        <time>2016-07-19T09:04:05Z</time>
      </trkpt>
      <trkpt lat="42.91302" lon="-8.35362">
        <ele>273.8</ele>
        <time>2016-07-19T09:04:15Z</time>
      </trkpt>
      <trkpt lat="42.91298" lon="-8.35375">
        <ele>273.7</ele>
        <time>2016-07-19T09:04:24Z</time>
      </trkpt>
      <trkpt lat="42.91295" lon="-8.35387">
        <ele>273.5</ele>
        <time>2016-07-19T09:04:33Z</time>
      </trkpt>
      <trkpt lat="42.91291" lon="-8.354">
        <ele>273.3</ele>
        <time>2016-07-19T09:04:43Z</time>
      </trkpt>
      <trkpt lat="42.91287" lon="-8.35411">
        <ele>272.8</ele>
        <time>2016-07-19T09:04:51Z</time>
      </trkpt>
      <trkpt lat="42.91282" lon="-8.35422">
        <ele>272.1</ele>
        <time>2016-07-19T09:05:00Z</time>
      </trkpt>
      <trkpt lat="42.91279" lon="-8.35434">
        <ele>271.2</ele>
        <time>2016-07-19T09:05:10Z</time>
      </trkpt>
      <trkpt lat="42.91276" lon="-8.35447">
        <ele>270.5</ele>
        <time>2016-07-19T09:05:19Z</time>
      </trkpt>
      <trkpt lat="42.91274" lon="-8.3546">
        <ele>269.9</ele>
        <time>2016-07-19T09:05:27Z</time>
      </trkpt>
      <trkpt lat="42.91271" lon="-8.35472">
        <ele>269.5</ele>
        <time>2016-07-19T09:05:34Z</time>
      </trkpt>
      <trkpt lat="42.91268" lon="-8.35485">
        <ele>269.1</ele>
        <time>2016-07-19T09:05:42Z</time>
      </trkpt>
      <trkpt lat="42.91265" lon="-8.35497">
        <ele>268.7</ele>
        <time>2016-07-19T09:05:50Z</time>
      </trkpt>
      <trkpt lat="42.91263" lon="-8.35509">
        <ele>268.4</ele>
        <time>2016-07-19T09:05:57Z</time>
      </trkpt>
      <trkpt lat="42.91259" lon="-8.35522">
        <ele>267.9</ele>
        <time>2016-07-19T09:06:05Z</time>
      </trkpt>
      <trkpt lat="42.91256" lon="-8.35535">
        <ele>267.4</ele>
        <time>2016-07-19T09:06:12Z</time>
      </trkpt>
      <trkpt lat="42.91253" lon="-8.35546">
        <ele>266.6</ele>
        <time>2016-07-19T09:06:20Z</time>
      </trkpt>
      <trkpt lat="42.91252" lon="-8.35559">
        <ele>265.7</ele>
        <time>2016-07-19T09:06:28Z</time>
      </trkpt>
      <trkpt lat="42.91251" lon="-8.35573">
        <ele>265</ele>
        <time>2016-07-19T09:06:37Z</time>
      </trkpt>
      <trkpt lat="42.91252" lon="-8.35585">
        <ele>264.3</ele>
        <time>2016-07-19T09:06:46Z</time>
      </trkpt>
      <trkpt lat="42.9125" lon="-8.35599">
        <ele>263.3</ele>
        <time>2016-07-19T09:06:55Z</time>
      </trkpt>
      <trkpt lat="42.91249" lon="-8.35612">
        <ele>262.4</ele>
        <time>2016-07-19T09:07:04Z</time>
      </trkpt>
      <trkpt lat="42.91248" lon="-8.35625">
        <ele>261.6</ele>
        <time>2016-07-19T09:07:13Z</time>
      </trkpt>
      <trkpt lat="42.91247" lon="-8.35637">
        <ele>260.4</ele>
        <time>2016-07-19T09:07:21Z</time>
      </trkpt>
      <trkpt lat="42.91248" lon="-8.3565">
        <ele>259.7</ele>
        <time>2016-07-19T09:07:29Z</time>
      </trkpt>
      <trkpt lat="42.91244" lon="-8.35661">
        <ele>258.6</ele>
        <time>2016-07-19T09:08:01Z</time>
      </trkpt>
      <trkpt lat="42.91244" lon="-8.35673">
        <ele>258</ele>
        <time>2016-07-19T09:08:13Z</time>
      </trkpt>
      <trkpt lat="42.91239" lon="-8.35686">
        <ele>257.8</ele>
        <time>2016-07-19T09:08:27Z</time>
      </trkpt>
      <trkpt lat="42.91233" lon="-8.35696">
        <ele>258.1</ele>
        <time>2016-07-19T09:08:35Z</time>
      </trkpt>
      <trkpt lat="42.91229" lon="-8.35708">
        <ele>258.9</ele>
        <time>2016-07-19T09:08:44Z</time>
      </trkpt>
      <trkpt lat="42.91224" lon="-8.35718">
        <ele>259.9</ele>
        <time>2016-07-19T09:08:52Z</time>
      </trkpt>
      <trkpt lat="42.91219" lon="-8.35729">
        <ele>260.7</ele>
        <time>2016-07-19T09:09:03Z</time>
      </trkpt>
      <trkpt lat="42.91212" lon="-8.35737">
        <ele>261.6</ele>
        <time>2016-07-19T09:09:13Z</time>
      </trkpt>
      <trkpt lat="42.91216" lon="-8.35748">
        <ele>263.1</ele>
        <time>2016-07-19T09:09:50Z</time>
      </trkpt>
      <trkpt lat="42.91214" lon="-8.35761">
        <ele>262.9</ele>
        <time>2016-07-19T09:10:15Z</time>
      </trkpt>
      <trkpt lat="42.91206" lon="-8.35766">
        <ele>263.2</ele>
        <time>2016-07-19T09:10:24Z</time>
      </trkpt>
      <trkpt lat="42.91198" lon="-8.35774">
        <ele>263.4</ele>
        <time>2016-07-19T09:10:39Z</time>
      </trkpt>
      <trkpt lat="42.91191" lon="-8.35783">
        <ele>263.4</ele>
        <time>2016-07-19T09:10:50Z</time>
      </trkpt>
      <trkpt lat="42.91184" lon="-8.35791">
        <ele>263.8</ele>
        <time>2016-07-19T09:10:59Z</time>
      </trkpt>
      <trkpt lat="42.91176" lon="-8.35799">
        <ele>264.2</ele>
        <time>2016-07-19T09:11:07Z</time>
      </trkpt>
      <trkpt lat="42.9117" lon="-8.35809">
        <ele>264.7</ele>
        <time>2016-07-19T09:11:18Z</time>
      </trkpt>
      <trkpt lat="42.91164" lon="-8.35818">
        <ele>265</ele>
        <time>2016-07-19T09:11:28Z</time>
      </trkpt>
      <trkpt lat="42.91159" lon="-8.35829">
        <ele>265.6</ele>
        <time>2016-07-19T09:11:38Z</time>
      </trkpt>
      <trkpt lat="42.91152" lon="-8.35838">
        <ele>266.1</ele>
        <time>2016-07-19T09:11:47Z</time>
      </trkpt>
      <trkpt lat="42.91145" lon="-8.35847">
        <ele>266.5</ele>
        <time>2016-07-19T09:11:56Z</time>
      </trkpt>
      <trkpt lat="42.91138" lon="-8.35856">
        <ele>267</ele>
        <time>2016-07-19T09:12:05Z</time>
      </trkpt>
      <trkpt lat="42.91131" lon="-8.35866">
        <ele>267.2</ele>
        <time>2016-07-19T09:12:12Z</time>
      </trkpt>
      <trkpt lat="42.91125" lon="-8.35876">
        <ele>267.3</ele>
        <time>2016-07-19T09:12:21Z</time>
      </trkpt>
      <trkpt lat="42.91119" lon="-8.35886">
        <ele>267.4</ele>
        <time>2016-07-19T09:12:31Z</time>
      </trkpt>
      <trkpt lat="42.91113" lon="-8.35896">
        <ele>267.5</ele>
        <time>2016-07-19T09:12:40Z</time>
      </trkpt>
      <trkpt lat="42.91108" lon="-8.35906">
        <ele>267.9</ele>
        <time>2016-07-19T09:12:48Z</time>
      </trkpt>
      <trkpt lat="42.91103" lon="-8.35916">
        <ele>268.6</ele>
        <time>2016-07-19T09:12:58Z</time>
      </trkpt>
      <trkpt lat="42.91097" lon="-8.35927">
        <ele>268.9</ele>
        <time>2016-07-19T09:13:07Z</time>
      </trkpt>
      <trkpt lat="42.91091" lon="-8.35937">
        <ele>269.2</ele>
        <time>2016-07-19T09:13:17Z</time>
      </trkpt>
      <trkpt lat="42.91086" lon="-8.35947">
        <ele>269.5</ele>
        <time>2016-07-19T09:13:26Z</time>
      </trkpt>
      <trkpt lat="42.91079" lon="-8.35957">
        <ele>269.8</ele>
        <time>2016-07-19T09:13:36Z</time>
      </trkpt>
      <trkpt lat="42.91073" lon="-8.35966">
        <ele>270</ele>
        <time>2016-07-19T09:13:46Z</time>
      </trkpt>
      <trkpt lat="42.91068" lon="-8.35978">
        <ele>270.1</ele>
        <time>2016-07-19T09:13:58Z</time>
      </trkpt>
      <trkpt lat="42.91062" lon="-8.35987">
        <ele>270.4</ele>
        <time>2016-07-19T09:14:07Z</time>
      </trkpt>
      <trkpt lat="42.91056" lon="-8.35996">
        <ele>270.7</ele>
        <time>2016-07-19T09:14:14Z</time>
      </trkpt>
      <trkpt lat="42.9105" lon="-8.36007">
        <ele>271.3</ele>
        <time>2016-07-19T09:14:23Z</time>
      </trkpt>
      <trkpt lat="42.91043" lon="-8.36016">
        <ele>271.7</ele>
        <time>2016-07-19T09:14:31Z</time>
      </trkpt>
      <trkpt lat="42.9104" lon="-8.36028">
        <ele>271.9</ele>
        <time>2016-07-19T09:14:39Z</time>
      </trkpt>
      <trkpt lat="42.91037" lon="-8.3604">
        <ele>272.6</ele>
        <time>2016-07-19T09:14:48Z</time>
      </trkpt>
      <trkpt lat="42.91032" lon="-8.36052">
        <ele>272.8</ele>
        <time>2016-07-19T09:14:56Z</time>
      </trkpt>
      <trkpt lat="42.91026" lon="-8.36062">
        <ele>272.9</ele>
        <time>2016-07-19T09:15:04Z</time>
      </trkpt>
      <trkpt lat="42.9102" lon="-8.36073">
        <ele>273.7</ele>
        <time>2016-07-19T09:15:14Z</time>
      </trkpt>
      <trkpt lat="42.91013" lon="-8.36082">
        <ele>274.5</ele>
        <time>2016-07-19T09:15:22Z</time>
      </trkpt>
      <trkpt lat="42.91008" lon="-8.36093">
        <ele>275.5</ele>
        <time>2016-07-19T09:15:35Z</time>
      </trkpt>
      <trkpt lat="42.91002" lon="-8.36103">
        <ele>276.2</ele>
        <time>2016-07-19T09:15:44Z</time>
      </trkpt>
      <trkpt lat="42.90999" lon="-8.36116">
        <ele>276.6</ele>
        <time>2016-07-19T09:15:53Z</time>
      </trkpt>
      <trkpt lat="42.90997" lon="-8.36129">
        <ele>276.7</ele>
        <time>2016-07-19T09:16:04Z</time>
      </trkpt>
      <trkpt lat="42.90993" lon="-8.36141">
        <ele>277.5</ele>
        <time>2016-07-19T09:16:14Z</time>
      </trkpt>
      <trkpt lat="42.90993" lon="-8.36154">
        <ele>278.2</ele>
        <time>2016-07-19T09:16:22Z</time>
      </trkpt>
      <trkpt lat="42.9099" lon="-8.36167">
        <ele>279.3</ele>
        <time>2016-07-19T09:16:30Z</time>
      </trkpt>
      <trkpt lat="42.90988" lon="-8.3618">
        <ele>280</ele>
        <time>2016-07-19T09:16:40Z</time>
      </trkpt>
      <trkpt lat="42.90984" lon="-8.36192">
        <ele>280.6</ele>
        <time>2016-07-19T09:16:49Z</time>
      </trkpt>
      <trkpt lat="42.90981" lon="-8.36205">
        <ele>281.2</ele>
        <time>2016-07-19T09:16:59Z</time>
      </trkpt>
      <trkpt lat="42.90979" lon="-8.36217">
        <ele>281.4</ele>
        <time>2016-07-19T09:17:08Z</time>
      </trkpt>
      <trkpt lat="42.90974" lon="-8.36228">
        <ele>282.1</ele>
        <time>2016-07-19T09:17:19Z</time>
      </trkpt>
      <trkpt lat="42.90968" lon="-8.36239">
        <ele>282.9</ele>
        <time>2016-07-19T09:17:28Z</time>
      </trkpt>
      <trkpt lat="42.90963" lon="-8.36249">
        <ele>284.4</ele>
        <time>2016-07-19T09:17:40Z</time>
      </trkpt>
      <trkpt lat="42.90958" lon="-8.3626">
        <ele>285.1</ele>
        <time>2016-07-19T09:17:49Z</time>
      </trkpt>
      <trkpt lat="42.90953" lon="-8.36271">
        <ele>285.5</ele>
        <time>2016-07-19T09:17:57Z</time>
      </trkpt>
      <trkpt lat="42.90948" lon="-8.36283">
        <ele>286</ele>
        <time>2016-07-19T09:18:05Z</time>
      </trkpt>
      <trkpt lat="42.90943" lon="-8.36294">
        <ele>286.6</ele>
        <time>2016-07-19T09:18:14Z</time>
      </trkpt>
      <trkpt lat="42.90938" lon="-8.36305">
        <ele>286.9</ele>
        <time>2016-07-19T09:18:24Z</time>
      </trkpt>
      <trkpt lat="42.90932" lon="-8.36315">
        <ele>287.6</ele>
        <time>2016-07-19T09:18:33Z</time>
      </trkpt>
      <trkpt lat="42.90925" lon="-8.36325">
        <ele>287.9</ele>
        <time>2016-07-19T09:18:41Z</time>
      </trkpt>
      <trkpt lat="42.90919" lon="-8.36336">
        <ele>288.4</ele>
        <time>2016-07-19T09:18:49Z</time>
      </trkpt>
      <trkpt lat="42.90916" lon="-8.36348">
        <ele>288.9</ele>
        <time>2016-07-19T09:18:58Z</time>
      </trkpt>
      <trkpt lat="42.90909" lon="-8.36357">
        <ele>289.3</ele>
        <time>2016-07-19T09:19:06Z</time>
      </trkpt>
      <trkpt lat="42.90901" lon="-8.36363">
        <ele>289.8</ele>
        <time>2016-07-19T09:19:18Z</time>
      </trkpt>
      <trkpt lat="42.90892" lon="-8.36359">
        <ele>289.8</ele>
        <time>2016-07-19T09:19:30Z</time>
      </trkpt>
      <trkpt lat="42.90884" lon="-8.36352">
        <ele>290.5</ele>
        <time>2016-07-19T09:19:41Z</time>
      </trkpt>
      <trkpt lat="42.90878" lon="-8.36343">
        <ele>290.9</ele>
        <time>2016-07-19T09:19:50Z</time>
      </trkpt>
      <trkpt lat="42.90873" lon="-8.36333">
        <ele>291.2</ele>
        <time>2016-07-19T09:19:59Z</time>
      </trkpt>
      <trkpt lat="42.90864" lon="-8.36328">
        <ele>292</ele>
        <time>2016-07-19T09:20:12Z</time>
      </trkpt>
      <trkpt lat="42.90855" lon="-8.36325">
        <ele>292.4</ele>
        <time>2016-07-19T09:20:22Z</time>
      </trkpt>
      <trkpt lat="42.90846" lon="-8.36324">
        <ele>292.5</ele>
        <time>2016-07-19T09:20:31Z</time>
      </trkpt>
      <trkpt lat="42.90836" lon="-8.36325">
        <ele>292.7</ele>
        <time>2016-07-19T09:20:40Z</time>
      </trkpt>
      <trkpt lat="42.90827" lon="-8.36327">
        <ele>292.5</ele>
        <time>2016-07-19T09:20:48Z</time>
      </trkpt>
      <trkpt lat="42.90817" lon="-8.36329">
        <ele>292.6</ele>
        <time>2016-07-19T09:20:58Z</time>
      </trkpt>
      <trkpt lat="42.90809" lon="-8.36336">
        <ele>293.2</ele>
        <time>2016-07-19T09:21:14Z</time>
      </trkpt>
      <trkpt lat="42.90801" lon="-8.36342">
        <ele>293.3</ele>
        <time>2016-07-19T09:21:23Z</time>
      </trkpt>
      <trkpt lat="42.90793" lon="-8.36347">
        <ele>293.4</ele>
        <time>2016-07-19T09:21:31Z</time>
      </trkpt>
      <trkpt lat="42.90783" lon="-8.36351">
        <ele>293.5</ele>
        <time>2016-07-19T09:21:40Z</time>
      </trkpt>
      <trkpt lat="42.90774" lon="-8.36354">
        <ele>293.5</ele>
        <time>2016-07-19T09:21:48Z</time>
      </trkpt>
      <trkpt lat="42.90765" lon="-8.36358">
        <ele>293.5</ele>
        <time>2016-07-19T09:21:57Z</time>
      </trkpt>
      <trkpt lat="42.90758" lon="-8.36367">
        <ele>293.3</ele>
        <time>2016-07-19T09:22:06Z</time>
      </trkpt>
      <trkpt lat="42.9075" lon="-8.36375">
        <ele>293</ele>
        <time>2016-07-19T09:22:15Z</time>
      </trkpt>
      <trkpt lat="42.90743" lon="-8.36381">
        <ele>292.6</ele>
        <time>2016-07-19T09:22:22Z</time>
      </trkpt>
      <trkpt lat="42.90736" lon="-8.36391">
        <ele>292.7</ele>
        <time>2016-07-19T09:22:31Z</time>
      </trkpt>
      <trkpt lat="42.90728" lon="-8.36397">
        <ele>292.1</ele>
        <time>2016-07-19T09:22:41Z</time>
      </trkpt>
      <trkpt lat="42.90718" lon="-8.36399">
        <ele>291.4</ele>
        <time>2016-07-19T09:22:55Z</time>
      </trkpt>
      <trkpt lat="42.90709" lon="-8.364">
        <ele>291.4</ele>
        <time>2016-07-19T09:23:05Z</time>
      </trkpt>
      <trkpt lat="42.907" lon="-8.36396">
        <ele>291.7</ele>
        <time>2016-07-19T09:23:15Z</time>
      </trkpt>
      <trkpt lat="42.90691" lon="-8.36394">
        <ele>291.8</ele>
        <time>2016-07-19T09:23:24Z</time>
      </trkpt>
      <trkpt lat="42.90682" lon="-8.36389">
        <ele>291.8</ele>
        <time>2016-07-19T09:23:33Z</time>
      </trkpt>
      <trkpt lat="42.90673" lon="-8.36384">
        <ele>292.3</ele>
        <time>2016-07-19T09:23:44Z</time>
      </trkpt>
      <trkpt lat="42.90664" lon="-8.3638">
        <ele>292.5</ele>
        <time>2016-07-19T09:23:53Z</time>
      </trkpt>
      <trkpt lat="42.90654" lon="-8.3638">
        <ele>292.2</ele>
        <time>2016-07-19T09:24:02Z</time>
      </trkpt>
      <trkpt lat="42.90646" lon="-8.36385">
        <ele>292.5</ele>
        <time>2016-07-19T09:24:17Z</time>
      </trkpt>
      <trkpt lat="42.9064" lon="-8.36394">
        <ele>292.1</ele>
        <time>2016-07-19T09:24:32Z</time>
      </trkpt>
      <trkpt lat="42.9064" lon="-8.36406">
        <ele>290.7</ele>
        <time>2016-07-19T09:24:44Z</time>
      </trkpt>
      <trkpt lat="42.9064" lon="-8.36419">
        <ele>289.6</ele>
        <time>2016-07-19T09:24:55Z</time>
      </trkpt>
      <trkpt lat="42.90638" lon="-8.36432">
        <ele>288.2</ele>
        <time>2016-07-19T09:25:11Z</time>
      </trkpt>
      <trkpt lat="42.90637" lon="-8.36444">
        <ele>287.7</ele>
        <time>2016-07-19T09:25:20Z</time>
      </trkpt>
      <trkpt lat="42.90635" lon="-8.36457">
        <ele>287.6</ele>
        <time>2016-07-19T09:25:29Z</time>
      </trkpt>
      <trkpt lat="42.90633" lon="-8.3647">
        <ele>287.2</ele>
        <time>2016-07-19T09:25:41Z</time>
      </trkpt>
      <trkpt lat="42.90633" lon="-8.36482">
        <ele>286.9</ele>
        <time>2016-07-19T09:25:50Z</time>
      </trkpt>
      <trkpt lat="42.90633" lon="-8.36495">
        <ele>286</ele>
        <time>2016-07-19T09:26:00Z</time>
      </trkpt>
      <trkpt lat="42.90632" lon="-8.36508">
        <ele>285.3</ele>
        <time>2016-07-19T09:26:09Z</time>
      </trkpt>
      <trkpt lat="42.90633" lon="-8.36522">
        <ele>285</ele>
        <time>2016-07-19T09:26:18Z</time>
      </trkpt>
      <trkpt lat="42.9063" lon="-8.36534">
        <ele>284.8</ele>
        <time>2016-07-19T09:26:27Z</time>
      </trkpt>
      <trkpt lat="42.90628" lon="-8.36546">
        <ele>284.8</ele>
        <time>2016-07-19T09:26:36Z</time>
      </trkpt>
      <trkpt lat="42.90628" lon="-8.36558">
        <ele>284.6</ele>
        <time>2016-07-19T09:26:46Z</time>
      </trkpt>
      <trkpt lat="42.90623" lon="-8.3657">
        <ele>284.4</ele>
        <time>2016-07-19T09:26:56Z</time>
      </trkpt>
      <trkpt lat="42.90615" lon="-8.36576">
        <ele>284</ele>
        <time>2016-07-19T09:27:05Z</time>
      </trkpt>
      <trkpt lat="42.90606" lon="-8.36579">
        <ele>283.4</ele>
        <time>2016-07-19T09:27:15Z</time>
      </trkpt>
      <trkpt lat="42.90597" lon="-8.36591">
        <ele>282</ele>
        <time>2016-07-19T09:28:49Z</time>
      </trkpt>
      <trkpt lat="42.90597" lon="-8.36606">
        <ele>282</ele>
        <time>2016-07-19T09:28:53Z</time>
      </trkpt>
      <trkpt lat="42.90597" lon="-8.36587">
        <ele>282</ele>
        <time>2016-07-19T09:29:22Z</time>
      </trkpt>
      <trkpt lat="42.90619" lon="-8.36607">
        <ele>282</ele>
        <time>2016-07-19T09:29:28Z</time>
      </trkpt>
      <trkpt lat="42.90611" lon="-8.36589">
        <ele>282.4</ele>
        <time>2016-07-19T09:29:31Z</time>
      </trkpt>
      <trkpt lat="42.90609" lon="-8.36574">
        <ele>282</ele>
        <time>2016-07-19T09:29:37Z</time>
      </trkpt>
      <trkpt lat="42.906" lon="-8.36561">
        <ele>281.9</ele>
        <time>2016-07-19T09:29:39Z</time>
      </trkpt>
      <trkpt lat="42.90596" lon="-8.36549">
        <ele>281.9</ele>
        <time>2016-07-19T09:29:46Z</time>
      </trkpt>
      <trkpt lat="42.90598" lon="-8.36561">
        <ele>281.8</ele>
        <time>2016-07-19T09:30:05Z</time>
      </trkpt>
      <trkpt lat="42.90607" lon="-8.36559">
        <ele>281.2</ele>
        <time>2016-07-19T09:31:36Z</time>
      </trkpt>
      <trkpt lat="42.90613" lon="-8.36543">
        <ele>280</ele>
        <time>2016-07-19T09:32:15Z</time>
      </trkpt>
      <trkpt lat="42.9061" lon="-8.36555">
        <ele>281.4</ele>
        <time>2016-07-19T09:32:48Z</time>
      </trkpt>
      <trkpt lat="42.90613" lon="-8.36543">
        <ele>282.5</ele>
        <time>2016-07-19T09:34:53Z</time>
      </trkpt>
      <trkpt lat="42.90604" lon="-8.36545">
        <ele>282.6</ele>
        <time>2016-07-19T09:35:13Z</time>
      </trkpt>
      <trkpt lat="42.906" lon="-8.36556">
        <ele>282.8</ele>
        <time>2016-07-19T09:35:28Z</time>
      </trkpt>
      <trkpt lat="42.90595" lon="-8.36545">
        <ele>283.2</ele>
        <time>2016-07-19T09:36:06Z</time>
      </trkpt>
      <trkpt lat="42.90587" lon="-8.36551">
        <ele>283.2</ele>
        <time>2016-07-19T09:36:38Z</time>
      </trkpt>
      <trkpt lat="42.90587" lon="-8.36564">
        <ele>283.1</ele>
        <time>2016-07-19T09:36:44Z</time>
      </trkpt>
      <trkpt lat="42.90598" lon="-8.36569">
        <ele>283</ele>
        <time>2016-07-19T09:37:04Z</time>
      </trkpt>
      <trkpt lat="42.906" lon="-8.36582">
        <ele>283.3</ele>
        <time>2016-07-19T09:37:09Z</time>
      </trkpt>
      <trkpt lat="42.90603" lon="-8.36594">
        <ele>283.2</ele>
        <time>2016-07-19T09:37:26Z</time>
      </trkpt>
      <trkpt lat="42.90602" lon="-8.36608">
        <ele>283.1</ele>
        <time>2016-07-19T09:37:37Z</time>
      </trkpt>
      <trkpt lat="42.90609" lon="-8.36617">
        <ele>283.9</ele>
        <time>2016-07-19T09:37:54Z</time>
      </trkpt>
      <trkpt lat="42.906" lon="-8.36614">
        <ele>283</ele>
        <time>2016-07-19T09:38:25Z</time>
      </trkpt>
      <trkpt lat="42.90606" lon="-8.3663">
        <ele>283</ele>
        <time>2016-07-19T09:38:38Z</time>
      </trkpt>
      <trkpt lat="42.90598" lon="-8.36624">
        <ele>283.8</ele>
        <time>2016-07-19T09:39:45Z</time>
      </trkpt>
      <trkpt lat="42.90576" lon="-8.3658">
        <ele>283</ele>
        <time>2016-07-19T09:39:52Z</time>
      </trkpt>
      <trkpt lat="42.90598" lon="-8.36606">
        <ele>283</ele>
        <time>2016-07-19T09:40:17Z</time>
      </trkpt>
      <trkpt lat="42.90601" lon="-8.36618">
        <ele>283.5</ele>
        <time>2016-07-19T09:41:12Z</time>
      </trkpt>
      <trkpt lat="42.9061" lon="-8.36623">
        <ele>283.2</ele>
        <time>2016-07-19T09:42:13Z</time>
      </trkpt>
      <trkpt lat="42.90604" lon="-8.36613">
        <ele>282.3</ele>
        <time>2016-07-19T09:43:06Z</time>
      </trkpt>
      <trkpt lat="42.90595" lon="-8.36613">
        <ele>282.4</ele>
        <time>2016-07-19T09:43:51Z</time>
      </trkpt>
      <trkpt lat="42.90588" lon="-8.36605">
        <ele>282.1</ele>
        <time>2016-07-19T09:45:45Z</time>
      </trkpt>
      <trkpt lat="42.90595" lon="-8.36612">
        <ele>281.9</ele>
        <time>2016-07-19T09:49:03Z</time>
      </trkpt>
      <trkpt lat="42.90598" lon="-8.36601">
        <ele>281.7</ele>
        <time>2016-07-19T09:55:37Z</time>
      </trkpt>
      <trkpt lat="42.90602" lon="-8.36612">
        <ele>282.1</ele>
        <time>2016-07-19T09:57:11Z</time>
      </trkpt>
      <trkpt lat="42.90594" lon="-8.36617">
        <ele>282</ele>
        <time>2016-07-19T09:58:47Z</time>
      </trkpt>
      <trkpt lat="42.9059" lon="-8.36629">
        <ele>284.3</ele>
        <time>2016-07-19T09:59:23Z</time>
      </trkpt>
      <trkpt lat="42.90593" lon="-8.36617">
        <ele>283.2</ele>
        <time>2016-07-19T09:59:56Z</time>
      </trkpt>
      <trkpt lat="42.90598" lon="-8.36607">
        <ele>281.7</ele>
        <time>2016-07-19T10:00:25Z</time>
      </trkpt>
      <trkpt lat="42.90593" lon="-8.36617">
        <ele>282.5</ele>
        <time>2016-07-19T10:02:43Z</time>
      </trkpt>
      <trkpt lat="42.90607" lon="-8.3662">
        <ele>281.8</ele>
        <time>2016-07-19T10:06:54Z</time>
      </trkpt>
      <trkpt lat="42.90598" lon="-8.36606">
        <ele>281</ele>
        <time>2016-07-19T10:07:19Z</time>
      </trkpt>
      <trkpt lat="42.90583" lon="-8.36601">
        <ele>281</ele>
        <time>2016-07-19T10:07:25Z</time>
      </trkpt>
      <trkpt lat="42.90595" lon="-8.36613">
        <ele>281.6</ele>
        <time>2016-07-19T10:07:40Z</time>
      </trkpt>
      <trkpt lat="42.90604" lon="-8.36622">
        <ele>282</ele>
        <time>2016-07-19T10:07:58Z</time>
      </trkpt>
      <trkpt lat="42.90615" lon="-8.36622">
        <ele>281</ele>
        <time>2016-07-19T10:08:32Z</time>
      </trkpt>
      <trkpt lat="42.90624" lon="-8.36617">
        <ele>281.2</ele>
        <time>2016-07-19T10:09:18Z</time>
      </trkpt>
      <trkpt lat="42.90615" lon="-8.36615">
        <ele>282</ele>
        <time>2016-07-19T10:09:52Z</time>
      </trkpt>
      <trkpt lat="42.90606" lon="-8.36617">
        <ele>281.8</ele>
        <time>2016-07-19T10:10:10Z</time>
      </trkpt>
      <trkpt lat="42.90596" lon="-8.36617">
        <ele>282</ele>
        <time>2016-07-19T10:11:02Z</time>
      </trkpt>
      <trkpt lat="42.90599" lon="-8.36605">
        <ele>282</ele>
        <time>2016-07-19T10:11:52Z</time>
      </trkpt>
      <trkpt lat="42.90607" lon="-8.36613">
        <ele>282.3</ele>
        <time>2016-07-19T10:12:50Z</time>
      </trkpt>
      <trkpt lat="42.90599" lon="-8.36606">
        <ele>281.9</ele>
        <time>2016-07-19T10:14:20Z</time>
      </trkpt>
      <trkpt lat="42.9059" lon="-8.366">
        <ele>282.1</ele>
        <time>2016-07-19T10:14:31Z</time>
      </trkpt>
      <trkpt lat="42.90596" lon="-8.36611">
        <ele>281.6</ele>
        <time>2016-07-19T10:16:21Z</time>
      </trkpt>
      <trkpt lat="42.90604" lon="-8.36617">
        <ele>281.9</ele>
        <time>2016-07-19T10:17:14Z</time>
      </trkpt>
      <trkpt lat="42.90596" lon="-8.36623">
        <ele>281.7</ele>
        <time>2016-07-19T10:19:45Z</time>
      </trkpt>
      <trkpt lat="42.90594" lon="-8.36622">
        <ele>281.3</ele>
        <time>2016-07-19T10:19:52Z</time>
      </trkpt>
    </trkseg>
  </trk>
</gpx>